<?xml version="1.0" encoding="UTF-8" standalone="no" ?>
<gpx xmlns="http://www.topografix.com/GPX/1/1" xmlns:xsi="http://www.w3.org/2001/XMLSchema-instance" xsi:schemaLocation="http://www.topografix.com/GPX/1/1 http://www.topografix.com/GPX/1/1/gpx.xsd" version="1.1" creator="VisuGPX - https://www.visugpx.com">
  <metadata>
    <name>Champagnat Cyclisme sur route</name>
  </metadata>
  <trk>
    <name><![CDATA[Champagnat Cyclisme sur route_1]]></name>
    <trkseg>
      <trkpt lat="46.48271" lon="5.36839">
        <ele>268.4</ele>
        <time>2022-04-06T12:31:01Z</time>
      </trkpt>
      <trkpt lat="46.48263" lon="5.36827">
        <ele>268</ele>
        <time>2022-04-06T12:31:02Z</time>
      </trkpt>
      <trkpt lat="46.48253" lon="5.36817">
        <ele>267</ele>
        <time>2022-04-06T12:31:03Z</time>
      </trkpt>
      <trkpt lat="46.48244" lon="5.36808">
        <ele>265.6</ele>
        <time>2022-04-06T12:31:04Z</time>
      </trkpt>
      <trkpt lat="46.48224" lon="5.36791">
        <ele>264</ele>
        <time>2022-04-06T12:31:06Z</time>
      </trkpt>
      <trkpt lat="46.48205" lon="5.36775">
        <ele>262.4</ele>
        <time>2022-04-06T12:31:08Z</time>
      </trkpt>
      <trkpt lat="46.48176" lon="5.36752">
        <ele>260.8</ele>
        <time>2022-04-06T12:31:11Z</time>
      </trkpt>
      <trkpt lat="46.48158" lon="5.36737">
        <ele>259.8</ele>
        <time>2022-04-06T12:31:13Z</time>
      </trkpt>
      <trkpt lat="46.4814" lon="5.36723">
        <ele>258.6</ele>
        <time>2022-04-06T12:31:15Z</time>
      </trkpt>
      <trkpt lat="46.48131" lon="5.36717">
        <ele>258.2</ele>
        <time>2022-04-06T12:31:16Z</time>
      </trkpt>
      <trkpt lat="46.48122" lon="5.36712">
        <ele>257</ele>
        <time>2022-04-06T12:31:17Z</time>
      </trkpt>
      <trkpt lat="46.48115" lon="5.36706">
        <ele>256.4</ele>
        <time>2022-04-06T12:31:18Z</time>
      </trkpt>
      <trkpt lat="46.48109" lon="5.36699">
        <ele>256</ele>
        <time>2022-04-06T12:31:19Z</time>
      </trkpt>
      <trkpt lat="46.48105" lon="5.36692">
        <ele>255.4</ele>
        <time>2022-04-06T12:31:20Z</time>
      </trkpt>
      <trkpt lat="46.48105" lon="5.36683">
        <ele>254.8</ele>
        <time>2022-04-06T12:31:21Z</time>
      </trkpt>
      <trkpt lat="46.48116" lon="5.36667">
        <ele>253.8</ele>
        <time>2022-04-06T12:31:23Z</time>
      </trkpt>
      <trkpt lat="46.48123" lon="5.3666">
        <ele>253.4</ele>
        <time>2022-04-06T12:31:24Z</time>
      </trkpt>
      <trkpt lat="46.48138" lon="5.36646">
        <ele>252.4</ele>
        <time>2022-04-06T12:31:26Z</time>
      </trkpt>
      <trkpt lat="46.48144" lon="5.36638">
        <ele>251.4</ele>
        <time>2022-04-06T12:31:27Z</time>
      </trkpt>
      <trkpt lat="46.48151" lon="5.3663">
        <ele>251.2</ele>
        <time>2022-04-06T12:31:28Z</time>
      </trkpt>
      <trkpt lat="46.48178" lon="5.36611">
        <ele>250</ele>
        <time>2022-04-06T12:31:31Z</time>
      </trkpt>
      <trkpt lat="46.48187" lon="5.36607">
        <ele>249.8</ele>
        <time>2022-04-06T12:31:32Z</time>
      </trkpt>
      <trkpt lat="46.48195" lon="5.36605">
        <ele>249.6</ele>
        <time>2022-04-06T12:31:33Z</time>
      </trkpt>
      <trkpt lat="46.4821" lon="5.36598">
        <ele>249.4</ele>
        <time>2022-04-06T12:31:35Z</time>
      </trkpt>
      <trkpt lat="46.48221" lon="5.3658">
        <ele>249.2</ele>
        <time>2022-04-06T12:31:37Z</time>
      </trkpt>
      <trkpt lat="46.48229" lon="5.36559">
        <ele>248.8</ele>
        <time>2022-04-06T12:31:39Z</time>
      </trkpt>
      <trkpt lat="46.48241" lon="5.36543">
        <ele>248.2</ele>
        <time>2022-04-06T12:31:41Z</time>
      </trkpt>
      <trkpt lat="46.48262" lon="5.36521">
        <ele>247.8</ele>
        <time>2022-04-06T12:31:44Z</time>
      </trkpt>
      <trkpt lat="46.48276" lon="5.36506">
        <ele>247.4</ele>
        <time>2022-04-06T12:31:46Z</time>
      </trkpt>
      <trkpt lat="46.48291" lon="5.36489">
        <ele>246.8</ele>
        <time>2022-04-06T12:31:48Z</time>
      </trkpt>
      <trkpt lat="46.48305" lon="5.36473">
        <ele>246.2</ele>
        <time>2022-04-06T12:31:50Z</time>
      </trkpt>
      <trkpt lat="46.48325" lon="5.3645">
        <ele>245.6</ele>
        <time>2022-04-06T12:31:53Z</time>
      </trkpt>
      <trkpt lat="46.48355" lon="5.36418">
        <ele>244.8</ele>
        <time>2022-04-06T12:31:57Z</time>
      </trkpt>
      <trkpt lat="46.48364" lon="5.36408">
        <ele>244.6</ele>
        <time>2022-04-06T12:31:58Z</time>
      </trkpt>
      <trkpt lat="46.48399" lon="5.36371">
        <ele>243.4</ele>
        <time>2022-04-06T12:32:03Z</time>
      </trkpt>
      <trkpt lat="46.48409" lon="5.36363">
        <ele>243.2</ele>
        <time>2022-04-06T12:32:04Z</time>
      </trkpt>
      <trkpt lat="46.48415" lon="5.36359">
        <ele>243.2</ele>
        <time>2022-04-06T12:32:05Z</time>
      </trkpt>
      <trkpt lat="46.48425" lon="5.36354">
        <ele>242.8</ele>
        <time>2022-04-06T12:32:06Z</time>
      </trkpt>
      <trkpt lat="46.4844" lon="5.36348">
        <ele>242.4</ele>
        <time>2022-04-06T12:32:08Z</time>
      </trkpt>
      <trkpt lat="46.48448" lon="5.36346">
        <ele>242.4</ele>
        <time>2022-04-06T12:32:09Z</time>
      </trkpt>
      <trkpt lat="46.48505" lon="5.36338">
        <ele>241.6</ele>
        <time>2022-04-06T12:32:16Z</time>
      </trkpt>
      <trkpt lat="46.48528" lon="5.36333">
        <ele>241.4</ele>
        <time>2022-04-06T12:32:19Z</time>
      </trkpt>
      <trkpt lat="46.48544" lon="5.36331">
        <ele>241.2</ele>
        <time>2022-04-06T12:32:21Z</time>
      </trkpt>
      <trkpt lat="46.48559" lon="5.36329">
        <ele>241</ele>
        <time>2022-04-06T12:32:23Z</time>
      </trkpt>
      <trkpt lat="46.48588" lon="5.36325">
        <ele>240.4</ele>
        <time>2022-04-06T12:32:27Z</time>
      </trkpt>
      <trkpt lat="46.48598" lon="5.36324">
        <ele>240</ele>
        <time>2022-04-06T12:32:29Z</time>
      </trkpt>
      <trkpt lat="46.48607" lon="5.36322">
        <ele>239.2</ele>
        <time>2022-04-06T12:32:32Z</time>
      </trkpt>
      <trkpt lat="46.48611" lon="5.36321">
        <ele>239</ele>
        <time>2022-04-06T12:32:33Z</time>
      </trkpt>
      <trkpt lat="46.48616" lon="5.36318">
        <ele>238.6</ele>
        <time>2022-04-06T12:32:34Z</time>
      </trkpt>
      <trkpt lat="46.48626" lon="5.36307">
        <ele>238.2</ele>
        <time>2022-04-06T12:32:36Z</time>
      </trkpt>
      <trkpt lat="46.48633" lon="5.36287">
        <ele>237.6</ele>
        <time>2022-04-06T12:32:38Z</time>
      </trkpt>
      <trkpt lat="46.48635" lon="5.36275">
        <ele>237.6</ele>
        <time>2022-04-06T12:32:39Z</time>
      </trkpt>
      <trkpt lat="46.48637" lon="5.36263">
        <ele>237</ele>
        <time>2022-04-06T12:32:40Z</time>
      </trkpt>
      <trkpt lat="46.48641" lon="5.36225">
        <ele>236</ele>
        <time>2022-04-06T12:32:43Z</time>
      </trkpt>
      <trkpt lat="46.48643" lon="5.36187">
        <ele>235.4</ele>
        <time>2022-04-06T12:32:46Z</time>
      </trkpt>
      <trkpt lat="46.48645" lon="5.36162">
        <ele>234.8</ele>
        <time>2022-04-06T12:32:48Z</time>
      </trkpt>
      <trkpt lat="46.48655" lon="5.36103">
        <ele>234.2</ele>
        <time>2022-04-06T12:32:53Z</time>
      </trkpt>
      <trkpt lat="46.48669" lon="5.3604">
        <ele>234</ele>
        <time>2022-04-06T12:32:59Z</time>
      </trkpt>
      <trkpt lat="46.48672" lon="5.36025">
        <ele>234</ele>
        <time>2022-04-06T12:33:01Z</time>
      </trkpt>
      <trkpt lat="46.48677" lon="5.36">
        <ele>234.4</ele>
        <time>2022-04-06T12:33:04Z</time>
      </trkpt>
      <trkpt lat="46.48678" lon="5.35993">
        <ele>234.4</ele>
        <time>2022-04-06T12:33:05Z</time>
      </trkpt>
      <trkpt lat="46.48685" lon="5.35949">
        <ele>235.2</ele>
        <time>2022-04-06T12:33:10Z</time>
      </trkpt>
      <trkpt lat="46.48689" lon="5.35922">
        <ele>235.6</ele>
        <time>2022-04-06T12:33:13Z</time>
      </trkpt>
      <trkpt lat="46.48697" lon="5.35894">
        <ele>235.6</ele>
        <time>2022-04-06T12:33:16Z</time>
      </trkpt>
      <trkpt lat="46.48726" lon="5.35819">
        <ele>234.4</ele>
        <time>2022-04-06T12:33:24Z</time>
      </trkpt>
      <trkpt lat="46.48743" lon="5.35783">
        <ele>233.8</ele>
        <time>2022-04-06T12:33:28Z</time>
      </trkpt>
      <trkpt lat="46.48751" lon="5.35764">
        <ele>233.4</ele>
        <time>2022-04-06T12:33:30Z</time>
      </trkpt>
      <trkpt lat="46.48767" lon="5.35728">
        <ele>232.8</ele>
        <time>2022-04-06T12:33:34Z</time>
      </trkpt>
      <trkpt lat="46.48779" lon="5.35701">
        <ele>232.6</ele>
        <time>2022-04-06T12:33:37Z</time>
      </trkpt>
      <trkpt lat="46.48801" lon="5.3565">
        <ele>232.6</ele>
        <time>2022-04-06T12:33:43Z</time>
      </trkpt>
      <trkpt lat="46.48812" lon="5.35625">
        <ele>232.6</ele>
        <time>2022-04-06T12:33:46Z</time>
      </trkpt>
      <trkpt lat="46.48826" lon="5.35592">
        <ele>232.6</ele>
        <time>2022-04-06T12:33:50Z</time>
      </trkpt>
      <trkpt lat="46.48836" lon="5.35568">
        <ele>232.6</ele>
        <time>2022-04-06T12:33:53Z</time>
      </trkpt>
      <trkpt lat="46.48868" lon="5.35495">
        <ele>232.8</ele>
        <time>2022-04-06T12:34:02Z</time>
      </trkpt>
      <trkpt lat="46.48875" lon="5.35478">
        <ele>232.8</ele>
        <time>2022-04-06T12:34:04Z</time>
      </trkpt>
      <trkpt lat="46.48904" lon="5.35412">
        <ele>232.6</ele>
        <time>2022-04-06T12:34:12Z</time>
      </trkpt>
      <trkpt lat="46.48937" lon="5.35338">
        <ele>232</ele>
        <time>2022-04-06T12:34:20Z</time>
      </trkpt>
      <trkpt lat="46.48941" lon="5.35329">
        <ele>232</ele>
        <time>2022-04-06T12:34:21Z</time>
      </trkpt>
      <trkpt lat="46.48953" lon="5.35303">
        <ele>231.6</ele>
        <time>2022-04-06T12:34:24Z</time>
      </trkpt>
      <trkpt lat="46.48974" lon="5.35253">
        <ele>231.6</ele>
        <time>2022-04-06T12:34:30Z</time>
      </trkpt>
      <trkpt lat="46.48999" lon="5.352">
        <ele>231.8</ele>
        <time>2022-04-06T12:34:37Z</time>
      </trkpt>
      <trkpt lat="46.49002" lon="5.35193">
        <ele>232</ele>
        <time>2022-04-06T12:34:38Z</time>
      </trkpt>
      <trkpt lat="46.49021" lon="5.35147">
        <ele>232.8</ele>
        <time>2022-04-06T12:34:44Z</time>
      </trkpt>
      <trkpt lat="46.49025" lon="5.3514">
        <ele>232.8</ele>
        <time>2022-04-06T12:34:45Z</time>
      </trkpt>
      <trkpt lat="46.49035" lon="5.35117">
        <ele>233</ele>
        <time>2022-04-06T12:34:48Z</time>
      </trkpt>
      <trkpt lat="46.49045" lon="5.35104">
        <ele>233.2</ele>
        <time>2022-04-06T12:34:50Z</time>
      </trkpt>
      <trkpt lat="46.49085" lon="5.3507">
        <ele>233.2</ele>
        <time>2022-04-06T12:34:57Z</time>
      </trkpt>
      <trkpt lat="46.4911" lon="5.35048">
        <ele>233.2</ele>
        <time>2022-04-06T12:35:01Z</time>
      </trkpt>
      <trkpt lat="46.49143" lon="5.3502">
        <ele>232.4</ele>
        <time>2022-04-06T12:35:06Z</time>
      </trkpt>
      <trkpt lat="46.49173" lon="5.34994">
        <ele>232</ele>
        <time>2022-04-06T12:35:11Z</time>
      </trkpt>
      <trkpt lat="46.49184" lon="5.34982">
        <ele>231.8</ele>
        <time>2022-04-06T12:35:13Z</time>
      </trkpt>
      <trkpt lat="46.49195" lon="5.34968">
        <ele>232</ele>
        <time>2022-04-06T12:35:15Z</time>
      </trkpt>
      <trkpt lat="46.4921" lon="5.34945">
        <ele>231.8</ele>
        <time>2022-04-06T12:35:18Z</time>
      </trkpt>
      <trkpt lat="46.49225" lon="5.3492">
        <ele>231.8</ele>
        <time>2022-04-06T12:35:21Z</time>
      </trkpt>
      <trkpt lat="46.49239" lon="5.34897">
        <ele>231.6</ele>
        <time>2022-04-06T12:35:24Z</time>
      </trkpt>
      <trkpt lat="46.49248" lon="5.34883">
        <ele>231.4</ele>
        <time>2022-04-06T12:35:26Z</time>
      </trkpt>
      <trkpt lat="46.49257" lon="5.34869">
        <ele>231.4</ele>
        <time>2022-04-06T12:35:28Z</time>
      </trkpt>
      <trkpt lat="46.49262" lon="5.34863">
        <ele>231.2</ele>
        <time>2022-04-06T12:35:29Z</time>
      </trkpt>
      <trkpt lat="46.4928" lon="5.34844">
        <ele>231.2</ele>
        <time>2022-04-06T12:35:32Z</time>
      </trkpt>
      <trkpt lat="46.49299" lon="5.34834">
        <ele>231.2</ele>
        <time>2022-04-06T12:35:35Z</time>
      </trkpt>
      <trkpt lat="46.49312" lon="5.34832">
        <ele>231.2</ele>
        <time>2022-04-06T12:35:37Z</time>
      </trkpt>
      <trkpt lat="46.49341" lon="5.34826">
        <ele>231.2</ele>
        <time>2022-04-06T12:35:41Z</time>
      </trkpt>
      <trkpt lat="46.49353" lon="5.34825">
        <ele>231.2</ele>
        <time>2022-04-06T12:35:43Z</time>
      </trkpt>
      <trkpt lat="46.49363" lon="5.34824">
        <ele>231.2</ele>
        <time>2022-04-06T12:35:45Z</time>
      </trkpt>
      <trkpt lat="46.49389" lon="5.34818">
        <ele>231.2</ele>
        <time>2022-04-06T12:35:49Z</time>
      </trkpt>
      <trkpt lat="46.49395" lon="5.34814">
        <ele>231.4</ele>
        <time>2022-04-06T12:35:50Z</time>
      </trkpt>
      <trkpt lat="46.4943" lon="5.34791">
        <ele>231.2</ele>
        <time>2022-04-06T12:35:55Z</time>
      </trkpt>
      <trkpt lat="46.49436" lon="5.34786">
        <ele>231.2</ele>
        <time>2022-04-06T12:35:56Z</time>
      </trkpt>
      <trkpt lat="46.49449" lon="5.34771">
        <ele>231</ele>
        <time>2022-04-06T12:35:58Z</time>
      </trkpt>
      <trkpt lat="46.49463" lon="5.34755">
        <ele>230.2</ele>
        <time>2022-04-06T12:36:00Z</time>
      </trkpt>
      <trkpt lat="46.49486" lon="5.3473">
        <ele>229.6</ele>
        <time>2022-04-06T12:36:03Z</time>
      </trkpt>
      <trkpt lat="46.49502" lon="5.34712">
        <ele>229</ele>
        <time>2022-04-06T12:36:05Z</time>
      </trkpt>
      <trkpt lat="46.49526" lon="5.34682">
        <ele>227.6</ele>
        <time>2022-04-06T12:36:08Z</time>
      </trkpt>
      <trkpt lat="46.49543" lon="5.34663">
        <ele>226.6</ele>
        <time>2022-04-06T12:36:10Z</time>
      </trkpt>
      <trkpt lat="46.49563" lon="5.34636">
        <ele>224.8</ele>
        <time>2022-04-06T12:36:13Z</time>
      </trkpt>
      <trkpt lat="46.49595" lon="5.34593">
        <ele>223.4</ele>
        <time>2022-04-06T12:36:17Z</time>
      </trkpt>
      <trkpt lat="46.49601" lon="5.34583">
        <ele>223</ele>
        <time>2022-04-06T12:36:18Z</time>
      </trkpt>
      <trkpt lat="46.49607" lon="5.34573">
        <ele>222</ele>
        <time>2022-04-06T12:36:19Z</time>
      </trkpt>
      <trkpt lat="46.49626" lon="5.34548">
        <ele>220.8</ele>
        <time>2022-04-06T12:36:22Z</time>
      </trkpt>
      <trkpt lat="46.49632" lon="5.34542">
        <ele>220.6</ele>
        <time>2022-04-06T12:36:23Z</time>
      </trkpt>
      <trkpt lat="46.49638" lon="5.34537">
        <ele>220.4</ele>
        <time>2022-04-06T12:36:24Z</time>
      </trkpt>
      <trkpt lat="46.49648" lon="5.34531">
        <ele>219.8</ele>
        <time>2022-04-06T12:36:26Z</time>
      </trkpt>
      <trkpt lat="46.49652" lon="5.34527">
        <ele>219.6</ele>
        <time>2022-04-06T12:36:27Z</time>
      </trkpt>
      <trkpt lat="46.49656" lon="5.34521">
        <ele>219.2</ele>
        <time>2022-04-06T12:36:28Z</time>
      </trkpt>
      <trkpt lat="46.49658" lon="5.34515">
        <ele>219</ele>
        <time>2022-04-06T12:36:29Z</time>
      </trkpt>
      <trkpt lat="46.49662" lon="5.345">
        <ele>218.8</ele>
        <time>2022-04-06T12:36:31Z</time>
      </trkpt>
      <trkpt lat="46.49669" lon="5.34469">
        <ele>219</ele>
        <time>2022-04-06T12:36:35Z</time>
      </trkpt>
      <trkpt lat="46.49675" lon="5.34445">
        <ele>219.4</ele>
        <time>2022-04-06T12:36:38Z</time>
      </trkpt>
      <trkpt lat="46.49682" lon="5.34424">
        <ele>219.6</ele>
        <time>2022-04-06T12:36:41Z</time>
      </trkpt>
      <trkpt lat="46.49693" lon="5.34377">
        <ele>220.6</ele>
        <time>2022-04-06T12:36:47Z</time>
      </trkpt>
      <trkpt lat="46.49694" lon="5.34369">
        <ele>220.8</ele>
        <time>2022-04-06T12:36:48Z</time>
      </trkpt>
      <trkpt lat="46.49697" lon="5.34358">
        <ele>221.4</ele>
        <time>2022-04-06T12:36:50Z</time>
      </trkpt>
      <trkpt lat="46.497" lon="5.34342">
        <ele>221.8</ele>
        <time>2022-04-06T12:36:52Z</time>
      </trkpt>
      <trkpt lat="46.49702" lon="5.34336">
        <ele>222</ele>
        <time>2022-04-06T12:36:53Z</time>
      </trkpt>
      <trkpt lat="46.49706" lon="5.34322">
        <ele>222.6</ele>
        <time>2022-04-06T12:36:55Z</time>
      </trkpt>
      <trkpt lat="46.49712" lon="5.3431">
        <ele>223</ele>
        <time>2022-04-06T12:36:57Z</time>
      </trkpt>
      <trkpt lat="46.49715" lon="5.34305">
        <ele>223.4</ele>
        <time>2022-04-06T12:36:58Z</time>
      </trkpt>
      <trkpt lat="46.49722" lon="5.34289">
        <ele>223.8</ele>
        <time>2022-04-06T12:37:00Z</time>
      </trkpt>
      <trkpt lat="46.49734" lon="5.34268">
        <ele>224</ele>
        <time>2022-04-06T12:37:03Z</time>
      </trkpt>
      <trkpt lat="46.49738" lon="5.34261">
        <ele>224</ele>
        <time>2022-04-06T12:37:04Z</time>
      </trkpt>
      <trkpt lat="46.4976" lon="5.34227">
        <ele>224</ele>
        <time>2022-04-06T12:37:09Z</time>
      </trkpt>
      <trkpt lat="46.49796" lon="5.34168">
        <ele>224.2</ele>
        <time>2022-04-06T12:37:18Z</time>
      </trkpt>
      <trkpt lat="46.49829" lon="5.34114">
        <ele>224.4</ele>
        <time>2022-04-06T12:37:26Z</time>
      </trkpt>
      <trkpt lat="46.4987" lon="5.34052">
        <ele>224.2</ele>
        <time>2022-04-06T12:37:35Z</time>
      </trkpt>
      <trkpt lat="46.49914" lon="5.34002">
        <ele>224.2</ele>
        <time>2022-04-06T12:37:44Z</time>
      </trkpt>
      <trkpt lat="46.49922" lon="5.33993">
        <ele>224.2</ele>
        <time>2022-04-06T12:37:46Z</time>
      </trkpt>
      <trkpt lat="46.49932" lon="5.33985">
        <ele>224.4</ele>
        <time>2022-04-06T12:37:48Z</time>
      </trkpt>
      <trkpt lat="46.49936" lon="5.33981">
        <ele>224.6</ele>
        <time>2022-04-06T12:37:49Z</time>
      </trkpt>
      <trkpt lat="46.49944" lon="5.33972">
        <ele>224.8</ele>
        <time>2022-04-06T12:37:51Z</time>
      </trkpt>
      <trkpt lat="46.49948" lon="5.33967">
        <ele>224.8</ele>
        <time>2022-04-06T12:37:52Z</time>
      </trkpt>
      <trkpt lat="46.49962" lon="5.33951">
        <ele>225.2</ele>
        <time>2022-04-06T12:37:55Z</time>
      </trkpt>
      <trkpt lat="46.4997" lon="5.33942">
        <ele>225.6</ele>
        <time>2022-04-06T12:37:57Z</time>
      </trkpt>
      <trkpt lat="46.49979" lon="5.33932">
        <ele>225.8</ele>
        <time>2022-04-06T12:37:59Z</time>
      </trkpt>
      <trkpt lat="46.50019" lon="5.33888">
        <ele>226.8</ele>
        <time>2022-04-06T12:38:07Z</time>
      </trkpt>
      <trkpt lat="46.50047" lon="5.33855">
        <ele>226.8</ele>
        <time>2022-04-06T12:38:12Z</time>
      </trkpt>
      <trkpt lat="46.50084" lon="5.33815">
        <ele>226.6</ele>
        <time>2022-04-06T12:38:18Z</time>
      </trkpt>
      <trkpt lat="46.50121" lon="5.33776">
        <ele>225.2</ele>
        <time>2022-04-06T12:38:24Z</time>
      </trkpt>
      <trkpt lat="46.5015" lon="5.33744">
        <ele>224.8</ele>
        <time>2022-04-06T12:38:29Z</time>
      </trkpt>
      <trkpt lat="46.50161" lon="5.33732">
        <ele>224.8</ele>
        <time>2022-04-06T12:38:31Z</time>
      </trkpt>
      <trkpt lat="46.50205" lon="5.33686">
        <ele>225</ele>
        <time>2022-04-06T12:38:39Z</time>
      </trkpt>
      <trkpt lat="46.5021" lon="5.3368">
        <ele>225</ele>
        <time>2022-04-06T12:38:40Z</time>
      </trkpt>
      <trkpt lat="46.50255" lon="5.33632">
        <ele>225.2</ele>
        <time>2022-04-06T12:38:48Z</time>
      </trkpt>
      <trkpt lat="46.50266" lon="5.3362">
        <ele>225</ele>
        <time>2022-04-06T12:38:50Z</time>
      </trkpt>
      <trkpt lat="46.50306" lon="5.33577">
        <ele>224.6</ele>
        <time>2022-04-06T12:38:57Z</time>
      </trkpt>
      <trkpt lat="46.50334" lon="5.33545">
        <ele>224.2</ele>
        <time>2022-04-06T12:39:02Z</time>
      </trkpt>
      <trkpt lat="46.50358" lon="5.33521">
        <ele>224</ele>
        <time>2022-04-06T12:39:06Z</time>
      </trkpt>
      <trkpt lat="46.50393" lon="5.33486">
        <ele>223.6</ele>
        <time>2022-04-06T12:39:12Z</time>
      </trkpt>
      <trkpt lat="46.5041" lon="5.33467">
        <ele>223.4</ele>
        <time>2022-04-06T12:39:15Z</time>
      </trkpt>
      <trkpt lat="46.50447" lon="5.33418">
        <ele>222.6</ele>
        <time>2022-04-06T12:39:22Z</time>
      </trkpt>
      <trkpt lat="46.50458" lon="5.33391">
        <ele>222</ele>
        <time>2022-04-06T12:39:25Z</time>
      </trkpt>
      <trkpt lat="46.50463" lon="5.33371">
        <ele>221.8</ele>
        <time>2022-04-06T12:39:27Z</time>
      </trkpt>
      <trkpt lat="46.50466" lon="5.33319">
        <ele>221.4</ele>
        <time>2022-04-06T12:39:32Z</time>
      </trkpt>
      <trkpt lat="46.50468" lon="5.33261">
        <ele>221.4</ele>
        <time>2022-04-06T12:39:38Z</time>
      </trkpt>
      <trkpt lat="46.50468" lon="5.33208">
        <ele>221.8</ele>
        <time>2022-04-06T12:39:44Z</time>
      </trkpt>
      <trkpt lat="46.50469" lon="5.33132">
        <ele>221.6</ele>
        <time>2022-04-06T12:39:52Z</time>
      </trkpt>
      <trkpt lat="46.50469" lon="5.33064">
        <ele>220.4</ele>
        <time>2022-04-06T12:39:58Z</time>
      </trkpt>
      <trkpt lat="46.5047" lon="5.33038">
        <ele>219.8</ele>
        <time>2022-04-06T12:40:00Z</time>
      </trkpt>
      <trkpt lat="46.50471" lon="5.33012">
        <ele>218.6</ele>
        <time>2022-04-06T12:40:02Z</time>
      </trkpt>
      <trkpt lat="46.50471" lon="5.32971">
        <ele>217.4</ele>
        <time>2022-04-06T12:40:05Z</time>
      </trkpt>
      <trkpt lat="46.50472" lon="5.32944">
        <ele>216.2</ele>
        <time>2022-04-06T12:40:07Z</time>
      </trkpt>
      <trkpt lat="46.50472" lon="5.32916">
        <ele>215</ele>
        <time>2022-04-06T12:40:09Z</time>
      </trkpt>
      <trkpt lat="46.50474" lon="5.32865">
        <ele>213.8</ele>
        <time>2022-04-06T12:40:13Z</time>
      </trkpt>
      <trkpt lat="46.50474" lon="5.3283">
        <ele>212.8</ele>
        <time>2022-04-06T12:40:15Z</time>
      </trkpt>
      <trkpt lat="46.50475" lon="5.32788">
        <ele>211</ele>
        <time>2022-04-06T12:40:18Z</time>
      </trkpt>
      <trkpt lat="46.50475" lon="5.32749">
        <ele>209.8</ele>
        <time>2022-04-06T12:40:21Z</time>
      </trkpt>
      <trkpt lat="46.50477" lon="5.32686">
        <ele>208.8</ele>
        <time>2022-04-06T12:40:26Z</time>
      </trkpt>
      <trkpt lat="46.50477" lon="5.32636">
        <ele>208.4</ele>
        <time>2022-04-06T12:40:30Z</time>
      </trkpt>
      <trkpt lat="46.50475" lon="5.32564">
        <ele>207.6</ele>
        <time>2022-04-06T12:40:36Z</time>
      </trkpt>
      <trkpt lat="46.50475" lon="5.32552">
        <ele>207.6</ele>
        <time>2022-04-06T12:40:37Z</time>
      </trkpt>
      <trkpt lat="46.50471" lon="5.3248">
        <ele>206.6</ele>
        <time>2022-04-06T12:40:43Z</time>
      </trkpt>
      <trkpt lat="46.50468" lon="5.32457">
        <ele>206.4</ele>
        <time>2022-04-06T12:40:45Z</time>
      </trkpt>
      <trkpt lat="46.50454" lon="5.32379">
        <ele>205.4</ele>
        <time>2022-04-06T12:40:52Z</time>
      </trkpt>
      <trkpt lat="46.50441" lon="5.32318">
        <ele>205</ele>
        <time>2022-04-06T12:40:58Z</time>
      </trkpt>
      <trkpt lat="46.50432" lon="5.3226">
        <ele>205</ele>
        <time>2022-04-06T12:41:04Z</time>
      </trkpt>
      <trkpt lat="46.50432" lon="5.32209">
        <ele>205</ele>
        <time>2022-04-06T12:41:09Z</time>
      </trkpt>
      <trkpt lat="46.50435" lon="5.32199">
        <ele>205</ele>
        <time>2022-04-06T12:41:10Z</time>
      </trkpt>
      <trkpt lat="46.50439" lon="5.32192">
        <ele>204.8</ele>
        <time>2022-04-06T12:41:11Z</time>
      </trkpt>
      <trkpt lat="46.50449" lon="5.32183">
        <ele>204.8</ele>
        <time>2022-04-06T12:41:13Z</time>
      </trkpt>
      <trkpt lat="46.50457" lon="5.32175">
        <ele>204.6</ele>
        <time>2022-04-06T12:41:14Z</time>
      </trkpt>
      <trkpt lat="46.50465" lon="5.3216">
        <ele>204.4</ele>
        <time>2022-04-06T12:41:16Z</time>
      </trkpt>
      <trkpt lat="46.50482" lon="5.32106">
        <ele>204.2</ele>
        <time>2022-04-06T12:41:22Z</time>
      </trkpt>
      <trkpt lat="46.50501" lon="5.32065">
        <ele>204.6</ele>
        <time>2022-04-06T12:41:27Z</time>
      </trkpt>
      <trkpt lat="46.50514" lon="5.32041">
        <ele>204.6</ele>
        <time>2022-04-06T12:41:30Z</time>
      </trkpt>
      <trkpt lat="46.50547" lon="5.31994">
        <ele>204.8</ele>
        <time>2022-04-06T12:41:37Z</time>
      </trkpt>
      <trkpt lat="46.50563" lon="5.31955">
        <ele>205.8</ele>
        <time>2022-04-06T12:41:43Z</time>
      </trkpt>
      <trkpt lat="46.50573" lon="5.31926">
        <ele>206.8</ele>
        <time>2022-04-06T12:41:48Z</time>
      </trkpt>
      <trkpt lat="46.50575" lon="5.3192">
        <ele>207</ele>
        <time>2022-04-06T12:41:49Z</time>
      </trkpt>
      <trkpt lat="46.50583" lon="5.31897">
        <ele>208</ele>
        <time>2022-04-06T12:41:53Z</time>
      </trkpt>
      <trkpt lat="46.50588" lon="5.31887">
        <ele>208.6</ele>
        <time>2022-04-06T12:41:55Z</time>
      </trkpt>
      <trkpt lat="46.5059" lon="5.31881">
        <ele>208.8</ele>
        <time>2022-04-06T12:41:56Z</time>
      </trkpt>
      <trkpt lat="46.50592" lon="5.31876">
        <ele>209</ele>
        <time>2022-04-06T12:41:57Z</time>
      </trkpt>
      <trkpt lat="46.50594" lon="5.31871">
        <ele>209.4</ele>
        <time>2022-04-06T12:41:58Z</time>
      </trkpt>
      <trkpt lat="46.50598" lon="5.31862">
        <ele>209.8</ele>
        <time>2022-04-06T12:42:00Z</time>
      </trkpt>
      <trkpt lat="46.50602" lon="5.31851">
        <ele>210.4</ele>
        <time>2022-04-06T12:42:02Z</time>
      </trkpt>
      <trkpt lat="46.50606" lon="5.31834">
        <ele>210.8</ele>
        <time>2022-04-06T12:42:05Z</time>
      </trkpt>
      <trkpt lat="46.50614" lon="5.31818">
        <ele>211.6</ele>
        <time>2022-04-06T12:42:08Z</time>
      </trkpt>
      <trkpt lat="46.5062" lon="5.31808">
        <ele>212</ele>
        <time>2022-04-06T12:42:10Z</time>
      </trkpt>
      <trkpt lat="46.50629" lon="5.3178">
        <ele>212.4</ele>
        <time>2022-04-06T12:42:14Z</time>
      </trkpt>
      <trkpt lat="46.50632" lon="5.31773">
        <ele>212.6</ele>
        <time>2022-04-06T12:42:15Z</time>
      </trkpt>
      <trkpt lat="46.50634" lon="5.31766">
        <ele>213</ele>
        <time>2022-04-06T12:42:16Z</time>
      </trkpt>
      <trkpt lat="46.5064" lon="5.31751">
        <ele>213.2</ele>
        <time>2022-04-06T12:42:18Z</time>
      </trkpt>
      <trkpt lat="46.50644" lon="5.31744">
        <ele>213.4</ele>
        <time>2022-04-06T12:42:19Z</time>
      </trkpt>
      <trkpt lat="46.50656" lon="5.31725">
        <ele>213.6</ele>
        <time>2022-04-06T12:42:22Z</time>
      </trkpt>
      <trkpt lat="46.50665" lon="5.31718">
        <ele>213.6</ele>
        <time>2022-04-06T12:42:24Z</time>
      </trkpt>
      <trkpt lat="46.50676" lon="5.31714">
        <ele>213.6</ele>
        <time>2022-04-06T12:42:26Z</time>
      </trkpt>
      <trkpt lat="46.50681" lon="5.31713">
        <ele>213.8</ele>
        <time>2022-04-06T12:42:27Z</time>
      </trkpt>
      <trkpt lat="46.50698" lon="5.3171">
        <ele>213.8</ele>
        <time>2022-04-06T12:42:30Z</time>
      </trkpt>
      <trkpt lat="46.50753" lon="5.31704">
        <ele>214</ele>
        <time>2022-04-06T12:42:39Z</time>
      </trkpt>
      <trkpt lat="46.50766" lon="5.31704">
        <ele>214</ele>
        <time>2022-04-06T12:42:41Z</time>
      </trkpt>
      <trkpt lat="46.50778" lon="5.31708">
        <ele>214</ele>
        <time>2022-04-06T12:42:43Z</time>
      </trkpt>
      <trkpt lat="46.50784" lon="5.31712">
        <ele>214</ele>
        <time>2022-04-06T12:42:44Z</time>
      </trkpt>
      <trkpt lat="46.50827" lon="5.31744">
        <ele>214</ele>
        <time>2022-04-06T12:42:52Z</time>
      </trkpt>
      <trkpt lat="46.50838" lon="5.31746">
        <ele>214.2</ele>
        <time>2022-04-06T12:42:54Z</time>
      </trkpt>
      <trkpt lat="46.50848" lon="5.31744">
        <ele>214.2</ele>
        <time>2022-04-06T12:42:56Z</time>
      </trkpt>
      <trkpt lat="46.50858" lon="5.31736">
        <ele>214.4</ele>
        <time>2022-04-06T12:42:58Z</time>
      </trkpt>
      <trkpt lat="46.50873" lon="5.31721">
        <ele>214.8</ele>
        <time>2022-04-06T12:43:01Z</time>
      </trkpt>
      <trkpt lat="46.50902" lon="5.31689">
        <ele>215</ele>
        <time>2022-04-06T12:43:07Z</time>
      </trkpt>
      <trkpt lat="46.50908" lon="5.31683">
        <ele>215</ele>
        <time>2022-04-06T12:43:08Z</time>
      </trkpt>
      <trkpt lat="46.50946" lon="5.31642">
        <ele>215</ele>
        <time>2022-04-06T12:43:14Z</time>
      </trkpt>
      <trkpt lat="46.50982" lon="5.31604">
        <ele>214</ele>
        <time>2022-04-06T12:43:20Z</time>
      </trkpt>
      <trkpt lat="46.5101" lon="5.31575">
        <ele>213.8</ele>
        <time>2022-04-06T12:43:25Z</time>
      </trkpt>
      <trkpt lat="46.51016" lon="5.3157">
        <ele>213.8</ele>
        <time>2022-04-06T12:43:26Z</time>
      </trkpt>
      <trkpt lat="46.5103" lon="5.31551">
        <ele>214</ele>
        <time>2022-04-06T12:43:29Z</time>
      </trkpt>
      <trkpt lat="46.51034" lon="5.31544">
        <ele>214</ele>
        <time>2022-04-06T12:43:30Z</time>
      </trkpt>
      <trkpt lat="46.51038" lon="5.31536">
        <ele>214.2</ele>
        <time>2022-04-06T12:43:31Z</time>
      </trkpt>
      <trkpt lat="46.51047" lon="5.31506">
        <ele>214.2</ele>
        <time>2022-04-06T12:43:34Z</time>
      </trkpt>
      <trkpt lat="46.51062" lon="5.31437">
        <ele>213.6</ele>
        <time>2022-04-06T12:43:40Z</time>
      </trkpt>
      <trkpt lat="46.51064" lon="5.31424">
        <ele>213.4</ele>
        <time>2022-04-06T12:43:41Z</time>
      </trkpt>
      <trkpt lat="46.51072" lon="5.31387">
        <ele>212.2</ele>
        <time>2022-04-06T12:43:44Z</time>
      </trkpt>
      <trkpt lat="46.51073" lon="5.31374">
        <ele>211.8</ele>
        <time>2022-04-06T12:43:45Z</time>
      </trkpt>
      <trkpt lat="46.51072" lon="5.31361">
        <ele>211.6</ele>
        <time>2022-04-06T12:43:46Z</time>
      </trkpt>
      <trkpt lat="46.5107" lon="5.31322">
        <ele>211</ele>
        <time>2022-04-06T12:43:49Z</time>
      </trkpt>
      <trkpt lat="46.51073" lon="5.31309">
        <ele>210.4</ele>
        <time>2022-04-06T12:43:50Z</time>
      </trkpt>
      <trkpt lat="46.51077" lon="5.31297">
        <ele>210.2</ele>
        <time>2022-04-06T12:43:51Z</time>
      </trkpt>
      <trkpt lat="46.51083" lon="5.31286">
        <ele>210</ele>
        <time>2022-04-06T12:43:52Z</time>
      </trkpt>
      <trkpt lat="46.51089" lon="5.31277">
        <ele>209.8</ele>
        <time>2022-04-06T12:43:53Z</time>
      </trkpt>
      <trkpt lat="46.51112" lon="5.31251">
        <ele>208.8</ele>
        <time>2022-04-06T12:43:56Z</time>
      </trkpt>
      <trkpt lat="46.51129" lon="5.31234">
        <ele>207.8</ele>
        <time>2022-04-06T12:43:58Z</time>
      </trkpt>
      <trkpt lat="46.51151" lon="5.31208">
        <ele>206.4</ele>
        <time>2022-04-06T12:44:01Z</time>
      </trkpt>
      <trkpt lat="46.51179" lon="5.31173">
        <ele>205.4</ele>
        <time>2022-04-06T12:44:05Z</time>
      </trkpt>
      <trkpt lat="46.51193" lon="5.31156">
        <ele>205</ele>
        <time>2022-04-06T12:44:07Z</time>
      </trkpt>
      <trkpt lat="46.512" lon="5.31146">
        <ele>205</ele>
        <time>2022-04-06T12:44:08Z</time>
      </trkpt>
      <trkpt lat="46.5122" lon="5.3112">
        <ele>204.6</ele>
        <time>2022-04-06T12:44:11Z</time>
      </trkpt>
      <trkpt lat="46.51233" lon="5.31103">
        <ele>204.4</ele>
        <time>2022-04-06T12:44:13Z</time>
      </trkpt>
      <trkpt lat="46.51249" lon="5.31088">
        <ele>203.8</ele>
        <time>2022-04-06T12:44:15Z</time>
      </trkpt>
      <trkpt lat="46.51257" lon="5.31082">
        <ele>203.6</ele>
        <time>2022-04-06T12:44:16Z</time>
      </trkpt>
      <trkpt lat="46.51266" lon="5.31079">
        <ele>203.4</ele>
        <time>2022-04-06T12:44:17Z</time>
      </trkpt>
      <trkpt lat="46.51275" lon="5.31078">
        <ele>203.2</ele>
        <time>2022-04-06T12:44:18Z</time>
      </trkpt>
      <trkpt lat="46.51284" lon="5.31077">
        <ele>203</ele>
        <time>2022-04-06T12:44:19Z</time>
      </trkpt>
      <trkpt lat="46.51326" lon="5.31076">
        <ele>202.2</ele>
        <time>2022-04-06T12:44:24Z</time>
      </trkpt>
      <trkpt lat="46.51334" lon="5.31076">
        <ele>202</ele>
        <time>2022-04-06T12:44:25Z</time>
      </trkpt>
      <trkpt lat="46.51389" lon="5.31074">
        <ele>202</ele>
        <time>2022-04-06T12:44:32Z</time>
      </trkpt>
      <trkpt lat="46.51397" lon="5.31073">
        <ele>202</ele>
        <time>2022-04-06T12:44:33Z</time>
      </trkpt>
      <trkpt lat="46.51451" lon="5.3107">
        <ele>201.6</ele>
        <time>2022-04-06T12:44:40Z</time>
      </trkpt>
      <trkpt lat="46.51479" lon="5.3107">
        <ele>201.4</ele>
        <time>2022-04-06T12:44:44Z</time>
      </trkpt>
      <trkpt lat="46.51535" lon="5.31074">
        <ele>201.6</ele>
        <time>2022-04-06T12:44:51Z</time>
      </trkpt>
      <trkpt lat="46.51549" lon="5.31075">
        <ele>201.8</ele>
        <time>2022-04-06T12:44:53Z</time>
      </trkpt>
      <trkpt lat="46.51597" lon="5.31084">
        <ele>202</ele>
        <time>2022-04-06T12:45:00Z</time>
      </trkpt>
      <trkpt lat="46.51632" lon="5.31102">
        <ele>202</ele>
        <time>2022-04-06T12:45:06Z</time>
      </trkpt>
      <trkpt lat="46.51637" lon="5.31104">
        <ele>202.2</ele>
        <time>2022-04-06T12:45:07Z</time>
      </trkpt>
      <trkpt lat="46.51647" lon="5.31106">
        <ele>202.8</ele>
        <time>2022-04-06T12:45:09Z</time>
      </trkpt>
      <trkpt lat="46.51652" lon="5.31105">
        <ele>203</ele>
        <time>2022-04-06T12:45:10Z</time>
      </trkpt>
      <trkpt lat="46.51662" lon="5.31104">
        <ele>203.2</ele>
        <time>2022-04-06T12:45:12Z</time>
      </trkpt>
      <trkpt lat="46.51671" lon="5.31107">
        <ele>203.4</ele>
        <time>2022-04-06T12:45:14Z</time>
      </trkpt>
      <trkpt lat="46.51678" lon="5.31117">
        <ele>203.8</ele>
        <time>2022-04-06T12:45:16Z</time>
      </trkpt>
      <trkpt lat="46.51686" lon="5.31131">
        <ele>204.2</ele>
        <time>2022-04-06T12:45:18Z</time>
      </trkpt>
      <trkpt lat="46.51706" lon="5.31158">
        <ele>204.2</ele>
        <time>2022-04-06T12:45:22Z</time>
      </trkpt>
      <trkpt lat="46.51712" lon="5.31163">
        <ele>204</ele>
        <time>2022-04-06T12:45:23Z</time>
      </trkpt>
      <trkpt lat="46.51718" lon="5.31167">
        <ele>204</ele>
        <time>2022-04-06T12:45:24Z</time>
      </trkpt>
      <trkpt lat="46.51741" lon="5.31177">
        <ele>203.8</ele>
        <time>2022-04-06T12:45:27Z</time>
      </trkpt>
      <trkpt lat="46.51787" lon="5.31179">
        <ele>202.6</ele>
        <time>2022-04-06T12:45:32Z</time>
      </trkpt>
      <trkpt lat="46.51806" lon="5.31179">
        <ele>202.2</ele>
        <time>2022-04-06T12:45:34Z</time>
      </trkpt>
      <trkpt lat="46.51825" lon="5.31181">
        <ele>201.6</ele>
        <time>2022-04-06T12:45:36Z</time>
      </trkpt>
      <trkpt lat="46.51835" lon="5.31184">
        <ele>200.8</ele>
        <time>2022-04-06T12:45:37Z</time>
      </trkpt>
      <trkpt lat="46.51853" lon="5.31195">
        <ele>199.6</ele>
        <time>2022-04-06T12:45:39Z</time>
      </trkpt>
      <trkpt lat="46.51862" lon="5.31202">
        <ele>199</ele>
        <time>2022-04-06T12:45:40Z</time>
      </trkpt>
      <trkpt lat="46.5187" lon="5.3121">
        <ele>198.8</ele>
        <time>2022-04-06T12:45:41Z</time>
      </trkpt>
      <trkpt lat="46.51877" lon="5.31219">
        <ele>197.8</ele>
        <time>2022-04-06T12:45:42Z</time>
      </trkpt>
      <trkpt lat="46.51901" lon="5.31256">
        <ele>197</ele>
        <time>2022-04-06T12:45:46Z</time>
      </trkpt>
      <trkpt lat="46.51906" lon="5.31265">
        <ele>196.8</ele>
        <time>2022-04-06T12:45:47Z</time>
      </trkpt>
      <trkpt lat="46.5194" lon="5.31317">
        <ele>196.6</ele>
        <time>2022-04-06T12:45:53Z</time>
      </trkpt>
      <trkpt lat="46.51983" lon="5.31379">
        <ele>196.8</ele>
        <time>2022-04-06T12:46:01Z</time>
      </trkpt>
      <trkpt lat="46.52018" lon="5.31431">
        <ele>197.4</ele>
        <time>2022-04-06T12:46:08Z</time>
      </trkpt>
      <trkpt lat="46.52051" lon="5.31479">
        <ele>197.8</ele>
        <time>2022-04-06T12:46:15Z</time>
      </trkpt>
      <trkpt lat="46.52055" lon="5.31486">
        <ele>198</ele>
        <time>2022-04-06T12:46:16Z</time>
      </trkpt>
      <trkpt lat="46.52072" lon="5.31511">
        <ele>199</ele>
        <time>2022-04-06T12:46:20Z</time>
      </trkpt>
      <trkpt lat="46.5208" lon="5.31523">
        <ele>199.4</ele>
        <time>2022-04-06T12:46:22Z</time>
      </trkpt>
      <trkpt lat="46.52095" lon="5.31543">
        <ele>200.2</ele>
        <time>2022-04-06T12:46:26Z</time>
      </trkpt>
      <trkpt lat="46.52102" lon="5.31551">
        <ele>200.6</ele>
        <time>2022-04-06T12:46:28Z</time>
      </trkpt>
      <trkpt lat="46.52109" lon="5.3156">
        <ele>200.8</ele>
        <time>2022-04-06T12:46:30Z</time>
      </trkpt>
      <trkpt lat="46.52116" lon="5.31568">
        <ele>201</ele>
        <time>2022-04-06T12:46:32Z</time>
      </trkpt>
      <trkpt lat="46.52119" lon="5.31572">
        <ele>201.2</ele>
        <time>2022-04-06T12:46:33Z</time>
      </trkpt>
      <trkpt lat="46.52123" lon="5.31576">
        <ele>201.2</ele>
        <time>2022-04-06T12:46:34Z</time>
      </trkpt>
      <trkpt lat="46.52136" lon="5.31594">
        <ele>202</ele>
        <time>2022-04-06T12:46:38Z</time>
      </trkpt>
      <trkpt lat="46.5214" lon="5.31599">
        <ele>202.4</ele>
        <time>2022-04-06T12:46:39Z</time>
      </trkpt>
      <trkpt lat="46.52144" lon="5.31606">
        <ele>202.6</ele>
        <time>2022-04-06T12:46:40Z</time>
      </trkpt>
      <trkpt lat="46.52156" lon="5.31626">
        <ele>203.4</ele>
        <time>2022-04-06T12:46:43Z</time>
      </trkpt>
      <trkpt lat="46.5216" lon="5.31633">
        <ele>203.6</ele>
        <time>2022-04-06T12:46:44Z</time>
      </trkpt>
      <trkpt lat="46.5217" lon="5.31649">
        <ele>204.2</ele>
        <time>2022-04-06T12:46:47Z</time>
      </trkpt>
      <trkpt lat="46.52179" lon="5.31663">
        <ele>204.6</ele>
        <time>2022-04-06T12:46:49Z</time>
      </trkpt>
      <trkpt lat="46.52201" lon="5.31694">
        <ele>205.2</ele>
        <time>2022-04-06T12:46:54Z</time>
      </trkpt>
      <trkpt lat="46.52209" lon="5.31707">
        <ele>205.8</ele>
        <time>2022-04-06T12:46:56Z</time>
      </trkpt>
      <trkpt lat="46.52226" lon="5.31727">
        <ele>206.2</ele>
        <time>2022-04-06T12:47:00Z</time>
      </trkpt>
      <trkpt lat="46.52245" lon="5.31755">
        <ele>207</ele>
        <time>2022-04-06T12:47:05Z</time>
      </trkpt>
      <trkpt lat="46.52252" lon="5.31765">
        <ele>207.4</ele>
        <time>2022-04-06T12:47:07Z</time>
      </trkpt>
      <trkpt lat="46.52273" lon="5.31796">
        <ele>208</ele>
        <time>2022-04-06T12:47:13Z</time>
      </trkpt>
      <trkpt lat="46.52276" lon="5.31801">
        <ele>208.4</ele>
        <time>2022-04-06T12:47:14Z</time>
      </trkpt>
      <trkpt lat="46.52297" lon="5.31829">
        <ele>209.2</ele>
        <time>2022-04-06T12:47:20Z</time>
      </trkpt>
      <trkpt lat="46.52311" lon="5.31848">
        <ele>209.6</ele>
        <time>2022-04-06T12:47:24Z</time>
      </trkpt>
      <trkpt lat="46.5232" lon="5.31862">
        <ele>210</ele>
        <time>2022-04-06T12:47:27Z</time>
      </trkpt>
      <trkpt lat="46.52333" lon="5.3188">
        <ele>210.8</ele>
        <time>2022-04-06T12:47:31Z</time>
      </trkpt>
      <trkpt lat="46.52339" lon="5.3189">
        <ele>211</ele>
        <time>2022-04-06T12:47:33Z</time>
      </trkpt>
      <trkpt lat="46.52353" lon="5.31908">
        <ele>211.6</ele>
        <time>2022-04-06T12:47:37Z</time>
      </trkpt>
      <trkpt lat="46.52367" lon="5.31928">
        <ele>211.8</ele>
        <time>2022-04-06T12:47:41Z</time>
      </trkpt>
      <trkpt lat="46.52376" lon="5.3194">
        <ele>212</ele>
        <time>2022-04-06T12:47:43Z</time>
      </trkpt>
      <trkpt lat="46.52394" lon="5.31966">
        <ele>211.8</ele>
        <time>2022-04-06T12:47:47Z</time>
      </trkpt>
      <trkpt lat="46.52419" lon="5.32002">
        <ele>211</ele>
        <time>2022-04-06T12:47:52Z</time>
      </trkpt>
      <trkpt lat="46.5243" lon="5.32018">
        <ele>210.8</ele>
        <time>2022-04-06T12:47:54Z</time>
      </trkpt>
      <trkpt lat="46.52447" lon="5.32042">
        <ele>210</ele>
        <time>2022-04-06T12:47:57Z</time>
      </trkpt>
      <trkpt lat="46.52464" lon="5.32066">
        <ele>209.2</ele>
        <time>2022-04-06T12:48:00Z</time>
      </trkpt>
      <trkpt lat="46.52476" lon="5.32083">
        <ele>208.6</ele>
        <time>2022-04-06T12:48:02Z</time>
      </trkpt>
      <trkpt lat="46.52507" lon="5.32126">
        <ele>207.4</ele>
        <time>2022-04-06T12:48:07Z</time>
      </trkpt>
      <trkpt lat="46.52534" lon="5.32161">
        <ele>206.4</ele>
        <time>2022-04-06T12:48:11Z</time>
      </trkpt>
      <trkpt lat="46.52545" lon="5.32174">
        <ele>205.8</ele>
        <time>2022-04-06T12:48:13Z</time>
      </trkpt>
      <trkpt lat="46.52553" lon="5.32181">
        <ele>205.4</ele>
        <time>2022-04-06T12:48:14Z</time>
      </trkpt>
      <trkpt lat="46.52565" lon="5.32191">
        <ele>205.2</ele>
        <time>2022-04-06T12:48:15Z</time>
      </trkpt>
      <trkpt lat="46.52583" lon="5.32201">
        <ele>204.4</ele>
        <time>2022-04-06T12:48:17Z</time>
      </trkpt>
      <trkpt lat="46.52593" lon="5.32205">
        <ele>204.2</ele>
        <time>2022-04-06T12:48:18Z</time>
      </trkpt>
      <trkpt lat="46.52624" lon="5.3222">
        <ele>202.8</ele>
        <time>2022-04-06T12:48:21Z</time>
      </trkpt>
      <trkpt lat="46.52634" lon="5.32225">
        <ele>202.4</ele>
        <time>2022-04-06T12:48:22Z</time>
      </trkpt>
      <trkpt lat="46.52644" lon="5.32232">
        <ele>201.6</ele>
        <time>2022-04-06T12:48:23Z</time>
      </trkpt>
      <trkpt lat="46.52664" lon="5.32246">
        <ele>200.6</ele>
        <time>2022-04-06T12:48:25Z</time>
      </trkpt>
      <trkpt lat="46.52682" lon="5.32263">
        <ele>199.6</ele>
        <time>2022-04-06T12:48:27Z</time>
      </trkpt>
      <trkpt lat="46.52691" lon="5.32272">
        <ele>199.4</ele>
        <time>2022-04-06T12:48:28Z</time>
      </trkpt>
      <trkpt lat="46.52706" lon="5.32291">
        <ele>197.8</ele>
        <time>2022-04-06T12:48:30Z</time>
      </trkpt>
      <trkpt lat="46.5272" lon="5.32309">
        <ele>197.2</ele>
        <time>2022-04-06T12:48:32Z</time>
      </trkpt>
      <trkpt lat="46.52748" lon="5.32344">
        <ele>196.8</ele>
        <time>2022-04-06T12:48:36Z</time>
      </trkpt>
      <trkpt lat="46.52762" lon="5.3236">
        <ele>196.8</ele>
        <time>2022-04-06T12:48:38Z</time>
      </trkpt>
      <trkpt lat="46.52794" lon="5.32397">
        <ele>196.6</ele>
        <time>2022-04-06T12:48:43Z</time>
      </trkpt>
      <trkpt lat="46.52839" lon="5.32445">
        <ele>196.2</ele>
        <time>2022-04-06T12:48:50Z</time>
      </trkpt>
      <trkpt lat="46.52852" lon="5.32459">
        <ele>196.2</ele>
        <time>2022-04-06T12:48:52Z</time>
      </trkpt>
      <trkpt lat="46.52896" lon="5.32506">
        <ele>196.4</ele>
        <time>2022-04-06T12:48:59Z</time>
      </trkpt>
      <trkpt lat="46.52903" lon="5.32512">
        <ele>196.4</ele>
        <time>2022-04-06T12:49:00Z</time>
      </trkpt>
      <trkpt lat="46.52952" lon="5.32561">
        <ele>196.2</ele>
        <time>2022-04-06T12:49:08Z</time>
      </trkpt>
      <trkpt lat="46.52963" lon="5.32572">
        <ele>196.4</ele>
        <time>2022-04-06T12:49:10Z</time>
      </trkpt>
      <trkpt lat="46.52999" lon="5.3261">
        <ele>197</ele>
        <time>2022-04-06T12:49:18Z</time>
      </trkpt>
      <trkpt lat="46.53017" lon="5.32628">
        <ele>197.8</ele>
        <time>2022-04-06T12:49:22Z</time>
      </trkpt>
      <trkpt lat="46.53021" lon="5.32632">
        <ele>198.2</ele>
        <time>2022-04-06T12:49:23Z</time>
      </trkpt>
      <trkpt lat="46.53032" lon="5.32644">
        <ele>199.2</ele>
        <time>2022-04-06T12:49:26Z</time>
      </trkpt>
      <trkpt lat="46.53045" lon="5.32659">
        <ele>200.2</ele>
        <time>2022-04-06T12:49:30Z</time>
      </trkpt>
      <trkpt lat="46.53048" lon="5.32662">
        <ele>200.6</ele>
        <time>2022-04-06T12:49:31Z</time>
      </trkpt>
      <trkpt lat="46.53055" lon="5.32669">
        <ele>201.2</ele>
        <time>2022-04-06T12:49:33Z</time>
      </trkpt>
      <trkpt lat="46.53067" lon="5.32683">
        <ele>202.4</ele>
        <time>2022-04-06T12:49:37Z</time>
      </trkpt>
      <trkpt lat="46.53072" lon="5.3269">
        <ele>202.8</ele>
        <time>2022-04-06T12:49:39Z</time>
      </trkpt>
      <trkpt lat="46.53081" lon="5.327">
        <ele>203.6</ele>
        <time>2022-04-06T12:49:42Z</time>
      </trkpt>
      <trkpt lat="46.53096" lon="5.32716">
        <ele>204.6</ele>
        <time>2022-04-06T12:49:47Z</time>
      </trkpt>
      <trkpt lat="46.5311" lon="5.32732">
        <ele>205.6</ele>
        <time>2022-04-06T12:49:52Z</time>
      </trkpt>
      <trkpt lat="46.53115" lon="5.32738">
        <ele>206</ele>
        <time>2022-04-06T12:49:54Z</time>
      </trkpt>
      <trkpt lat="46.53123" lon="5.32748">
        <ele>206.6</ele>
        <time>2022-04-06T12:49:57Z</time>
      </trkpt>
      <trkpt lat="46.53132" lon="5.32758">
        <ele>207.8</ele>
        <time>2022-04-06T12:50:00Z</time>
      </trkpt>
      <trkpt lat="46.5314" lon="5.32769">
        <ele>208.4</ele>
        <time>2022-04-06T12:50:03Z</time>
      </trkpt>
      <trkpt lat="46.53145" lon="5.32776">
        <ele>208.8</ele>
        <time>2022-04-06T12:50:05Z</time>
      </trkpt>
      <trkpt lat="46.53163" lon="5.32801">
        <ele>210.2</ele>
        <time>2022-04-06T12:50:12Z</time>
      </trkpt>
      <trkpt lat="46.53165" lon="5.32805">
        <ele>210.2</ele>
        <time>2022-04-06T12:50:13Z</time>
      </trkpt>
      <trkpt lat="46.53177" lon="5.32826">
        <ele>211.2</ele>
        <time>2022-04-06T12:50:18Z</time>
      </trkpt>
      <trkpt lat="46.53189" lon="5.32847">
        <ele>212.2</ele>
        <time>2022-04-06T12:50:23Z</time>
      </trkpt>
      <trkpt lat="46.53199" lon="5.32868">
        <ele>213.2</ele>
        <time>2022-04-06T12:50:28Z</time>
      </trkpt>
      <trkpt lat="46.53205" lon="5.3288">
        <ele>213.8</ele>
        <time>2022-04-06T12:50:31Z</time>
      </trkpt>
      <trkpt lat="46.5321" lon="5.32888">
        <ele>214.4</ele>
        <time>2022-04-06T12:50:33Z</time>
      </trkpt>
      <trkpt lat="46.53221" lon="5.32913">
        <ele>215.4</ele>
        <time>2022-04-06T12:50:39Z</time>
      </trkpt>
      <trkpt lat="46.53223" lon="5.32917">
        <ele>215.6</ele>
        <time>2022-04-06T12:50:40Z</time>
      </trkpt>
      <trkpt lat="46.53236" lon="5.32943">
        <ele>216.6</ele>
        <time>2022-04-06T12:50:46Z</time>
      </trkpt>
      <trkpt lat="46.53241" lon="5.32951">
        <ele>217</ele>
        <time>2022-04-06T12:50:48Z</time>
      </trkpt>
      <trkpt lat="46.5325" lon="5.32969">
        <ele>217.8</ele>
        <time>2022-04-06T12:50:52Z</time>
      </trkpt>
      <trkpt lat="46.53266" lon="5.33002">
        <ele>219</ele>
        <time>2022-04-06T12:50:59Z</time>
      </trkpt>
      <trkpt lat="46.53269" lon="5.33006">
        <ele>219.2</ele>
        <time>2022-04-06T12:51:00Z</time>
      </trkpt>
      <trkpt lat="46.53288" lon="5.33041">
        <ele>220</ele>
        <time>2022-04-06T12:51:07Z</time>
      </trkpt>
      <trkpt lat="46.53294" lon="5.33052">
        <ele>220.2</ele>
        <time>2022-04-06T12:51:09Z</time>
      </trkpt>
      <trkpt lat="46.53325" lon="5.33094">
        <ele>220.8</ele>
        <time>2022-04-06T12:51:17Z</time>
      </trkpt>
      <trkpt lat="46.53355" lon="5.33135">
        <ele>221</ele>
        <time>2022-04-06T12:51:24Z</time>
      </trkpt>
      <trkpt lat="46.53391" lon="5.33184">
        <ele>221</ele>
        <time>2022-04-06T12:51:32Z</time>
      </trkpt>
      <trkpt lat="46.53432" lon="5.33241">
        <ele>220.8</ele>
        <time>2022-04-06T12:51:41Z</time>
      </trkpt>
      <trkpt lat="46.53437" lon="5.33247">
        <ele>220.8</ele>
        <time>2022-04-06T12:51:42Z</time>
      </trkpt>
      <trkpt lat="46.53476" lon="5.33301">
        <ele>220.6</ele>
        <time>2022-04-06T12:51:50Z</time>
      </trkpt>
      <trkpt lat="46.53515" lon="5.33356">
        <ele>220.6</ele>
        <time>2022-04-06T12:51:58Z</time>
      </trkpt>
      <trkpt lat="46.53519" lon="5.33364">
        <ele>220.6</ele>
        <time>2022-04-06T12:51:59Z</time>
      </trkpt>
      <trkpt lat="46.53558" lon="5.33415">
        <ele>220.4</ele>
        <time>2022-04-06T12:52:06Z</time>
      </trkpt>
      <trkpt lat="46.53593" lon="5.33465">
        <ele>219</ele>
        <time>2022-04-06T12:52:13Z</time>
      </trkpt>
      <trkpt lat="46.53601" lon="5.33476">
        <ele>218.8</ele>
        <time>2022-04-06T12:52:14Z</time>
      </trkpt>
      <trkpt lat="46.53623" lon="5.33507">
        <ele>217.4</ele>
        <time>2022-04-06T12:52:18Z</time>
      </trkpt>
      <trkpt lat="46.53626" lon="5.33512">
        <ele>217.2</ele>
        <time>2022-04-06T12:52:19Z</time>
      </trkpt>
      <trkpt lat="46.53628" lon="5.33522">
        <ele>216.6</ele>
        <time>2022-04-06T12:52:22Z</time>
      </trkpt>
      <trkpt lat="46.53628" lon="5.33524">
        <ele>216.6</ele>
        <time>2022-04-06T12:52:23Z</time>
      </trkpt>
      <trkpt lat="46.53628" lon="5.33525">
        <ele>216.2</ele>
        <time>2022-04-06T12:52:24Z</time>
      </trkpt>
      <trkpt lat="46.53628" lon="5.33525">
        <ele>216.2</ele>
        <time>2022-04-06T12:52:26Z</time>
      </trkpt>
      <trkpt lat="46.53628" lon="5.33525">
        <ele>216</ele>
        <time>2022-04-06T12:52:27Z</time>
      </trkpt>
      <trkpt lat="46.5363" lon="5.33526">
        <ele>215.6</ele>
        <time>2022-04-06T12:52:50Z</time>
      </trkpt>
      <trkpt lat="46.53637" lon="5.33522">
        <ele>215.6</ele>
        <time>2022-04-06T12:52:52Z</time>
      </trkpt>
      <trkpt lat="46.53664" lon="5.33502">
        <ele>215.6</ele>
        <time>2022-04-06T12:52:58Z</time>
      </trkpt>
      <trkpt lat="46.53698" lon="5.33472">
        <ele>216.6</ele>
        <time>2022-04-06T12:53:05Z</time>
      </trkpt>
      <trkpt lat="46.5371" lon="5.33471">
        <ele>216.8</ele>
        <time>2022-04-06T12:53:07Z</time>
      </trkpt>
      <trkpt lat="46.53716" lon="5.33474">
        <ele>217.2</ele>
        <time>2022-04-06T12:53:08Z</time>
      </trkpt>
      <trkpt lat="46.53729" lon="5.3348">
        <ele>217.4</ele>
        <time>2022-04-06T12:53:10Z</time>
      </trkpt>
      <trkpt lat="46.53749" lon="5.3349">
        <ele>217.2</ele>
        <time>2022-04-06T12:53:13Z</time>
      </trkpt>
      <trkpt lat="46.53791" lon="5.3352">
        <ele>216.4</ele>
        <time>2022-04-06T12:53:19Z</time>
      </trkpt>
      <trkpt lat="46.53798" lon="5.33524">
        <ele>216.2</ele>
        <time>2022-04-06T12:53:20Z</time>
      </trkpt>
      <trkpt lat="46.5384" lon="5.3355">
        <ele>215</ele>
        <time>2022-04-06T12:53:26Z</time>
      </trkpt>
      <trkpt lat="46.53854" lon="5.33556">
        <ele>214.8</ele>
        <time>2022-04-06T12:53:28Z</time>
      </trkpt>
      <trkpt lat="46.53884" lon="5.33562">
        <ele>214.2</ele>
        <time>2022-04-06T12:53:32Z</time>
      </trkpt>
      <trkpt lat="46.53892" lon="5.33562">
        <ele>214.2</ele>
        <time>2022-04-06T12:53:33Z</time>
      </trkpt>
      <trkpt lat="46.53909" lon="5.33562">
        <ele>214</ele>
        <time>2022-04-06T12:53:35Z</time>
      </trkpt>
      <trkpt lat="46.53936" lon="5.33564">
        <ele>213.4</ele>
        <time>2022-04-06T12:53:38Z</time>
      </trkpt>
      <trkpt lat="46.53954" lon="5.33566">
        <ele>212.8</ele>
        <time>2022-04-06T12:53:40Z</time>
      </trkpt>
      <trkpt lat="46.53974" lon="5.33568">
        <ele>211.2</ele>
        <time>2022-04-06T12:53:42Z</time>
      </trkpt>
      <trkpt lat="46.53984" lon="5.33568">
        <ele>210.4</ele>
        <time>2022-04-06T12:53:43Z</time>
      </trkpt>
      <trkpt lat="46.53995" lon="5.33569">
        <ele>210.2</ele>
        <time>2022-04-06T12:53:44Z</time>
      </trkpt>
      <trkpt lat="46.54016" lon="5.33574">
        <ele>209</ele>
        <time>2022-04-06T12:53:46Z</time>
      </trkpt>
      <trkpt lat="46.54037" lon="5.33585">
        <ele>207.6</ele>
        <time>2022-04-06T12:53:48Z</time>
      </trkpt>
      <trkpt lat="46.54068" lon="5.33605">
        <ele>206.2</ele>
        <time>2022-04-06T12:53:51Z</time>
      </trkpt>
      <trkpt lat="46.54078" lon="5.33611">
        <ele>205</ele>
        <time>2022-04-06T12:53:52Z</time>
      </trkpt>
      <trkpt lat="46.54097" lon="5.33623">
        <ele>203.8</ele>
        <time>2022-04-06T12:53:54Z</time>
      </trkpt>
      <trkpt lat="46.54106" lon="5.33628">
        <ele>203.6</ele>
        <time>2022-04-06T12:53:55Z</time>
      </trkpt>
      <trkpt lat="46.54124" lon="5.33637">
        <ele>202.6</ele>
        <time>2022-04-06T12:53:57Z</time>
      </trkpt>
      <trkpt lat="46.54148" lon="5.33647">
        <ele>202.4</ele>
        <time>2022-04-06T12:54:00Z</time>
      </trkpt>
      <trkpt lat="46.54185" lon="5.33653">
        <ele>203.2</ele>
        <time>2022-04-06T12:54:05Z</time>
      </trkpt>
      <trkpt lat="46.54198" lon="5.33653">
        <ele>203.8</ele>
        <time>2022-04-06T12:54:07Z</time>
      </trkpt>
      <trkpt lat="46.54217" lon="5.33652">
        <ele>204.8</ele>
        <time>2022-04-06T12:54:10Z</time>
      </trkpt>
      <trkpt lat="46.54224" lon="5.33652">
        <ele>205</ele>
        <time>2022-04-06T12:54:11Z</time>
      </trkpt>
      <trkpt lat="46.54255" lon="5.33654">
        <ele>206</ele>
        <time>2022-04-06T12:54:16Z</time>
      </trkpt>
      <trkpt lat="46.54292" lon="5.33657">
        <ele>206.8</ele>
        <time>2022-04-06T12:54:21Z</time>
      </trkpt>
      <trkpt lat="46.54345" lon="5.33663">
        <ele>206.2</ele>
        <time>2022-04-06T12:54:27Z</time>
      </trkpt>
      <trkpt lat="46.54395" lon="5.33681">
        <ele>204.6</ele>
        <time>2022-04-06T12:54:33Z</time>
      </trkpt>
      <trkpt lat="46.54435" lon="5.33698">
        <ele>204.4</ele>
        <time>2022-04-06T12:54:39Z</time>
      </trkpt>
      <trkpt lat="46.54459" lon="5.33708">
        <ele>205.4</ele>
        <time>2022-04-06T12:54:44Z</time>
      </trkpt>
      <trkpt lat="46.54464" lon="5.3371">
        <ele>205.8</ele>
        <time>2022-04-06T12:54:45Z</time>
      </trkpt>
      <trkpt lat="46.54482" lon="5.33716">
        <ele>206.8</ele>
        <time>2022-04-06T12:54:49Z</time>
      </trkpt>
      <trkpt lat="46.54494" lon="5.33722">
        <ele>207.8</ele>
        <time>2022-04-06T12:54:52Z</time>
      </trkpt>
      <trkpt lat="46.54499" lon="5.33724">
        <ele>208.4</ele>
        <time>2022-04-06T12:54:53Z</time>
      </trkpt>
      <trkpt lat="46.54507" lon="5.33728">
        <ele>208.8</ele>
        <time>2022-04-06T12:54:55Z</time>
      </trkpt>
      <trkpt lat="46.54514" lon="5.33733">
        <ele>209.4</ele>
        <time>2022-04-06T12:54:57Z</time>
      </trkpt>
      <trkpt lat="46.54522" lon="5.33738">
        <ele>210</ele>
        <time>2022-04-06T12:54:59Z</time>
      </trkpt>
      <trkpt lat="46.54529" lon="5.33743">
        <ele>210.8</ele>
        <time>2022-04-06T12:55:01Z</time>
      </trkpt>
      <trkpt lat="46.54547" lon="5.33753">
        <ele>212</ele>
        <time>2022-04-06T12:55:06Z</time>
      </trkpt>
      <trkpt lat="46.54562" lon="5.3376">
        <ele>213</ele>
        <time>2022-04-06T12:55:10Z</time>
      </trkpt>
      <trkpt lat="46.5457" lon="5.33763">
        <ele>213.8</ele>
        <time>2022-04-06T12:55:12Z</time>
      </trkpt>
      <trkpt lat="46.54577" lon="5.33767">
        <ele>214.2</ele>
        <time>2022-04-06T12:55:14Z</time>
      </trkpt>
      <trkpt lat="46.54597" lon="5.33773">
        <ele>215.6</ele>
        <time>2022-04-06T12:55:19Z</time>
      </trkpt>
      <trkpt lat="46.54614" lon="5.33778">
        <ele>216.6</ele>
        <time>2022-04-06T12:55:23Z</time>
      </trkpt>
      <trkpt lat="46.54618" lon="5.33778">
        <ele>216.6</ele>
        <time>2022-04-06T12:55:24Z</time>
      </trkpt>
      <trkpt lat="46.54626" lon="5.33781">
        <ele>217</ele>
        <time>2022-04-06T12:55:26Z</time>
      </trkpt>
      <trkpt lat="46.54654" lon="5.33788">
        <ele>217.4</ele>
        <time>2022-04-06T12:55:31Z</time>
      </trkpt>
      <trkpt lat="46.54688" lon="5.3379">
        <ele>217</ele>
        <time>2022-04-06T12:55:36Z</time>
      </trkpt>
      <trkpt lat="46.54726" lon="5.33783">
        <ele>215.8</ele>
        <time>2022-04-06T12:55:41Z</time>
      </trkpt>
      <trkpt lat="46.54734" lon="5.33781">
        <ele>215.4</ele>
        <time>2022-04-06T12:55:42Z</time>
      </trkpt>
      <trkpt lat="46.54775" lon="5.33779">
        <ele>214.4</ele>
        <time>2022-04-06T12:55:47Z</time>
      </trkpt>
      <trkpt lat="46.54784" lon="5.33779">
        <ele>214.2</ele>
        <time>2022-04-06T12:55:48Z</time>
      </trkpt>
      <trkpt lat="46.54826" lon="5.33782">
        <ele>212.8</ele>
        <time>2022-04-06T12:55:53Z</time>
      </trkpt>
      <trkpt lat="46.54835" lon="5.33782">
        <ele>212.6</ele>
        <time>2022-04-06T12:55:54Z</time>
      </trkpt>
      <trkpt lat="46.54843" lon="5.33782">
        <ele>212.4</ele>
        <time>2022-04-06T12:55:55Z</time>
      </trkpt>
      <trkpt lat="46.54868" lon="5.33778">
        <ele>211.2</ele>
        <time>2022-04-06T12:55:58Z</time>
      </trkpt>
      <trkpt lat="46.54894" lon="5.33773">
        <ele>210.8</ele>
        <time>2022-04-06T12:56:01Z</time>
      </trkpt>
      <trkpt lat="46.54912" lon="5.33772">
        <ele>210.2</ele>
        <time>2022-04-06T12:56:03Z</time>
      </trkpt>
      <trkpt lat="46.54938" lon="5.33776">
        <ele>210</ele>
        <time>2022-04-06T12:56:06Z</time>
      </trkpt>
      <trkpt lat="46.54972" lon="5.33783">
        <ele>209.2</ele>
        <time>2022-04-06T12:56:10Z</time>
      </trkpt>
      <trkpt lat="46.55011" lon="5.33794">
        <ele>209</ele>
        <time>2022-04-06T12:56:15Z</time>
      </trkpt>
      <trkpt lat="46.55054" lon="5.33816">
        <ele>209.4</ele>
        <time>2022-04-06T12:56:21Z</time>
      </trkpt>
      <trkpt lat="46.55088" lon="5.33847">
        <ele>210</ele>
        <time>2022-04-06T12:56:27Z</time>
      </trkpt>
      <trkpt lat="46.55098" lon="5.33859">
        <ele>210.2</ele>
        <time>2022-04-06T12:56:29Z</time>
      </trkpt>
      <trkpt lat="46.55111" lon="5.33877">
        <ele>210.8</ele>
        <time>2022-04-06T12:56:32Z</time>
      </trkpt>
      <trkpt lat="46.55122" lon="5.33894">
        <ele>211.4</ele>
        <time>2022-04-06T12:56:35Z</time>
      </trkpt>
      <trkpt lat="46.55137" lon="5.33918">
        <ele>212.2</ele>
        <time>2022-04-06T12:56:39Z</time>
      </trkpt>
      <trkpt lat="46.55145" lon="5.3393">
        <ele>212.6</ele>
        <time>2022-04-06T12:56:41Z</time>
      </trkpt>
      <trkpt lat="46.55161" lon="5.33956">
        <ele>213.6</ele>
        <time>2022-04-06T12:56:46Z</time>
      </trkpt>
      <trkpt lat="46.55164" lon="5.33961">
        <ele>213.6</ele>
        <time>2022-04-06T12:56:47Z</time>
      </trkpt>
      <trkpt lat="46.55169" lon="5.33972">
        <ele>214.4</ele>
        <time>2022-04-06T12:56:49Z</time>
      </trkpt>
      <trkpt lat="46.55173" lon="5.33983">
        <ele>215</ele>
        <time>2022-04-06T12:56:51Z</time>
      </trkpt>
      <trkpt lat="46.55175" lon="5.33989">
        <ele>215.2</ele>
        <time>2022-04-06T12:56:52Z</time>
      </trkpt>
      <trkpt lat="46.55181" lon="5.33999">
        <ele>215.8</ele>
        <time>2022-04-06T12:56:54Z</time>
      </trkpt>
      <trkpt lat="46.55184" lon="5.34001">
        <ele>216.2</ele>
        <time>2022-04-06T12:56:55Z</time>
      </trkpt>
      <trkpt lat="46.55188" lon="5.34002">
        <ele>216.4</ele>
        <time>2022-04-06T12:56:56Z</time>
      </trkpt>
      <trkpt lat="46.55196" lon="5.33996">
        <ele>216.8</ele>
        <time>2022-04-06T12:56:58Z</time>
      </trkpt>
      <trkpt lat="46.552" lon="5.33992">
        <ele>217</ele>
        <time>2022-04-06T12:56:59Z</time>
      </trkpt>
      <trkpt lat="46.55205" lon="5.33987">
        <ele>217.4</ele>
        <time>2022-04-06T12:57:00Z</time>
      </trkpt>
      <trkpt lat="46.55221" lon="5.33968">
        <ele>218.2</ele>
        <time>2022-04-06T12:57:04Z</time>
      </trkpt>
      <trkpt lat="46.55224" lon="5.33963">
        <ele>218.6</ele>
        <time>2022-04-06T12:57:05Z</time>
      </trkpt>
      <trkpt lat="46.55254" lon="5.33919">
        <ele>219.4</ele>
        <time>2022-04-06T12:57:13Z</time>
      </trkpt>
      <trkpt lat="46.55289" lon="5.33855">
        <ele>219.6</ele>
        <time>2022-04-06T12:57:23Z</time>
      </trkpt>
      <trkpt lat="46.55323" lon="5.33814">
        <ele>219.6</ele>
        <time>2022-04-06T12:57:30Z</time>
      </trkpt>
      <trkpt lat="46.55371" lon="5.33766">
        <ele>219</ele>
        <time>2022-04-06T12:57:39Z</time>
      </trkpt>
      <trkpt lat="46.55406" lon="5.3374">
        <ele>219</ele>
        <time>2022-04-06T12:57:45Z</time>
      </trkpt>
      <trkpt lat="46.55416" lon="5.33728">
        <ele>219</ele>
        <time>2022-04-06T12:57:47Z</time>
      </trkpt>
      <trkpt lat="46.55451" lon="5.33682">
        <ele>218.6</ele>
        <time>2022-04-06T12:57:54Z</time>
      </trkpt>
      <trkpt lat="46.55461" lon="5.33668">
        <ele>218.6</ele>
        <time>2022-04-06T12:57:56Z</time>
      </trkpt>
      <trkpt lat="46.55493" lon="5.33624">
        <ele>218</ele>
        <time>2022-04-06T12:58:03Z</time>
      </trkpt>
      <trkpt lat="46.55535" lon="5.33567">
        <ele>217.8</ele>
        <time>2022-04-06T12:58:11Z</time>
      </trkpt>
      <trkpt lat="46.55546" lon="5.33552">
        <ele>217.4</ele>
        <time>2022-04-06T12:58:13Z</time>
      </trkpt>
      <trkpt lat="46.55568" lon="5.3352">
        <ele>216.4</ele>
        <time>2022-04-06T12:58:17Z</time>
      </trkpt>
      <trkpt lat="46.55584" lon="5.33493">
        <ele>215.2</ele>
        <time>2022-04-06T12:58:20Z</time>
      </trkpt>
      <trkpt lat="46.5559" lon="5.3347">
        <ele>214.6</ele>
        <time>2022-04-06T12:58:22Z</time>
      </trkpt>
      <trkpt lat="46.55594" lon="5.33446">
        <ele>214</ele>
        <time>2022-04-06T12:58:24Z</time>
      </trkpt>
      <trkpt lat="46.55596" lon="5.33408">
        <ele>212.4</ele>
        <time>2022-04-06T12:58:27Z</time>
      </trkpt>
      <trkpt lat="46.55602" lon="5.33358">
        <ele>211.4</ele>
        <time>2022-04-06T12:58:31Z</time>
      </trkpt>
      <trkpt lat="46.55607" lon="5.33336">
        <ele>211.2</ele>
        <time>2022-04-06T12:58:33Z</time>
      </trkpt>
      <trkpt lat="46.5562" lon="5.33292">
        <ele>210.4</ele>
        <time>2022-04-06T12:58:37Z</time>
      </trkpt>
      <trkpt lat="46.55632" lon="5.33251">
        <ele>209.8</ele>
        <time>2022-04-06T12:58:41Z</time>
      </trkpt>
      <trkpt lat="46.55653" lon="5.33182">
        <ele>209.6</ele>
        <time>2022-04-06T12:58:48Z</time>
      </trkpt>
      <trkpt lat="46.5566" lon="5.33152">
        <ele>209.6</ele>
        <time>2022-04-06T12:58:51Z</time>
      </trkpt>
      <trkpt lat="46.55671" lon="5.33102">
        <ele>209.4</ele>
        <time>2022-04-06T12:58:56Z</time>
      </trkpt>
      <trkpt lat="46.55687" lon="5.33025">
        <ele>209</ele>
        <time>2022-04-06T12:59:04Z</time>
      </trkpt>
      <trkpt lat="46.55697" lon="5.3297">
        <ele>209</ele>
        <time>2022-04-06T12:59:10Z</time>
      </trkpt>
      <trkpt lat="46.55709" lon="5.32903">
        <ele>209.6</ele>
        <time>2022-04-06T12:59:18Z</time>
      </trkpt>
      <trkpt lat="46.55719" lon="5.32844">
        <ele>209.8</ele>
        <time>2022-04-06T12:59:25Z</time>
      </trkpt>
      <trkpt lat="46.55735" lon="5.32769">
        <ele>209.8</ele>
        <time>2022-04-06T12:59:34Z</time>
      </trkpt>
      <trkpt lat="46.55753" lon="5.32701">
        <ele>209.8</ele>
        <time>2022-04-06T12:59:42Z</time>
      </trkpt>
      <trkpt lat="46.5576" lon="5.32689">
        <ele>209.8</ele>
        <time>2022-04-06T12:59:44Z</time>
      </trkpt>
      <trkpt lat="46.55772" lon="5.32676">
        <ele>209.6</ele>
        <time>2022-04-06T12:59:46Z</time>
      </trkpt>
      <trkpt lat="46.5579" lon="5.32666">
        <ele>209.6</ele>
        <time>2022-04-06T12:59:49Z</time>
      </trkpt>
      <trkpt lat="46.55804" lon="5.32663">
        <ele>209.4</ele>
        <time>2022-04-06T12:59:51Z</time>
      </trkpt>
      <trkpt lat="46.55858" lon="5.32656">
        <ele>209.4</ele>
        <time>2022-04-06T12:59:59Z</time>
      </trkpt>
      <trkpt lat="46.55865" lon="5.32654">
        <ele>209.2</ele>
        <time>2022-04-06T13:00:00Z</time>
      </trkpt>
      <trkpt lat="46.55896" lon="5.32633">
        <ele>209.2</ele>
        <time>2022-04-06T13:00:05Z</time>
      </trkpt>
      <trkpt lat="46.55902" lon="5.32627">
        <ele>209.2</ele>
        <time>2022-04-06T13:00:06Z</time>
      </trkpt>
      <trkpt lat="46.55911" lon="5.32612">
        <ele>209.2</ele>
        <time>2022-04-06T13:00:08Z</time>
      </trkpt>
      <trkpt lat="46.55915" lon="5.32604">
        <ele>209.2</ele>
        <time>2022-04-06T13:00:09Z</time>
      </trkpt>
      <trkpt lat="46.55945" lon="5.32537">
        <ele>209.6</ele>
        <time>2022-04-06T13:00:17Z</time>
      </trkpt>
      <trkpt lat="46.55975" lon="5.32466">
        <ele>210.2</ele>
        <time>2022-04-06T13:00:26Z</time>
      </trkpt>
      <trkpt lat="46.55979" lon="5.32458">
        <ele>210.2</ele>
        <time>2022-04-06T13:00:27Z</time>
      </trkpt>
      <trkpt lat="46.56007" lon="5.32391">
        <ele>210.6</ele>
        <time>2022-04-06T13:00:36Z</time>
      </trkpt>
      <trkpt lat="46.56023" lon="5.32364">
        <ele>210.8</ele>
        <time>2022-04-06T13:00:40Z</time>
      </trkpt>
      <trkpt lat="46.56035" lon="5.32346">
        <ele>211</ele>
        <time>2022-04-06T13:00:43Z</time>
      </trkpt>
      <trkpt lat="46.56064" lon="5.32309">
        <ele>211.8</ele>
        <time>2022-04-06T13:00:50Z</time>
      </trkpt>
      <trkpt lat="46.56072" lon="5.32298">
        <ele>212</ele>
        <time>2022-04-06T13:00:52Z</time>
      </trkpt>
      <trkpt lat="46.56094" lon="5.32274">
        <ele>212.8</ele>
        <time>2022-04-06T13:00:57Z</time>
      </trkpt>
      <trkpt lat="46.56116" lon="5.32248">
        <ele>213.6</ele>
        <time>2022-04-06T13:01:02Z</time>
      </trkpt>
      <trkpt lat="46.5612" lon="5.32243">
        <ele>214</ele>
        <time>2022-04-06T13:01:03Z</time>
      </trkpt>
      <trkpt lat="46.56141" lon="5.32219">
        <ele>215</ele>
        <time>2022-04-06T13:01:08Z</time>
      </trkpt>
      <trkpt lat="46.56149" lon="5.32209">
        <ele>215.6</ele>
        <time>2022-04-06T13:01:10Z</time>
      </trkpt>
      <trkpt lat="46.56168" lon="5.32184">
        <ele>216</ele>
        <time>2022-04-06T13:01:15Z</time>
      </trkpt>
      <trkpt lat="46.56188" lon="5.32159">
        <ele>216.6</ele>
        <time>2022-04-06T13:01:20Z</time>
      </trkpt>
      <trkpt lat="46.56211" lon="5.32128">
        <ele>217</ele>
        <time>2022-04-06T13:01:26Z</time>
      </trkpt>
      <trkpt lat="46.56222" lon="5.32114">
        <ele>217.4</ele>
        <time>2022-04-06T13:01:29Z</time>
      </trkpt>
      <trkpt lat="46.56265" lon="5.32063">
        <ele>218</ele>
        <time>2022-04-06T13:01:39Z</time>
      </trkpt>
      <trkpt lat="46.5627" lon="5.32058">
        <ele>218</ele>
        <time>2022-04-06T13:01:40Z</time>
      </trkpt>
      <trkpt lat="46.5631" lon="5.32028">
        <ele>217.6</ele>
        <time>2022-04-06T13:01:47Z</time>
      </trkpt>
      <trkpt lat="46.56358" lon="5.31992">
        <ele>217.2</ele>
        <time>2022-04-06T13:01:55Z</time>
      </trkpt>
      <trkpt lat="46.56403" lon="5.31967">
        <ele>217</ele>
        <time>2022-04-06T13:02:02Z</time>
      </trkpt>
      <trkpt lat="46.56446" lon="5.3196">
        <ele>217.2</ele>
        <time>2022-04-06T13:02:09Z</time>
      </trkpt>
      <trkpt lat="46.56503" lon="5.31958">
        <ele>217.4</ele>
        <time>2022-04-06T13:02:18Z</time>
      </trkpt>
      <trkpt lat="46.56516" lon="5.31957">
        <ele>217.4</ele>
        <time>2022-04-06T13:02:20Z</time>
      </trkpt>
      <trkpt lat="46.56559" lon="5.3195">
        <ele>217.2</ele>
        <time>2022-04-06T13:02:27Z</time>
      </trkpt>
      <trkpt lat="46.56585" lon="5.31939">
        <ele>217</ele>
        <time>2022-04-06T13:02:31Z</time>
      </trkpt>
      <trkpt lat="46.56591" lon="5.31935">
        <ele>217</ele>
        <time>2022-04-06T13:02:32Z</time>
      </trkpt>
      <trkpt lat="46.56633" lon="5.31896">
        <ele>216.8</ele>
        <time>2022-04-06T13:02:39Z</time>
      </trkpt>
      <trkpt lat="46.56668" lon="5.31862">
        <ele>216.8</ele>
        <time>2022-04-06T13:02:45Z</time>
      </trkpt>
      <trkpt lat="46.56712" lon="5.3182">
        <ele>216.6</ele>
        <time>2022-04-06T13:02:53Z</time>
      </trkpt>
      <trkpt lat="46.56747" lon="5.31785">
        <ele>217.4</ele>
        <time>2022-04-06T13:03:00Z</time>
      </trkpt>
      <trkpt lat="46.56795" lon="5.3174">
        <ele>217.8</ele>
        <time>2022-04-06T13:03:09Z</time>
      </trkpt>
      <trkpt lat="46.56833" lon="5.31702">
        <ele>217.6</ele>
        <time>2022-04-06T13:03:16Z</time>
      </trkpt>
      <trkpt lat="46.56845" lon="5.31693">
        <ele>217.6</ele>
        <time>2022-04-06T13:03:18Z</time>
      </trkpt>
      <trkpt lat="46.56865" lon="5.31685">
        <ele>217.4</ele>
        <time>2022-04-06T13:03:21Z</time>
      </trkpt>
      <trkpt lat="46.56908" lon="5.31685">
        <ele>217.2</ele>
        <time>2022-04-06T13:03:27Z</time>
      </trkpt>
      <trkpt lat="46.56967" lon="5.31682">
        <ele>216.8</ele>
        <time>2022-04-06T13:03:35Z</time>
      </trkpt>
      <trkpt lat="46.57025" lon="5.31672">
        <ele>216.6</ele>
        <time>2022-04-06T13:03:43Z</time>
      </trkpt>
      <trkpt lat="46.57032" lon="5.31672">
        <ele>216.6</ele>
        <time>2022-04-06T13:03:44Z</time>
      </trkpt>
      <trkpt lat="46.57089" lon="5.31664">
        <ele>216.8</ele>
        <time>2022-04-06T13:03:52Z</time>
      </trkpt>
      <trkpt lat="46.57145" lon="5.3166">
        <ele>217</ele>
        <time>2022-04-06T13:04:00Z</time>
      </trkpt>
      <trkpt lat="46.57186" lon="5.31659">
        <ele>217.2</ele>
        <time>2022-04-06T13:04:06Z</time>
      </trkpt>
      <trkpt lat="46.57245" lon="5.31655">
        <ele>217.4</ele>
        <time>2022-04-06T13:04:15Z</time>
      </trkpt>
      <trkpt lat="46.57255" lon="5.31654">
        <ele>217.4</ele>
        <time>2022-04-06T13:04:16Z</time>
      </trkpt>
      <trkpt lat="46.57311" lon="5.31645">
        <ele>217.2</ele>
        <time>2022-04-06T13:04:24Z</time>
      </trkpt>
      <trkpt lat="46.57363" lon="5.3163">
        <ele>217.2</ele>
        <time>2022-04-06T13:04:32Z</time>
      </trkpt>
      <trkpt lat="46.57406" lon="5.31619">
        <ele>217.2</ele>
        <time>2022-04-06T13:04:39Z</time>
      </trkpt>
      <trkpt lat="46.57449" lon="5.31617">
        <ele>217</ele>
        <time>2022-04-06T13:04:45Z</time>
      </trkpt>
      <trkpt lat="46.57506" lon="5.31612">
        <ele>217.4</ele>
        <time>2022-04-06T13:04:53Z</time>
      </trkpt>
      <trkpt lat="46.57513" lon="5.31611">
        <ele>217.4</ele>
        <time>2022-04-06T13:04:54Z</time>
      </trkpt>
      <trkpt lat="46.57569" lon="5.31602">
        <ele>217.6</ele>
        <time>2022-04-06T13:05:02Z</time>
      </trkpt>
      <trkpt lat="46.57617" lon="5.31596">
        <ele>217.6</ele>
        <time>2022-04-06T13:05:09Z</time>
      </trkpt>
      <trkpt lat="46.57673" lon="5.31587">
        <ele>217.6</ele>
        <time>2022-04-06T13:05:17Z</time>
      </trkpt>
      <trkpt lat="46.57688" lon="5.31584">
        <ele>217.4</ele>
        <time>2022-04-06T13:05:19Z</time>
      </trkpt>
      <trkpt lat="46.5773" lon="5.31564">
        <ele>217.4</ele>
        <time>2022-04-06T13:05:25Z</time>
      </trkpt>
      <trkpt lat="46.57783" lon="5.31523">
        <ele>217</ele>
        <time>2022-04-06T13:05:33Z</time>
      </trkpt>
      <trkpt lat="46.5779" lon="5.31517">
        <ele>216.8</ele>
        <time>2022-04-06T13:05:34Z</time>
      </trkpt>
      <trkpt lat="46.57819" lon="5.31498">
        <ele>216.2</ele>
        <time>2022-04-06T13:05:38Z</time>
      </trkpt>
      <trkpt lat="46.57842" lon="5.31488">
        <ele>215.8</ele>
        <time>2022-04-06T13:05:41Z</time>
      </trkpt>
      <trkpt lat="46.57898" lon="5.3147">
        <ele>215</ele>
        <time>2022-04-06T13:05:48Z</time>
      </trkpt>
      <trkpt lat="46.57906" lon="5.31468">
        <ele>215</ele>
        <time>2022-04-06T13:05:49Z</time>
      </trkpt>
      <trkpt lat="46.57961" lon="5.31451">
        <ele>214.4</ele>
        <time>2022-04-06T13:05:56Z</time>
      </trkpt>
      <trkpt lat="46.58001" lon="5.31439">
        <ele>214</ele>
        <time>2022-04-06T13:06:01Z</time>
      </trkpt>
      <trkpt lat="46.58054" lon="5.31429">
        <ele>213.4</ele>
        <time>2022-04-06T13:06:08Z</time>
      </trkpt>
      <trkpt lat="46.58062" lon="5.3143">
        <ele>213.2</ele>
        <time>2022-04-06T13:06:09Z</time>
      </trkpt>
      <trkpt lat="46.58114" lon="5.31434">
        <ele>213.2</ele>
        <time>2022-04-06T13:06:16Z</time>
      </trkpt>
      <trkpt lat="46.58129" lon="5.31433">
        <ele>213.4</ele>
        <time>2022-04-06T13:06:18Z</time>
      </trkpt>
      <trkpt lat="46.58142" lon="5.31426">
        <ele>213.4</ele>
        <time>2022-04-06T13:06:20Z</time>
      </trkpt>
      <trkpt lat="46.58183" lon="5.31395">
        <ele>213.2</ele>
        <time>2022-04-06T13:06:26Z</time>
      </trkpt>
      <trkpt lat="46.58219" lon="5.31367">
        <ele>212.8</ele>
        <time>2022-04-06T13:06:31Z</time>
      </trkpt>
      <trkpt lat="46.58247" lon="5.31343">
        <ele>212.4</ele>
        <time>2022-04-06T13:06:35Z</time>
      </trkpt>
      <trkpt lat="46.58277" lon="5.3132">
        <ele>211.8</ele>
        <time>2022-04-06T13:06:39Z</time>
      </trkpt>
      <trkpt lat="46.5831" lon="5.31294">
        <ele>211.2</ele>
        <time>2022-04-06T13:06:44Z</time>
      </trkpt>
      <trkpt lat="46.58342" lon="5.31272">
        <ele>210.8</ele>
        <time>2022-04-06T13:06:48Z</time>
      </trkpt>
      <trkpt lat="46.58357" lon="5.31264">
        <ele>210.6</ele>
        <time>2022-04-06T13:06:50Z</time>
      </trkpt>
      <trkpt lat="46.58415" lon="5.31238">
        <ele>210.2</ele>
        <time>2022-04-06T13:06:58Z</time>
      </trkpt>
      <trkpt lat="46.58422" lon="5.31234">
        <ele>210.2</ele>
        <time>2022-04-06T13:06:59Z</time>
      </trkpt>
      <trkpt lat="46.58464" lon="5.31217">
        <ele>210.2</ele>
        <time>2022-04-06T13:07:05Z</time>
      </trkpt>
      <trkpt lat="46.58518" lon="5.31195">
        <ele>210</ele>
        <time>2022-04-06T13:07:13Z</time>
      </trkpt>
      <trkpt lat="46.58562" lon="5.31165">
        <ele>210</ele>
        <time>2022-04-06T13:07:20Z</time>
      </trkpt>
      <trkpt lat="46.58586" lon="5.31142">
        <ele>209.8</ele>
        <time>2022-04-06T13:07:24Z</time>
      </trkpt>
      <trkpt lat="46.58605" lon="5.31122">
        <ele>209.4</ele>
        <time>2022-04-06T13:07:27Z</time>
      </trkpt>
      <trkpt lat="46.58642" lon="5.31083">
        <ele>208.8</ele>
        <time>2022-04-06T13:07:33Z</time>
      </trkpt>
      <trkpt lat="46.58661" lon="5.31066">
        <ele>208.6</ele>
        <time>2022-04-06T13:07:36Z</time>
      </trkpt>
      <trkpt lat="46.58707" lon="5.31018">
        <ele>208.6</ele>
        <time>2022-04-06T13:07:44Z</time>
      </trkpt>
      <trkpt lat="46.58749" lon="5.30973">
        <ele>209</ele>
        <time>2022-04-06T13:07:52Z</time>
      </trkpt>
      <trkpt lat="46.58793" lon="5.30926">
        <ele>210</ele>
        <time>2022-04-06T13:08:01Z</time>
      </trkpt>
      <trkpt lat="46.58819" lon="5.30908">
        <ele>211</ele>
        <time>2022-04-06T13:08:06Z</time>
      </trkpt>
      <trkpt lat="46.58851" lon="5.30901">
        <ele>211.8</ele>
        <time>2022-04-06T13:08:12Z</time>
      </trkpt>
      <trkpt lat="46.58871" lon="5.30898">
        <ele>212.4</ele>
        <time>2022-04-06T13:08:15Z</time>
      </trkpt>
      <trkpt lat="46.58909" lon="5.30893">
        <ele>212.4</ele>
        <time>2022-04-06T13:08:21Z</time>
      </trkpt>
      <trkpt lat="46.58957" lon="5.30887">
        <ele>212</ele>
        <time>2022-04-06T13:08:28Z</time>
      </trkpt>
      <trkpt lat="46.59003" lon="5.30881">
        <ele>211.2</ele>
        <time>2022-04-06T13:08:34Z</time>
      </trkpt>
      <trkpt lat="46.59011" lon="5.3088">
        <ele>211</ele>
        <time>2022-04-06T13:08:35Z</time>
      </trkpt>
      <trkpt lat="46.59038" lon="5.30876">
        <ele>210</ele>
        <time>2022-04-06T13:08:38Z</time>
      </trkpt>
      <trkpt lat="46.59067" lon="5.30873">
        <ele>209.2</ele>
        <time>2022-04-06T13:08:41Z</time>
      </trkpt>
      <trkpt lat="46.59076" lon="5.30872">
        <ele>208.8</ele>
        <time>2022-04-06T13:08:42Z</time>
      </trkpt>
      <trkpt lat="46.59106" lon="5.30868">
        <ele>207.6</ele>
        <time>2022-04-06T13:08:45Z</time>
      </trkpt>
      <trkpt lat="46.59137" lon="5.30864">
        <ele>206.6</ele>
        <time>2022-04-06T13:08:48Z</time>
      </trkpt>
      <trkpt lat="46.59157" lon="5.30861">
        <ele>205.2</ele>
        <time>2022-04-06T13:08:50Z</time>
      </trkpt>
      <trkpt lat="46.59198" lon="5.30856">
        <ele>204</ele>
        <time>2022-04-06T13:08:54Z</time>
      </trkpt>
      <trkpt lat="46.59228" lon="5.30853">
        <ele>203.2</ele>
        <time>2022-04-06T13:08:57Z</time>
      </trkpt>
      <trkpt lat="46.59238" lon="5.30852">
        <ele>202.8</ele>
        <time>2022-04-06T13:08:58Z</time>
      </trkpt>
      <trkpt lat="46.59268" lon="5.30848">
        <ele>201.6</ele>
        <time>2022-04-06T13:09:01Z</time>
      </trkpt>
      <trkpt lat="46.59287" lon="5.30845">
        <ele>200.4</ele>
        <time>2022-04-06T13:09:03Z</time>
      </trkpt>
      <trkpt lat="46.59317" lon="5.30841">
        <ele>199.2</ele>
        <time>2022-04-06T13:09:06Z</time>
      </trkpt>
      <trkpt lat="46.59327" lon="5.30839">
        <ele>198.6</ele>
        <time>2022-04-06T13:09:07Z</time>
      </trkpt>
      <trkpt lat="46.59347" lon="5.30836">
        <ele>198</ele>
        <time>2022-04-06T13:09:09Z</time>
      </trkpt>
      <trkpt lat="46.59377" lon="5.30833">
        <ele>197</ele>
        <time>2022-04-06T13:09:12Z</time>
      </trkpt>
      <trkpt lat="46.59408" lon="5.30829">
        <ele>196</ele>
        <time>2022-04-06T13:09:15Z</time>
      </trkpt>
      <trkpt lat="46.59418" lon="5.30827">
        <ele>195.8</ele>
        <time>2022-04-06T13:09:16Z</time>
      </trkpt>
      <trkpt lat="46.59458" lon="5.30822">
        <ele>194.8</ele>
        <time>2022-04-06T13:09:20Z</time>
      </trkpt>
      <trkpt lat="46.59497" lon="5.30817">
        <ele>193.8</ele>
        <time>2022-04-06T13:09:24Z</time>
      </trkpt>
      <trkpt lat="46.5955" lon="5.30809">
        <ele>193.2</ele>
        <time>2022-04-06T13:09:30Z</time>
      </trkpt>
      <trkpt lat="46.59567" lon="5.30807">
        <ele>193</ele>
        <time>2022-04-06T13:09:32Z</time>
      </trkpt>
      <trkpt lat="46.59627" lon="5.308">
        <ele>192.8</ele>
        <time>2022-04-06T13:09:39Z</time>
      </trkpt>
      <trkpt lat="46.59644" lon="5.30798">
        <ele>192.8</ele>
        <time>2022-04-06T13:09:41Z</time>
      </trkpt>
      <trkpt lat="46.59652" lon="5.30797">
        <ele>192.8</ele>
        <time>2022-04-06T13:09:42Z</time>
      </trkpt>
      <trkpt lat="46.59689" lon="5.30792">
        <ele>192.8</ele>
        <time>2022-04-06T13:09:47Z</time>
      </trkpt>
      <trkpt lat="46.59727" lon="5.30792">
        <ele>193.8</ele>
        <time>2022-04-06T13:09:53Z</time>
      </trkpt>
      <trkpt lat="46.59744" lon="5.30792">
        <ele>195.2</ele>
        <time>2022-04-06T13:09:56Z</time>
      </trkpt>
      <trkpt lat="46.59765" lon="5.30791">
        <ele>196.2</ele>
        <time>2022-04-06T13:10:00Z</time>
      </trkpt>
      <trkpt lat="46.59786" lon="5.30793">
        <ele>197.4</ele>
        <time>2022-04-06T13:10:04Z</time>
      </trkpt>
      <trkpt lat="46.59796" lon="5.30797">
        <ele>198.2</ele>
        <time>2022-04-06T13:10:06Z</time>
      </trkpt>
      <trkpt lat="46.59806" lon="5.308">
        <ele>198.6</ele>
        <time>2022-04-06T13:10:08Z</time>
      </trkpt>
      <trkpt lat="46.59815" lon="5.30805">
        <ele>199</ele>
        <time>2022-04-06T13:10:10Z</time>
      </trkpt>
      <trkpt lat="46.59823" lon="5.30809">
        <ele>199.2</ele>
        <time>2022-04-06T13:10:12Z</time>
      </trkpt>
      <trkpt lat="46.59827" lon="5.3081">
        <ele>199.8</ele>
        <time>2022-04-06T13:10:14Z</time>
      </trkpt>
      <trkpt lat="46.59842" lon="5.30815">
        <ele>200.4</ele>
        <time>2022-04-06T13:10:18Z</time>
      </trkpt>
      <trkpt lat="46.59863" lon="5.30821">
        <ele>200.8</ele>
        <time>2022-04-06T13:10:23Z</time>
      </trkpt>
      <trkpt lat="46.59873" lon="5.30822">
        <ele>201.2</ele>
        <time>2022-04-06T13:10:27Z</time>
      </trkpt>
      <trkpt lat="46.59872" lon="5.30818">
        <ele>201.2</ele>
        <time>2022-04-06T13:10:29Z</time>
      </trkpt>
      <trkpt lat="46.59857" lon="5.30814">
        <ele>201.4</ele>
        <time>2022-04-06T13:10:33Z</time>
      </trkpt>
      <trkpt lat="46.59842" lon="5.3081">
        <ele>201.4</ele>
        <time>2022-04-06T13:10:36Z</time>
      </trkpt>
      <trkpt lat="46.59832" lon="5.30806">
        <ele>201.4</ele>
        <time>2022-04-06T13:10:38Z</time>
      </trkpt>
      <trkpt lat="46.59822" lon="5.30801">
        <ele>201.4</ele>
        <time>2022-04-06T13:10:40Z</time>
      </trkpt>
      <trkpt lat="46.59813" lon="5.30792">
        <ele>201.4</ele>
        <time>2022-04-06T13:10:42Z</time>
      </trkpt>
      <trkpt lat="46.59811" lon="5.30776">
        <ele>201.4</ele>
        <time>2022-04-06T13:10:44Z</time>
      </trkpt>
      <trkpt lat="46.59812" lon="5.30768">
        <ele>201.2</ele>
        <time>2022-04-06T13:10:45Z</time>
      </trkpt>
      <trkpt lat="46.59819" lon="5.30721">
        <ele>201</ele>
        <time>2022-04-06T13:10:50Z</time>
      </trkpt>
      <trkpt lat="46.59829" lon="5.3066">
        <ele>199.8</ele>
        <time>2022-04-06T13:10:56Z</time>
      </trkpt>
      <trkpt lat="46.59834" lon="5.3064">
        <ele>199.6</ele>
        <time>2022-04-06T13:10:58Z</time>
      </trkpt>
      <trkpt lat="46.59847" lon="5.30614">
        <ele>199.2</ele>
        <time>2022-04-06T13:11:01Z</time>
      </trkpt>
      <trkpt lat="46.5985" lon="5.30604">
        <ele>198.8</ele>
        <time>2022-04-06T13:11:02Z</time>
      </trkpt>
      <trkpt lat="46.59852" lon="5.30593">
        <ele>198.6</ele>
        <time>2022-04-06T13:11:03Z</time>
      </trkpt>
      <trkpt lat="46.5985" lon="5.30571">
        <ele>198.2</ele>
        <time>2022-04-06T13:11:05Z</time>
      </trkpt>
      <trkpt lat="46.59839" lon="5.30528">
        <ele>197.4</ele>
        <time>2022-04-06T13:11:09Z</time>
      </trkpt>
      <trkpt lat="46.59835" lon="5.30517">
        <ele>197.2</ele>
        <time>2022-04-06T13:11:10Z</time>
      </trkpt>
      <trkpt lat="46.59822" lon="5.30473">
        <ele>196.2</ele>
        <time>2022-04-06T13:11:14Z</time>
      </trkpt>
      <trkpt lat="46.59812" lon="5.3044">
        <ele>195.6</ele>
        <time>2022-04-06T13:11:17Z</time>
      </trkpt>
      <trkpt lat="46.59809" lon="5.3043">
        <ele>195.2</ele>
        <time>2022-04-06T13:11:18Z</time>
      </trkpt>
      <trkpt lat="46.59805" lon="5.3042">
        <ele>194.6</ele>
        <time>2022-04-06T13:11:19Z</time>
      </trkpt>
      <trkpt lat="46.59797" lon="5.30399">
        <ele>193.8</ele>
        <time>2022-04-06T13:11:21Z</time>
      </trkpt>
      <trkpt lat="46.59787" lon="5.30381">
        <ele>193.4</ele>
        <time>2022-04-06T13:11:23Z</time>
      </trkpt>
      <trkpt lat="46.59772" lon="5.30356">
        <ele>192.8</ele>
        <time>2022-04-06T13:11:26Z</time>
      </trkpt>
      <trkpt lat="46.59759" lon="5.30329">
        <ele>192.2</ele>
        <time>2022-04-06T13:11:29Z</time>
      </trkpt>
      <trkpt lat="46.59753" lon="5.30309">
        <ele>192</ele>
        <time>2022-04-06T13:11:31Z</time>
      </trkpt>
      <trkpt lat="46.59749" lon="5.30289">
        <ele>192</ele>
        <time>2022-04-06T13:11:33Z</time>
      </trkpt>
      <trkpt lat="46.59748" lon="5.30279">
        <ele>192</ele>
        <time>2022-04-06T13:11:34Z</time>
      </trkpt>
      <trkpt lat="46.59748" lon="5.30258">
        <ele>192</ele>
        <time>2022-04-06T13:11:36Z</time>
      </trkpt>
      <trkpt lat="46.59749" lon="5.30248">
        <ele>192</ele>
        <time>2022-04-06T13:11:37Z</time>
      </trkpt>
      <trkpt lat="46.59756" lon="5.30208">
        <ele>191.8</ele>
        <time>2022-04-06T13:11:42Z</time>
      </trkpt>
      <trkpt lat="46.59762" lon="5.30184">
        <ele>191.6</ele>
        <time>2022-04-06T13:11:44Z</time>
      </trkpt>
      <trkpt lat="46.59774" lon="5.3013">
        <ele>191.4</ele>
        <time>2022-04-06T13:11:50Z</time>
      </trkpt>
      <trkpt lat="46.59779" lon="5.30102">
        <ele>191.4</ele>
        <time>2022-04-06T13:11:54Z</time>
      </trkpt>
      <trkpt lat="46.59779" lon="5.30097">
        <ele>191.4</ele>
        <time>2022-04-06T13:11:55Z</time>
      </trkpt>
      <trkpt lat="46.59781" lon="5.30093">
        <ele>191.4</ele>
        <time>2022-04-06T13:11:57Z</time>
      </trkpt>
      <trkpt lat="46.59781" lon="5.30092">
        <ele>191.2</ele>
        <time>2022-04-06T13:11:58Z</time>
      </trkpt>
      <trkpt lat="46.59781" lon="5.30092">
        <ele>191</ele>
        <time>2022-04-06T13:12:00Z</time>
      </trkpt>
      <trkpt lat="46.59782" lon="5.30086">
        <ele>190.6</ele>
        <time>2022-04-06T13:12:59Z</time>
      </trkpt>
      <trkpt lat="46.59782" lon="5.30081">
        <ele>190.6</ele>
        <time>2022-04-06T13:13:00Z</time>
      </trkpt>
      <trkpt lat="46.59785" lon="5.30046">
        <ele>190.6</ele>
        <time>2022-04-06T13:13:05Z</time>
      </trkpt>
      <trkpt lat="46.59788" lon="5.29999">
        <ele>191</ele>
        <time>2022-04-06T13:13:11Z</time>
      </trkpt>
      <trkpt lat="46.5979" lon="5.29969">
        <ele>191.4</ele>
        <time>2022-04-06T13:13:15Z</time>
      </trkpt>
      <trkpt lat="46.59793" lon="5.29947">
        <ele>191.8</ele>
        <time>2022-04-06T13:13:18Z</time>
      </trkpt>
      <trkpt lat="46.59799" lon="5.29898">
        <ele>193</ele>
        <time>2022-04-06T13:13:24Z</time>
      </trkpt>
      <trkpt lat="46.598" lon="5.29889">
        <ele>193.2</ele>
        <time>2022-04-06T13:13:25Z</time>
      </trkpt>
      <trkpt lat="46.59814" lon="5.29834">
        <ele>193</ele>
        <time>2022-04-06T13:13:31Z</time>
      </trkpt>
      <trkpt lat="46.59835" lon="5.29754">
        <ele>192.4</ele>
        <time>2022-04-06T13:13:40Z</time>
      </trkpt>
      <trkpt lat="46.59848" lon="5.29699">
        <ele>193</ele>
        <time>2022-04-06T13:13:47Z</time>
      </trkpt>
      <trkpt lat="46.59855" lon="5.29665">
        <ele>193.6</ele>
        <time>2022-04-06T13:13:52Z</time>
      </trkpt>
      <trkpt lat="46.59856" lon="5.29652">
        <ele>194</ele>
        <time>2022-04-06T13:13:54Z</time>
      </trkpt>
      <trkpt lat="46.59857" lon="5.29645">
        <ele>194.4</ele>
        <time>2022-04-06T13:13:55Z</time>
      </trkpt>
      <trkpt lat="46.59857" lon="5.29621">
        <ele>195.6</ele>
        <time>2022-04-06T13:13:59Z</time>
      </trkpt>
      <trkpt lat="46.59857" lon="5.29615">
        <ele>195.6</ele>
        <time>2022-04-06T13:14:00Z</time>
      </trkpt>
      <trkpt lat="46.59857" lon="5.29609">
        <ele>195.8</ele>
        <time>2022-04-06T13:14:01Z</time>
      </trkpt>
      <trkpt lat="46.59857" lon="5.29595">
        <ele>196.4</ele>
        <time>2022-04-06T13:14:03Z</time>
      </trkpt>
      <trkpt lat="46.59857" lon="5.29588">
        <ele>196.6</ele>
        <time>2022-04-06T13:14:04Z</time>
      </trkpt>
      <trkpt lat="46.59856" lon="5.29582">
        <ele>196.8</ele>
        <time>2022-04-06T13:14:05Z</time>
      </trkpt>
      <trkpt lat="46.59853" lon="5.29553">
        <ele>197.8</ele>
        <time>2022-04-06T13:14:09Z</time>
      </trkpt>
      <trkpt lat="46.59849" lon="5.29526">
        <ele>199</ele>
        <time>2022-04-06T13:14:13Z</time>
      </trkpt>
      <trkpt lat="46.59846" lon="5.29492">
        <ele>200.4</ele>
        <time>2022-04-06T13:14:17Z</time>
      </trkpt>
      <trkpt lat="46.59844" lon="5.29462">
        <ele>201</ele>
        <time>2022-04-06T13:14:21Z</time>
      </trkpt>
      <trkpt lat="46.59841" lon="5.29432">
        <ele>201.6</ele>
        <time>2022-04-06T13:14:25Z</time>
      </trkpt>
      <trkpt lat="46.59838" lon="5.29409">
        <ele>201.8</ele>
        <time>2022-04-06T13:14:28Z</time>
      </trkpt>
      <trkpt lat="46.59833" lon="5.29347">
        <ele>202.6</ele>
        <time>2022-04-06T13:14:36Z</time>
      </trkpt>
      <trkpt lat="46.59832" lon="5.2934">
        <ele>202.6</ele>
        <time>2022-04-06T13:14:37Z</time>
      </trkpt>
      <trkpt lat="46.59827" lon="5.29326">
        <ele>202.8</ele>
        <time>2022-04-06T13:14:39Z</time>
      </trkpt>
      <trkpt lat="46.59821" lon="5.29317">
        <ele>203</ele>
        <time>2022-04-06T13:14:41Z</time>
      </trkpt>
      <trkpt lat="46.59799" lon="5.29299">
        <ele>203.6</ele>
        <time>2022-04-06T13:14:46Z</time>
      </trkpt>
      <trkpt lat="46.59794" lon="5.29295">
        <ele>203.8</ele>
        <time>2022-04-06T13:14:47Z</time>
      </trkpt>
      <trkpt lat="46.59777" lon="5.29279">
        <ele>204.6</ele>
        <time>2022-04-06T13:14:51Z</time>
      </trkpt>
      <trkpt lat="46.59759" lon="5.29264">
        <ele>205.2</ele>
        <time>2022-04-06T13:14:55Z</time>
      </trkpt>
      <trkpt lat="46.59749" lon="5.29258">
        <ele>205.8</ele>
        <time>2022-04-06T13:14:57Z</time>
      </trkpt>
      <trkpt lat="46.59723" lon="5.29247">
        <ele>206.2</ele>
        <time>2022-04-06T13:15:02Z</time>
      </trkpt>
      <trkpt lat="46.59677" lon="5.29238">
        <ele>206.8</ele>
        <time>2022-04-06T13:15:10Z</time>
      </trkpt>
      <trkpt lat="46.59662" lon="5.29235">
        <ele>206.8</ele>
        <time>2022-04-06T13:15:13Z</time>
      </trkpt>
      <trkpt lat="46.59617" lon="5.29226">
        <ele>207.4</ele>
        <time>2022-04-06T13:15:21Z</time>
      </trkpt>
      <trkpt lat="46.59595" lon="5.29219">
        <ele>207.8</ele>
        <time>2022-04-06T13:15:25Z</time>
      </trkpt>
      <trkpt lat="46.59585" lon="5.29213">
        <ele>208.2</ele>
        <time>2022-04-06T13:15:27Z</time>
      </trkpt>
      <trkpt lat="46.59554" lon="5.29185">
        <ele>208.6</ele>
        <time>2022-04-06T13:15:33Z</time>
      </trkpt>
      <trkpt lat="46.59517" lon="5.29141">
        <ele>209</ele>
        <time>2022-04-06T13:15:41Z</time>
      </trkpt>
      <trkpt lat="46.59498" lon="5.2912">
        <ele>209</ele>
        <time>2022-04-06T13:15:45Z</time>
      </trkpt>
      <trkpt lat="46.59466" lon="5.29084">
        <ele>209.4</ele>
        <time>2022-04-06T13:15:52Z</time>
      </trkpt>
      <trkpt lat="46.59424" lon="5.29041">
        <ele>209.4</ele>
        <time>2022-04-06T13:16:01Z</time>
      </trkpt>
      <trkpt lat="46.59393" lon="5.2902">
        <ele>209.8</ele>
        <time>2022-04-06T13:16:07Z</time>
      </trkpt>
      <trkpt lat="46.59355" lon="5.28997">
        <ele>210</ele>
        <time>2022-04-06T13:16:14Z</time>
      </trkpt>
      <trkpt lat="46.59299" lon="5.28964">
        <ele>209</ele>
        <time>2022-04-06T13:16:22Z</time>
      </trkpt>
      <trkpt lat="46.59269" lon="5.28947">
        <ele>207.6</ele>
        <time>2022-04-06T13:16:26Z</time>
      </trkpt>
      <trkpt lat="46.59239" lon="5.28929">
        <ele>206.8</ele>
        <time>2022-04-06T13:16:30Z</time>
      </trkpt>
      <trkpt lat="46.59216" lon="5.28916">
        <ele>206.2</ele>
        <time>2022-04-06T13:16:33Z</time>
      </trkpt>
      <trkpt lat="46.59183" lon="5.28896">
        <ele>205.6</ele>
        <time>2022-04-06T13:16:38Z</time>
      </trkpt>
      <trkpt lat="46.59157" lon="5.2888">
        <ele>205.6</ele>
        <time>2022-04-06T13:16:43Z</time>
      </trkpt>
      <trkpt lat="46.59125" lon="5.28863">
        <ele>207</ele>
        <time>2022-04-06T13:16:50Z</time>
      </trkpt>
      <trkpt lat="46.59116" lon="5.28859">
        <ele>207.4</ele>
        <time>2022-04-06T13:16:52Z</time>
      </trkpt>
      <trkpt lat="46.59096" lon="5.28851">
        <ele>208.6</ele>
        <time>2022-04-06T13:16:56Z</time>
      </trkpt>
      <trkpt lat="46.5909" lon="5.28849">
        <ele>208.6</ele>
        <time>2022-04-06T13:16:57Z</time>
      </trkpt>
      <trkpt lat="46.59046" lon="5.28837">
        <ele>209.8</ele>
        <time>2022-04-06T13:17:05Z</time>
      </trkpt>
      <trkpt lat="46.59034" lon="5.28834">
        <ele>209.8</ele>
        <time>2022-04-06T13:17:07Z</time>
      </trkpt>
      <trkpt lat="46.58995" lon="5.28821">
        <ele>209.6</ele>
        <time>2022-04-06T13:17:14Z</time>
      </trkpt>
      <trkpt lat="46.58964" lon="5.28804">
        <ele>209.4</ele>
        <time>2022-04-06T13:17:19Z</time>
      </trkpt>
      <trkpt lat="46.58959" lon="5.28798">
        <ele>209.4</ele>
        <time>2022-04-06T13:17:20Z</time>
      </trkpt>
      <trkpt lat="46.58955" lon="5.28792">
        <ele>209.4</ele>
        <time>2022-04-06T13:17:21Z</time>
      </trkpt>
      <trkpt lat="46.58937" lon="5.28758">
        <ele>209.6</ele>
        <time>2022-04-06T13:17:26Z</time>
      </trkpt>
      <trkpt lat="46.58929" lon="5.28745">
        <ele>209.6</ele>
        <time>2022-04-06T13:17:28Z</time>
      </trkpt>
      <trkpt lat="46.5892" lon="5.28734">
        <ele>209.6</ele>
        <time>2022-04-06T13:17:30Z</time>
      </trkpt>
      <trkpt lat="46.58916" lon="5.28728">
        <ele>209.6</ele>
        <time>2022-04-06T13:17:31Z</time>
      </trkpt>
      <trkpt lat="46.58911" lon="5.28723">
        <ele>209.6</ele>
        <time>2022-04-06T13:17:32Z</time>
      </trkpt>
      <trkpt lat="46.58895" lon="5.28712">
        <ele>209.6</ele>
        <time>2022-04-06T13:17:35Z</time>
      </trkpt>
      <trkpt lat="46.5886" lon="5.28692">
        <ele>210.4</ele>
        <time>2022-04-06T13:17:42Z</time>
      </trkpt>
      <trkpt lat="46.58824" lon="5.28672">
        <ele>210.6</ele>
        <time>2022-04-06T13:17:49Z</time>
      </trkpt>
      <trkpt lat="46.58819" lon="5.28668">
        <ele>210.6</ele>
        <time>2022-04-06T13:17:50Z</time>
      </trkpt>
      <trkpt lat="46.58802" lon="5.28647">
        <ele>210.6</ele>
        <time>2022-04-06T13:17:54Z</time>
      </trkpt>
      <trkpt lat="46.58776" lon="5.28603">
        <ele>210.4</ele>
        <time>2022-04-06T13:18:00Z</time>
      </trkpt>
      <trkpt lat="46.58746" lon="5.28552">
        <ele>209.4</ele>
        <time>2022-04-06T13:18:06Z</time>
      </trkpt>
      <trkpt lat="46.5873" lon="5.28524">
        <ele>208.8</ele>
        <time>2022-04-06T13:18:09Z</time>
      </trkpt>
      <trkpt lat="46.58713" lon="5.28495">
        <ele>207.8</ele>
        <time>2022-04-06T13:18:12Z</time>
      </trkpt>
      <trkpt lat="46.58707" lon="5.28486">
        <ele>207.6</ele>
        <time>2022-04-06T13:18:13Z</time>
      </trkpt>
      <trkpt lat="46.58689" lon="5.28455">
        <ele>206.2</ele>
        <time>2022-04-06T13:18:16Z</time>
      </trkpt>
      <trkpt lat="46.5867" lon="5.28424">
        <ele>204.8</ele>
        <time>2022-04-06T13:18:19Z</time>
      </trkpt>
      <trkpt lat="46.58664" lon="5.28415">
        <ele>204.4</ele>
        <time>2022-04-06T13:18:20Z</time>
      </trkpt>
      <trkpt lat="46.58652" lon="5.28395">
        <ele>203.4</ele>
        <time>2022-04-06T13:18:22Z</time>
      </trkpt>
      <trkpt lat="46.58634" lon="5.28364">
        <ele>202.2</ele>
        <time>2022-04-06T13:18:25Z</time>
      </trkpt>
      <trkpt lat="46.58622" lon="5.28343">
        <ele>201.4</ele>
        <time>2022-04-06T13:18:27Z</time>
      </trkpt>
      <trkpt lat="46.58617" lon="5.28334">
        <ele>201</ele>
        <time>2022-04-06T13:18:28Z</time>
      </trkpt>
      <trkpt lat="46.58583" lon="5.28276">
        <ele>199.8</ele>
        <time>2022-04-06T13:18:34Z</time>
      </trkpt>
      <trkpt lat="46.58572" lon="5.28257">
        <ele>199.4</ele>
        <time>2022-04-06T13:18:36Z</time>
      </trkpt>
      <trkpt lat="46.58551" lon="5.28221">
        <ele>198.8</ele>
        <time>2022-04-06T13:18:40Z</time>
      </trkpt>
      <trkpt lat="46.58526" lon="5.28182">
        <ele>198.2</ele>
        <time>2022-04-06T13:18:45Z</time>
      </trkpt>
      <trkpt lat="46.58499" lon="5.28134">
        <ele>197.6</ele>
        <time>2022-04-06T13:18:50Z</time>
      </trkpt>
      <trkpt lat="46.58474" lon="5.28092">
        <ele>197.2</ele>
        <time>2022-04-06T13:18:55Z</time>
      </trkpt>
      <trkpt lat="46.58459" lon="5.28056">
        <ele>197.2</ele>
        <time>2022-04-06T13:18:59Z</time>
      </trkpt>
      <trkpt lat="46.58453" lon="5.28019">
        <ele>197.6</ele>
        <time>2022-04-06T13:19:03Z</time>
      </trkpt>
      <trkpt lat="46.58453" lon="5.2801">
        <ele>197.8</ele>
        <time>2022-04-06T13:19:04Z</time>
      </trkpt>
      <trkpt lat="46.58453" lon="5.28002">
        <ele>197.8</ele>
        <time>2022-04-06T13:19:05Z</time>
      </trkpt>
      <trkpt lat="46.58458" lon="5.27969">
        <ele>198.4</ele>
        <time>2022-04-06T13:19:09Z</time>
      </trkpt>
      <trkpt lat="46.58463" lon="5.27949">
        <ele>198.8</ele>
        <time>2022-04-06T13:19:12Z</time>
      </trkpt>
      <trkpt lat="46.58466" lon="5.27935">
        <ele>199.2</ele>
        <time>2022-04-06T13:19:14Z</time>
      </trkpt>
      <trkpt lat="46.58469" lon="5.27921">
        <ele>199.8</ele>
        <time>2022-04-06T13:19:16Z</time>
      </trkpt>
      <trkpt lat="46.58472" lon="5.27908">
        <ele>200.4</ele>
        <time>2022-04-06T13:19:18Z</time>
      </trkpt>
      <trkpt lat="46.58475" lon="5.27895">
        <ele>200.8</ele>
        <time>2022-04-06T13:19:20Z</time>
      </trkpt>
      <trkpt lat="46.58477" lon="5.27889">
        <ele>201</ele>
        <time>2022-04-06T13:19:21Z</time>
      </trkpt>
      <trkpt lat="46.58484" lon="5.27865">
        <ele>202</ele>
        <time>2022-04-06T13:19:25Z</time>
      </trkpt>
      <trkpt lat="46.58486" lon="5.27853">
        <ele>202.6</ele>
        <time>2022-04-06T13:19:27Z</time>
      </trkpt>
      <trkpt lat="46.58489" lon="5.27842">
        <ele>203.4</ele>
        <time>2022-04-06T13:19:29Z</time>
      </trkpt>
      <trkpt lat="46.58493" lon="5.27826">
        <ele>204.4</ele>
        <time>2022-04-06T13:19:32Z</time>
      </trkpt>
      <trkpt lat="46.58494" lon="5.2782">
        <ele>204.6</ele>
        <time>2022-04-06T13:19:33Z</time>
      </trkpt>
      <trkpt lat="46.58496" lon="5.27815">
        <ele>204.8</ele>
        <time>2022-04-06T13:19:34Z</time>
      </trkpt>
      <trkpt lat="46.585" lon="5.27798">
        <ele>205.6</ele>
        <time>2022-04-06T13:19:37Z</time>
      </trkpt>
      <trkpt lat="46.58506" lon="5.27774">
        <ele>206.8</ele>
        <time>2022-04-06T13:19:41Z</time>
      </trkpt>
      <trkpt lat="46.5851" lon="5.2776">
        <ele>207.2</ele>
        <time>2022-04-06T13:19:44Z</time>
      </trkpt>
      <trkpt lat="46.58512" lon="5.27747">
        <ele>208</ele>
        <time>2022-04-06T13:19:46Z</time>
      </trkpt>
      <trkpt lat="46.58515" lon="5.27735">
        <ele>208.4</ele>
        <time>2022-04-06T13:19:48Z</time>
      </trkpt>
      <trkpt lat="46.5852" lon="5.27718">
        <ele>209</ele>
        <time>2022-04-06T13:19:51Z</time>
      </trkpt>
      <trkpt lat="46.58523" lon="5.277">
        <ele>209.8</ele>
        <time>2022-04-06T13:19:54Z</time>
      </trkpt>
      <trkpt lat="46.58526" lon="5.27687">
        <ele>210</ele>
        <time>2022-04-06T13:19:56Z</time>
      </trkpt>
      <trkpt lat="46.58531" lon="5.27654">
        <ele>211.2</ele>
        <time>2022-04-06T13:20:01Z</time>
      </trkpt>
      <trkpt lat="46.58535" lon="5.27633">
        <ele>211.4</ele>
        <time>2022-04-06T13:20:04Z</time>
      </trkpt>
      <trkpt lat="46.58542" lon="5.2758">
        <ele>211.6</ele>
        <time>2022-04-06T13:20:11Z</time>
      </trkpt>
      <trkpt lat="46.58545" lon="5.27541">
        <ele>211.6</ele>
        <time>2022-04-06T13:20:16Z</time>
      </trkpt>
      <trkpt lat="46.58544" lon="5.27533">
        <ele>211.6</ele>
        <time>2022-04-06T13:20:17Z</time>
      </trkpt>
      <trkpt lat="46.58543" lon="5.27526">
        <ele>211.6</ele>
        <time>2022-04-06T13:20:18Z</time>
      </trkpt>
      <trkpt lat="46.58535" lon="5.27503">
        <ele>211.6</ele>
        <time>2022-04-06T13:20:21Z</time>
      </trkpt>
      <trkpt lat="46.58506" lon="5.27441">
        <ele>211.6</ele>
        <time>2022-04-06T13:20:30Z</time>
      </trkpt>
      <trkpt lat="46.58481" lon="5.27388">
        <ele>212</ele>
        <time>2022-04-06T13:20:38Z</time>
      </trkpt>
      <trkpt lat="46.58444" lon="5.27332">
        <ele>212</ele>
        <time>2022-04-06T13:20:47Z</time>
      </trkpt>
      <trkpt lat="46.58431" lon="5.27315">
        <ele>212.2</ele>
        <time>2022-04-06T13:20:50Z</time>
      </trkpt>
      <trkpt lat="46.58412" lon="5.27293">
        <ele>212.4</ele>
        <time>2022-04-06T13:20:54Z</time>
      </trkpt>
      <trkpt lat="46.58367" lon="5.27248">
        <ele>212.4</ele>
        <time>2022-04-06T13:21:03Z</time>
      </trkpt>
      <trkpt lat="46.58361" lon="5.27243">
        <ele>212.4</ele>
        <time>2022-04-06T13:21:04Z</time>
      </trkpt>
      <trkpt lat="46.58321" lon="5.27201">
        <ele>212.4</ele>
        <time>2022-04-06T13:21:12Z</time>
      </trkpt>
      <trkpt lat="46.58285" lon="5.27159">
        <ele>212.6</ele>
        <time>2022-04-06T13:21:20Z</time>
      </trkpt>
      <trkpt lat="46.58273" lon="5.27144">
        <ele>212.4</ele>
        <time>2022-04-06T13:21:23Z</time>
      </trkpt>
      <trkpt lat="46.5826" lon="5.27123">
        <ele>212.2</ele>
        <time>2022-04-06T13:21:27Z</time>
      </trkpt>
      <trkpt lat="46.58255" lon="5.27114">
        <ele>212</ele>
        <time>2022-04-06T13:21:31Z</time>
      </trkpt>
      <trkpt lat="46.58255" lon="5.27114">
        <ele>212</ele>
        <time>2022-04-06T13:21:32Z</time>
      </trkpt>
      <trkpt lat="46.58253" lon="5.27108">
        <ele>212</ele>
        <time>2022-04-06T13:21:47Z</time>
      </trkpt>
      <trkpt lat="46.58248" lon="5.27103">
        <ele>212</ele>
        <time>2022-04-06T13:21:49Z</time>
      </trkpt>
      <trkpt lat="46.58245" lon="5.27098">
        <ele>212</ele>
        <time>2022-04-06T13:21:50Z</time>
      </trkpt>
      <trkpt lat="46.58233" lon="5.27081">
        <ele>212.2</ele>
        <time>2022-04-06T13:21:53Z</time>
      </trkpt>
      <trkpt lat="46.58207" lon="5.27039">
        <ele>212.2</ele>
        <time>2022-04-06T13:21:59Z</time>
      </trkpt>
      <trkpt lat="46.58171" lon="5.26984">
        <ele>212.6</ele>
        <time>2022-04-06T13:22:07Z</time>
      </trkpt>
      <trkpt lat="46.58141" lon="5.26935">
        <ele>212.6</ele>
        <time>2022-04-06T13:22:14Z</time>
      </trkpt>
      <trkpt lat="46.58101" lon="5.26873">
        <ele>212.4</ele>
        <time>2022-04-06T13:22:23Z</time>
      </trkpt>
      <trkpt lat="46.58096" lon="5.26866">
        <ele>212.4</ele>
        <time>2022-04-06T13:22:24Z</time>
      </trkpt>
      <trkpt lat="46.58057" lon="5.26805">
        <ele>212.2</ele>
        <time>2022-04-06T13:22:33Z</time>
      </trkpt>
      <trkpt lat="46.58024" lon="5.26752">
        <ele>212.4</ele>
        <time>2022-04-06T13:22:41Z</time>
      </trkpt>
      <trkpt lat="46.57989" lon="5.267">
        <ele>212.6</ele>
        <time>2022-04-06T13:22:49Z</time>
      </trkpt>
      <trkpt lat="46.57964" lon="5.26662">
        <ele>212.8</ele>
        <time>2022-04-06T13:22:55Z</time>
      </trkpt>
      <trkpt lat="46.5793" lon="5.26599">
        <ele>213.2</ele>
        <time>2022-04-06T13:23:04Z</time>
      </trkpt>
      <trkpt lat="46.57926" lon="5.26592">
        <ele>213.2</ele>
        <time>2022-04-06T13:23:05Z</time>
      </trkpt>
      <trkpt lat="46.579" lon="5.26521">
        <ele>213.4</ele>
        <time>2022-04-06T13:23:14Z</time>
      </trkpt>
      <trkpt lat="46.57873" lon="5.26445">
        <ele>213</ele>
        <time>2022-04-06T13:23:23Z</time>
      </trkpt>
      <trkpt lat="46.57845" lon="5.26372">
        <ele>212.4</ele>
        <time>2022-04-06T13:23:31Z</time>
      </trkpt>
      <trkpt lat="46.57842" lon="5.26362">
        <ele>212.2</ele>
        <time>2022-04-06T13:23:32Z</time>
      </trkpt>
      <trkpt lat="46.57821" lon="5.26306">
        <ele>211.2</ele>
        <time>2022-04-06T13:23:37Z</time>
      </trkpt>
      <trkpt lat="46.57812" lon="5.26282">
        <ele>210.4</ele>
        <time>2022-04-06T13:23:39Z</time>
      </trkpt>
      <trkpt lat="46.57808" lon="5.2627">
        <ele>210</ele>
        <time>2022-04-06T13:23:40Z</time>
      </trkpt>
      <trkpt lat="46.57799" lon="5.26246">
        <ele>208.8</ele>
        <time>2022-04-06T13:23:42Z</time>
      </trkpt>
      <trkpt lat="46.57786" lon="5.26212">
        <ele>207.6</ele>
        <time>2022-04-06T13:23:45Z</time>
      </trkpt>
      <trkpt lat="46.57777" lon="5.26191">
        <ele>207</ele>
        <time>2022-04-06T13:23:47Z</time>
      </trkpt>
      <trkpt lat="46.5777" lon="5.2617">
        <ele>206.6</ele>
        <time>2022-04-06T13:23:49Z</time>
      </trkpt>
      <trkpt lat="46.57755" lon="5.26132">
        <ele>206.4</ele>
        <time>2022-04-06T13:23:53Z</time>
      </trkpt>
      <trkpt lat="46.57733" lon="5.2607">
        <ele>206.4</ele>
        <time>2022-04-06T13:24:00Z</time>
      </trkpt>
      <trkpt lat="46.57714" lon="5.26016">
        <ele>207.6</ele>
        <time>2022-04-06T13:24:07Z</time>
      </trkpt>
      <trkpt lat="46.57709" lon="5.26002">
        <ele>207.8</ele>
        <time>2022-04-06T13:24:09Z</time>
      </trkpt>
      <trkpt lat="46.57701" lon="5.25974">
        <ele>208.8</ele>
        <time>2022-04-06T13:24:13Z</time>
      </trkpt>
      <trkpt lat="46.5769" lon="5.25936">
        <ele>209.8</ele>
        <time>2022-04-06T13:24:18Z</time>
      </trkpt>
      <trkpt lat="46.5768" lon="5.25906">
        <ele>210.6</ele>
        <time>2022-04-06T13:24:22Z</time>
      </trkpt>
      <trkpt lat="46.57671" lon="5.25877">
        <ele>210.8</ele>
        <time>2022-04-06T13:24:26Z</time>
      </trkpt>
      <trkpt lat="46.57662" lon="5.25849">
        <ele>211.6</ele>
        <time>2022-04-06T13:24:30Z</time>
      </trkpt>
      <trkpt lat="46.57658" lon="5.25835">
        <ele>212</ele>
        <time>2022-04-06T13:24:32Z</time>
      </trkpt>
      <trkpt lat="46.57645" lon="5.25794">
        <ele>212.2</ele>
        <time>2022-04-06T13:24:38Z</time>
      </trkpt>
      <trkpt lat="46.57626" lon="5.25733">
        <ele>212</ele>
        <time>2022-04-06T13:24:47Z</time>
      </trkpt>
      <trkpt lat="46.57619" lon="5.25713">
        <ele>211.8</ele>
        <time>2022-04-06T13:24:50Z</time>
      </trkpt>
      <trkpt lat="46.57618" lon="5.25701">
        <ele>211.6</ele>
        <time>2022-04-06T13:24:52Z</time>
      </trkpt>
      <trkpt lat="46.57623" lon="5.25695">
        <ele>211.4</ele>
        <time>2022-04-06T13:24:54Z</time>
      </trkpt>
      <trkpt lat="46.57628" lon="5.25695">
        <ele>211.2</ele>
        <time>2022-04-06T13:24:55Z</time>
      </trkpt>
      <trkpt lat="46.57646" lon="5.25698">
        <ele>211</ele>
        <time>2022-04-06T13:24:59Z</time>
      </trkpt>
      <trkpt lat="46.57663" lon="5.25701">
        <ele>210.8</ele>
        <time>2022-04-06T13:25:02Z</time>
      </trkpt>
      <trkpt lat="46.57702" lon="5.25707">
        <ele>211</ele>
        <time>2022-04-06T13:25:08Z</time>
      </trkpt>
      <trkpt lat="46.57732" lon="5.25724">
        <ele>211.2</ele>
        <time>2022-04-06T13:25:13Z</time>
      </trkpt>
      <trkpt lat="46.5778" lon="5.25755">
        <ele>211.6</ele>
        <time>2022-04-06T13:25:20Z</time>
      </trkpt>
      <trkpt lat="46.57833" lon="5.2577">
        <ele>211.2</ele>
        <time>2022-04-06T13:25:27Z</time>
      </trkpt>
      <trkpt lat="46.57881" lon="5.25771">
        <ele>210.4</ele>
        <time>2022-04-06T13:25:33Z</time>
      </trkpt>
      <trkpt lat="46.57921" lon="5.2577">
        <ele>210</ele>
        <time>2022-04-06T13:25:38Z</time>
      </trkpt>
      <trkpt lat="46.57944" lon="5.2577">
        <ele>209.6</ele>
        <time>2022-04-06T13:25:41Z</time>
      </trkpt>
      <trkpt lat="46.57951" lon="5.25772">
        <ele>209.6</ele>
        <time>2022-04-06T13:25:42Z</time>
      </trkpt>
      <trkpt lat="46.57958" lon="5.25775">
        <ele>209.6</ele>
        <time>2022-04-06T13:25:43Z</time>
      </trkpt>
      <trkpt lat="46.57971" lon="5.25787">
        <ele>209.4</ele>
        <time>2022-04-06T13:25:45Z</time>
      </trkpt>
      <trkpt lat="46.57984" lon="5.25816">
        <ele>208.6</ele>
        <time>2022-04-06T13:25:48Z</time>
      </trkpt>
      <trkpt lat="46.57988" lon="5.25826">
        <ele>208.4</ele>
        <time>2022-04-06T13:25:49Z</time>
      </trkpt>
      <trkpt lat="46.57994" lon="5.25836">
        <ele>208</ele>
        <time>2022-04-06T13:25:50Z</time>
      </trkpt>
      <trkpt lat="46.58005" lon="5.25853">
        <ele>207.4</ele>
        <time>2022-04-06T13:25:52Z</time>
      </trkpt>
      <trkpt lat="46.58012" lon="5.2586">
        <ele>207.2</ele>
        <time>2022-04-06T13:25:53Z</time>
      </trkpt>
      <trkpt lat="46.58026" lon="5.25873">
        <ele>206.4</ele>
        <time>2022-04-06T13:25:55Z</time>
      </trkpt>
      <trkpt lat="46.58043" lon="5.25886">
        <ele>205.4</ele>
        <time>2022-04-06T13:25:57Z</time>
      </trkpt>
      <trkpt lat="46.58052" lon="5.25892">
        <ele>205.2</ele>
        <time>2022-04-06T13:25:58Z</time>
      </trkpt>
      <trkpt lat="46.5808" lon="5.25912">
        <ele>203.6</ele>
        <time>2022-04-06T13:26:01Z</time>
      </trkpt>
      <trkpt lat="46.58098" lon="5.25924">
        <ele>202.4</ele>
        <time>2022-04-06T13:26:03Z</time>
      </trkpt>
      <trkpt lat="46.5813" lon="5.25947">
        <ele>201.4</ele>
        <time>2022-04-06T13:26:07Z</time>
      </trkpt>
      <trkpt lat="46.58146" lon="5.25958">
        <ele>201.2</ele>
        <time>2022-04-06T13:26:09Z</time>
      </trkpt>
      <trkpt lat="46.58185" lon="5.2599">
        <ele>201.2</ele>
        <time>2022-04-06T13:26:15Z</time>
      </trkpt>
      <trkpt lat="46.5821" lon="5.26016">
        <ele>202.4</ele>
        <time>2022-04-06T13:26:20Z</time>
      </trkpt>
      <trkpt lat="46.58219" lon="5.26026">
        <ele>203</ele>
        <time>2022-04-06T13:26:22Z</time>
      </trkpt>
      <trkpt lat="46.58228" lon="5.26036">
        <ele>203.6</ele>
        <time>2022-04-06T13:26:24Z</time>
      </trkpt>
      <trkpt lat="46.58242" lon="5.26049">
        <ele>204.8</ele>
        <time>2022-04-06T13:26:27Z</time>
      </trkpt>
      <trkpt lat="46.58258" lon="5.26068">
        <ele>206</ele>
        <time>2022-04-06T13:26:31Z</time>
      </trkpt>
      <trkpt lat="46.58269" lon="5.26084">
        <ele>207.4</ele>
        <time>2022-04-06T13:26:34Z</time>
      </trkpt>
      <trkpt lat="46.58276" lon="5.26097">
        <ele>208</ele>
        <time>2022-04-06T13:26:36Z</time>
      </trkpt>
      <trkpt lat="46.58281" lon="5.26111">
        <ele>208.4</ele>
        <time>2022-04-06T13:26:38Z</time>
      </trkpt>
      <trkpt lat="46.58284" lon="5.26119">
        <ele>208.6</ele>
        <time>2022-04-06T13:26:39Z</time>
      </trkpt>
      <trkpt lat="46.58291" lon="5.26143">
        <ele>209.6</ele>
        <time>2022-04-06T13:26:42Z</time>
      </trkpt>
      <trkpt lat="46.58293" lon="5.26151">
        <ele>209.8</ele>
        <time>2022-04-06T13:26:43Z</time>
      </trkpt>
      <trkpt lat="46.58309" lon="5.26212">
        <ele>210.4</ele>
        <time>2022-04-06T13:26:51Z</time>
      </trkpt>
      <trkpt lat="46.58315" lon="5.26236">
        <ele>211</ele>
        <time>2022-04-06T13:26:54Z</time>
      </trkpt>
      <trkpt lat="46.58323" lon="5.26265">
        <ele>211.2</ele>
        <time>2022-04-06T13:26:58Z</time>
      </trkpt>
      <trkpt lat="46.58338" lon="5.26318">
        <ele>211.4</ele>
        <time>2022-04-06T13:27:05Z</time>
      </trkpt>
      <trkpt lat="46.5836" lon="5.26393">
        <ele>211.6</ele>
        <time>2022-04-06T13:27:14Z</time>
      </trkpt>
      <trkpt lat="46.58383" lon="5.26471">
        <ele>211</ele>
        <time>2022-04-06T13:27:23Z</time>
      </trkpt>
      <trkpt lat="46.58386" lon="5.26479">
        <ele>211</ele>
        <time>2022-04-06T13:27:24Z</time>
      </trkpt>
      <trkpt lat="46.58401" lon="5.26509">
        <ele>211</ele>
        <time>2022-04-06T13:27:28Z</time>
      </trkpt>
      <trkpt lat="46.58405" lon="5.26515">
        <ele>211</ele>
        <time>2022-04-06T13:27:29Z</time>
      </trkpt>
      <trkpt lat="46.58436" lon="5.26549">
        <ele>212</ele>
        <time>2022-04-06T13:27:35Z</time>
      </trkpt>
      <trkpt lat="46.58442" lon="5.26554">
        <ele>212</ele>
        <time>2022-04-06T13:27:36Z</time>
      </trkpt>
      <trkpt lat="46.58482" lon="5.26588">
        <ele>212.2</ele>
        <time>2022-04-06T13:27:43Z</time>
      </trkpt>
      <trkpt lat="46.58494" lon="5.26589">
        <ele>212</ele>
        <time>2022-04-06T13:27:45Z</time>
      </trkpt>
      <trkpt lat="46.58502" lon="5.26577">
        <ele>212</ele>
        <time>2022-04-06T13:27:47Z</time>
      </trkpt>
      <trkpt lat="46.58505" lon="5.26568">
        <ele>212</ele>
        <time>2022-04-06T13:27:48Z</time>
      </trkpt>
      <trkpt lat="46.58521" lon="5.26519">
        <ele>212</ele>
        <time>2022-04-06T13:27:53Z</time>
      </trkpt>
      <trkpt lat="46.58547" lon="5.2645">
        <ele>212</ele>
        <time>2022-04-06T13:28:00Z</time>
      </trkpt>
      <trkpt lat="46.58551" lon="5.2644">
        <ele>212</ele>
        <time>2022-04-06T13:28:01Z</time>
      </trkpt>
      <trkpt lat="46.58583" lon="5.26381">
        <ele>212</ele>
        <time>2022-04-06T13:28:08Z</time>
      </trkpt>
      <trkpt lat="46.58617" lon="5.26316">
        <ele>212</ele>
        <time>2022-04-06T13:28:16Z</time>
      </trkpt>
      <trkpt lat="46.5863" lon="5.26292">
        <ele>212</ele>
        <time>2022-04-06T13:28:19Z</time>
      </trkpt>
      <trkpt lat="46.58667" lon="5.26232">
        <ele>211.8</ele>
        <time>2022-04-06T13:28:27Z</time>
      </trkpt>
      <trkpt lat="46.58672" lon="5.26224">
        <ele>211.8</ele>
        <time>2022-04-06T13:28:28Z</time>
      </trkpt>
      <trkpt lat="46.58711" lon="5.26166">
        <ele>211.8</ele>
        <time>2022-04-06T13:28:36Z</time>
      </trkpt>
      <trkpt lat="46.58735" lon="5.2613">
        <ele>211.8</ele>
        <time>2022-04-06T13:28:41Z</time>
      </trkpt>
      <trkpt lat="46.58755" lon="5.2609">
        <ele>211.8</ele>
        <time>2022-04-06T13:28:46Z</time>
      </trkpt>
      <trkpt lat="46.58758" lon="5.26081">
        <ele>211.8</ele>
        <time>2022-04-06T13:28:47Z</time>
      </trkpt>
      <trkpt lat="46.58772" lon="5.26024">
        <ele>211.8</ele>
        <time>2022-04-06T13:28:53Z</time>
      </trkpt>
      <trkpt lat="46.58774" lon="5.25975">
        <ele>211.4</ele>
        <time>2022-04-06T13:28:58Z</time>
      </trkpt>
      <trkpt lat="46.58769" lon="5.25893">
        <ele>211.4</ele>
        <time>2022-04-06T13:29:06Z</time>
      </trkpt>
      <trkpt lat="46.58768" lon="5.25873">
        <ele>211.2</ele>
        <time>2022-04-06T13:29:08Z</time>
      </trkpt>
      <trkpt lat="46.58764" lon="5.25792">
        <ele>211.2</ele>
        <time>2022-04-06T13:29:16Z</time>
      </trkpt>
      <trkpt lat="46.5876" lon="5.25741">
        <ele>211.2</ele>
        <time>2022-04-06T13:29:21Z</time>
      </trkpt>
      <trkpt lat="46.58751" lon="5.25694">
        <ele>211.2</ele>
        <time>2022-04-06T13:29:26Z</time>
      </trkpt>
      <trkpt lat="46.58731" lon="5.25626">
        <ele>211</ele>
        <time>2022-04-06T13:29:33Z</time>
      </trkpt>
      <trkpt lat="46.58724" lon="5.25595">
        <ele>210.6</ele>
        <time>2022-04-06T13:29:36Z</time>
      </trkpt>
      <trkpt lat="46.58722" lon="5.25574">
        <ele>210.6</ele>
        <time>2022-04-06T13:29:38Z</time>
      </trkpt>
      <trkpt lat="46.58728" lon="5.25516">
        <ele>210.2</ele>
        <time>2022-04-06T13:29:43Z</time>
      </trkpt>
      <trkpt lat="46.58744" lon="5.25435">
        <ele>210.8</ele>
        <time>2022-04-06T13:29:52Z</time>
      </trkpt>
      <trkpt lat="46.58746" lon="5.25425">
        <ele>210.8</ele>
        <time>2022-04-06T13:29:53Z</time>
      </trkpt>
      <trkpt lat="46.58762" lon="5.25348">
        <ele>210.8</ele>
        <time>2022-04-06T13:30:01Z</time>
      </trkpt>
      <trkpt lat="46.58765" lon="5.25338">
        <ele>211</ele>
        <time>2022-04-06T13:30:02Z</time>
      </trkpt>
      <trkpt lat="46.58776" lon="5.25312">
        <ele>211</ele>
        <time>2022-04-06T13:30:05Z</time>
      </trkpt>
      <trkpt lat="46.58784" lon="5.25296">
        <ele>211</ele>
        <time>2022-04-06T13:30:07Z</time>
      </trkpt>
      <trkpt lat="46.58819" lon="5.25231">
        <ele>211</ele>
        <time>2022-04-06T13:30:15Z</time>
      </trkpt>
      <trkpt lat="46.58828" lon="5.25214">
        <ele>210.8</ele>
        <time>2022-04-06T13:30:17Z</time>
      </trkpt>
      <trkpt lat="46.58856" lon="5.25148">
        <ele>210.6</ele>
        <time>2022-04-06T13:30:24Z</time>
      </trkpt>
      <trkpt lat="46.58884" lon="5.25074">
        <ele>210.2</ele>
        <time>2022-04-06T13:30:32Z</time>
      </trkpt>
      <trkpt lat="46.58887" lon="5.25066">
        <ele>210.2</ele>
        <time>2022-04-06T13:30:33Z</time>
      </trkpt>
      <trkpt lat="46.5891" lon="5.25006">
        <ele>210.4</ele>
        <time>2022-04-06T13:30:40Z</time>
      </trkpt>
      <trkpt lat="46.58937" lon="5.24938">
        <ele>211</ele>
        <time>2022-04-06T13:30:48Z</time>
      </trkpt>
      <trkpt lat="46.58951" lon="5.24904">
        <ele>211</ele>
        <time>2022-04-06T13:30:52Z</time>
      </trkpt>
      <trkpt lat="46.58977" lon="5.24832">
        <ele>211</ele>
        <time>2022-04-06T13:31:00Z</time>
      </trkpt>
      <trkpt lat="46.58985" lon="5.24807">
        <ele>211</ele>
        <time>2022-04-06T13:31:03Z</time>
      </trkpt>
      <trkpt lat="46.58996" lon="5.2477">
        <ele>211</ele>
        <time>2022-04-06T13:31:08Z</time>
      </trkpt>
      <trkpt lat="46.58998" lon="5.24752">
        <ele>211</ele>
        <time>2022-04-06T13:31:12Z</time>
      </trkpt>
      <trkpt lat="46.58991" lon="5.24748">
        <ele>210.8</ele>
        <time>2022-04-06T13:31:14Z</time>
      </trkpt>
      <trkpt lat="46.58987" lon="5.24749">
        <ele>210.8</ele>
        <time>2022-04-06T13:31:15Z</time>
      </trkpt>
      <trkpt lat="46.58982" lon="5.24751">
        <ele>210.8</ele>
        <time>2022-04-06T13:31:16Z</time>
      </trkpt>
      <trkpt lat="46.58965" lon="5.24759">
        <ele>210.6</ele>
        <time>2022-04-06T13:31:19Z</time>
      </trkpt>
      <trkpt lat="46.58924" lon="5.24776">
        <ele>210.6</ele>
        <time>2022-04-06T13:31:25Z</time>
      </trkpt>
      <trkpt lat="46.58882" lon="5.24794">
        <ele>210.8</ele>
        <time>2022-04-06T13:31:31Z</time>
      </trkpt>
      <trkpt lat="46.58825" lon="5.24819">
        <ele>211.2</ele>
        <time>2022-04-06T13:31:39Z</time>
      </trkpt>
      <trkpt lat="46.58817" lon="5.24822">
        <ele>211.2</ele>
        <time>2022-04-06T13:31:40Z</time>
      </trkpt>
      <trkpt lat="46.58758" lon="5.24846">
        <ele>210.4</ele>
        <time>2022-04-06T13:31:48Z</time>
      </trkpt>
      <trkpt lat="46.58742" lon="5.24853">
        <ele>210.2</ele>
        <time>2022-04-06T13:31:50Z</time>
      </trkpt>
      <trkpt lat="46.58734" lon="5.24857">
        <ele>210</ele>
        <time>2022-04-06T13:31:51Z</time>
      </trkpt>
      <trkpt lat="46.58701" lon="5.24871">
        <ele>208.8</ele>
        <time>2022-04-06T13:31:55Z</time>
      </trkpt>
      <trkpt lat="46.58666" lon="5.24885">
        <ele>207.8</ele>
        <time>2022-04-06T13:31:59Z</time>
      </trkpt>
      <trkpt lat="46.58639" lon="5.24895">
        <ele>206.8</ele>
        <time>2022-04-06T13:32:02Z</time>
      </trkpt>
      <trkpt lat="46.5863" lon="5.24899">
        <ele>206.6</ele>
        <time>2022-04-06T13:32:03Z</time>
      </trkpt>
      <trkpt lat="46.58602" lon="5.24911">
        <ele>204.6</ele>
        <time>2022-04-06T13:32:06Z</time>
      </trkpt>
      <trkpt lat="46.58573" lon="5.24923">
        <ele>203.2</ele>
        <time>2022-04-06T13:32:09Z</time>
      </trkpt>
      <trkpt lat="46.58563" lon="5.24928">
        <ele>203</ele>
        <time>2022-04-06T13:32:10Z</time>
      </trkpt>
      <trkpt lat="46.58544" lon="5.24936">
        <ele>202.2</ele>
        <time>2022-04-06T13:32:12Z</time>
      </trkpt>
      <trkpt lat="46.58514" lon="5.24948">
        <ele>200.6</ele>
        <time>2022-04-06T13:32:15Z</time>
      </trkpt>
      <trkpt lat="46.58484" lon="5.24961">
        <ele>198.8</ele>
        <time>2022-04-06T13:32:18Z</time>
      </trkpt>
      <trkpt lat="46.58464" lon="5.24969">
        <ele>198</ele>
        <time>2022-04-06T13:32:20Z</time>
      </trkpt>
      <trkpt lat="46.58454" lon="5.24973">
        <ele>197.6</ele>
        <time>2022-04-06T13:32:21Z</time>
      </trkpt>
      <trkpt lat="46.58435" lon="5.24981">
        <ele>196</ele>
        <time>2022-04-06T13:32:23Z</time>
      </trkpt>
      <trkpt lat="46.58415" lon="5.24989">
        <ele>195</ele>
        <time>2022-04-06T13:32:25Z</time>
      </trkpt>
      <trkpt lat="46.58395" lon="5.24997">
        <ele>193.8</ele>
        <time>2022-04-06T13:32:27Z</time>
      </trkpt>
      <trkpt lat="46.58367" lon="5.25009">
        <ele>193.2</ele>
        <time>2022-04-06T13:32:30Z</time>
      </trkpt>
      <trkpt lat="46.58339" lon="5.25021">
        <ele>192.6</ele>
        <time>2022-04-06T13:32:33Z</time>
      </trkpt>
      <trkpt lat="46.58304" lon="5.25036">
        <ele>191.6</ele>
        <time>2022-04-06T13:32:37Z</time>
      </trkpt>
      <trkpt lat="46.58296" lon="5.25039">
        <ele>191.4</ele>
        <time>2022-04-06T13:32:38Z</time>
      </trkpt>
      <trkpt lat="46.58246" lon="5.2506">
        <ele>191.2</ele>
        <time>2022-04-06T13:32:45Z</time>
      </trkpt>
      <trkpt lat="46.58203" lon="5.25078">
        <ele>191.8</ele>
        <time>2022-04-06T13:32:51Z</time>
      </trkpt>
      <trkpt lat="46.58149" lon="5.25091">
        <ele>192.2</ele>
        <time>2022-04-06T13:32:59Z</time>
      </trkpt>
      <trkpt lat="46.58092" lon="5.2509">
        <ele>192.4</ele>
        <time>2022-04-06T13:33:07Z</time>
      </trkpt>
      <trkpt lat="46.58085" lon="5.2509">
        <ele>192.4</ele>
        <time>2022-04-06T13:33:08Z</time>
      </trkpt>
      <trkpt lat="46.58026" lon="5.25087">
        <ele>192.4</ele>
        <time>2022-04-06T13:33:16Z</time>
      </trkpt>
      <trkpt lat="46.58019" lon="5.25087">
        <ele>192.2</ele>
        <time>2022-04-06T13:33:17Z</time>
      </trkpt>
      <trkpt lat="46.57965" lon="5.25092">
        <ele>192.2</ele>
        <time>2022-04-06T13:33:25Z</time>
      </trkpt>
      <trkpt lat="46.57959" lon="5.25092">
        <ele>192.2</ele>
        <time>2022-04-06T13:33:26Z</time>
      </trkpt>
      <trkpt lat="46.57921" lon="5.25095">
        <ele>192.8</ele>
        <time>2022-04-06T13:33:32Z</time>
      </trkpt>
      <trkpt lat="46.57896" lon="5.25097">
        <ele>193.4</ele>
        <time>2022-04-06T13:33:36Z</time>
      </trkpt>
      <trkpt lat="46.57884" lon="5.25097">
        <ele>193.8</ele>
        <time>2022-04-06T13:33:38Z</time>
      </trkpt>
      <trkpt lat="46.5785" lon="5.25096">
        <ele>194.8</ele>
        <time>2022-04-06T13:33:44Z</time>
      </trkpt>
      <trkpt lat="46.57845" lon="5.25096">
        <ele>195.2</ele>
        <time>2022-04-06T13:33:45Z</time>
      </trkpt>
      <trkpt lat="46.57827" lon="5.25095">
        <ele>196.2</ele>
        <time>2022-04-06T13:33:48Z</time>
      </trkpt>
      <trkpt lat="46.57806" lon="5.25094">
        <ele>196.8</ele>
        <time>2022-04-06T13:33:52Z</time>
      </trkpt>
      <trkpt lat="46.57791" lon="5.25093">
        <ele>197.2</ele>
        <time>2022-04-06T13:33:55Z</time>
      </trkpt>
      <trkpt lat="46.57747" lon="5.25091">
        <ele>197.8</ele>
        <time>2022-04-06T13:34:03Z</time>
      </trkpt>
      <trkpt lat="46.57697" lon="5.25093">
        <ele>198</ele>
        <time>2022-04-06T13:34:11Z</time>
      </trkpt>
      <trkpt lat="46.57663" lon="5.25109">
        <ele>197.6</ele>
        <time>2022-04-06T13:34:16Z</time>
      </trkpt>
      <trkpt lat="46.57618" lon="5.25135">
        <ele>196</ele>
        <time>2022-04-06T13:34:22Z</time>
      </trkpt>
      <trkpt lat="46.57609" lon="5.25137">
        <ele>195.8</ele>
        <time>2022-04-06T13:34:23Z</time>
      </trkpt>
      <trkpt lat="46.57584" lon="5.25137">
        <ele>195.2</ele>
        <time>2022-04-06T13:34:26Z</time>
      </trkpt>
      <trkpt lat="46.57575" lon="5.25136">
        <ele>194.8</ele>
        <time>2022-04-06T13:34:27Z</time>
      </trkpt>
      <trkpt lat="46.57567" lon="5.25133">
        <ele>194.4</ele>
        <time>2022-04-06T13:34:28Z</time>
      </trkpt>
      <trkpt lat="46.57559" lon="5.2513">
        <ele>194</ele>
        <time>2022-04-06T13:34:29Z</time>
      </trkpt>
      <trkpt lat="46.57551" lon="5.25125">
        <ele>193.6</ele>
        <time>2022-04-06T13:34:30Z</time>
      </trkpt>
      <trkpt lat="46.57543" lon="5.2512">
        <ele>192.8</ele>
        <time>2022-04-06T13:34:31Z</time>
      </trkpt>
      <trkpt lat="46.57529" lon="5.25106">
        <ele>192.2</ele>
        <time>2022-04-06T13:34:33Z</time>
      </trkpt>
      <trkpt lat="46.57522" lon="5.25098">
        <ele>191.8</ele>
        <time>2022-04-06T13:34:34Z</time>
      </trkpt>
      <trkpt lat="46.57495" lon="5.25051">
        <ele>190.8</ele>
        <time>2022-04-06T13:34:39Z</time>
      </trkpt>
      <trkpt lat="46.5749" lon="5.25042">
        <ele>190.6</ele>
        <time>2022-04-06T13:34:40Z</time>
      </trkpt>
      <trkpt lat="46.57466" lon="5.24984">
        <ele>190</ele>
        <time>2022-04-06T13:34:46Z</time>
      </trkpt>
      <trkpt lat="46.57433" lon="5.2491">
        <ele>189.8</ele>
        <time>2022-04-06T13:34:54Z</time>
      </trkpt>
      <trkpt lat="46.57416" lon="5.24874">
        <ele>189.6</ele>
        <time>2022-04-06T13:34:58Z</time>
      </trkpt>
      <trkpt lat="46.57405" lon="5.24847">
        <ele>189.6</ele>
        <time>2022-04-06T13:35:01Z</time>
      </trkpt>
      <trkpt lat="46.57376" lon="5.24787">
        <ele>189.4</ele>
        <time>2022-04-06T13:35:08Z</time>
      </trkpt>
      <trkpt lat="46.57371" lon="5.2478">
        <ele>189.4</ele>
        <time>2022-04-06T13:35:09Z</time>
      </trkpt>
      <trkpt lat="46.57332" lon="5.24743">
        <ele>189.4</ele>
        <time>2022-04-06T13:35:16Z</time>
      </trkpt>
      <trkpt lat="46.57315" lon="5.24726">
        <ele>189.4</ele>
        <time>2022-04-06T13:35:19Z</time>
      </trkpt>
      <trkpt lat="46.5731" lon="5.24719">
        <ele>189.4</ele>
        <time>2022-04-06T13:35:20Z</time>
      </trkpt>
      <trkpt lat="46.57305" lon="5.24711">
        <ele>189.2</ele>
        <time>2022-04-06T13:35:21Z</time>
      </trkpt>
      <trkpt lat="46.57295" lon="5.24683">
        <ele>189</ele>
        <time>2022-04-06T13:35:24Z</time>
      </trkpt>
      <trkpt lat="46.57285" lon="5.24657">
        <ele>189</ele>
        <time>2022-04-06T13:35:27Z</time>
      </trkpt>
      <trkpt lat="46.57274" lon="5.24645">
        <ele>188.8</ele>
        <time>2022-04-06T13:35:29Z</time>
      </trkpt>
      <trkpt lat="46.57263" lon="5.24644">
        <ele>188.8</ele>
        <time>2022-04-06T13:35:31Z</time>
      </trkpt>
      <trkpt lat="46.57256" lon="5.24646">
        <ele>188.8</ele>
        <time>2022-04-06T13:35:32Z</time>
      </trkpt>
      <trkpt lat="46.57212" lon="5.24666">
        <ele>188.8</ele>
        <time>2022-04-06T13:35:39Z</time>
      </trkpt>
      <trkpt lat="46.5717" lon="5.24681">
        <ele>189.4</ele>
        <time>2022-04-06T13:35:46Z</time>
      </trkpt>
      <trkpt lat="46.5713" lon="5.24691">
        <ele>190</ele>
        <time>2022-04-06T13:35:53Z</time>
      </trkpt>
      <trkpt lat="46.57098" lon="5.24683">
        <ele>190.6</ele>
        <time>2022-04-06T13:35:59Z</time>
      </trkpt>
      <trkpt lat="46.57057" lon="5.24669">
        <ele>191.6</ele>
        <time>2022-04-06T13:36:07Z</time>
      </trkpt>
      <trkpt lat="46.57052" lon="5.24668">
        <ele>191.8</ele>
        <time>2022-04-06T13:36:08Z</time>
      </trkpt>
      <trkpt lat="46.57027" lon="5.24658">
        <ele>192.8</ele>
        <time>2022-04-06T13:36:13Z</time>
      </trkpt>
      <trkpt lat="46.57013" lon="5.24653">
        <ele>193.2</ele>
        <time>2022-04-06T13:36:16Z</time>
      </trkpt>
      <trkpt lat="46.56983" lon="5.24643">
        <ele>193.8</ele>
        <time>2022-04-06T13:36:22Z</time>
      </trkpt>
      <trkpt lat="46.56978" lon="5.24641">
        <ele>193.8</ele>
        <time>2022-04-06T13:36:23Z</time>
      </trkpt>
      <trkpt lat="46.5694" lon="5.24627">
        <ele>195</ele>
        <time>2022-04-06T13:36:31Z</time>
      </trkpt>
      <trkpt lat="46.56931" lon="5.24623">
        <ele>195.2</ele>
        <time>2022-04-06T13:36:33Z</time>
      </trkpt>
      <trkpt lat="46.56907" lon="5.24615">
        <ele>196</ele>
        <time>2022-04-06T13:36:38Z</time>
      </trkpt>
      <trkpt lat="46.56885" lon="5.24608">
        <ele>196.6</ele>
        <time>2022-04-06T13:36:42Z</time>
      </trkpt>
      <trkpt lat="46.56862" lon="5.246">
        <ele>197</ele>
        <time>2022-04-06T13:36:47Z</time>
      </trkpt>
      <trkpt lat="46.56837" lon="5.24591">
        <ele>197.8</ele>
        <time>2022-04-06T13:36:52Z</time>
      </trkpt>
      <trkpt lat="46.56823" lon="5.24586">
        <ele>198</ele>
        <time>2022-04-06T13:36:55Z</time>
      </trkpt>
      <trkpt lat="46.56781" lon="5.24571">
        <ele>198.4</ele>
        <time>2022-04-06T13:37:03Z</time>
      </trkpt>
      <trkpt lat="46.56742" lon="5.24557">
        <ele>199.2</ele>
        <time>2022-04-06T13:37:11Z</time>
      </trkpt>
      <trkpt lat="46.56732" lon="5.24554">
        <ele>199.4</ele>
        <time>2022-04-06T13:37:13Z</time>
      </trkpt>
      <trkpt lat="46.56714" lon="5.24548">
        <ele>200.2</ele>
        <time>2022-04-06T13:37:17Z</time>
      </trkpt>
      <trkpt lat="46.5669" lon="5.24539">
        <ele>200.8</ele>
        <time>2022-04-06T13:37:22Z</time>
      </trkpt>
      <trkpt lat="46.56681" lon="5.24536">
        <ele>201.4</ele>
        <time>2022-04-06T13:37:24Z</time>
      </trkpt>
      <trkpt lat="46.56659" lon="5.24528">
        <ele>202.4</ele>
        <time>2022-04-06T13:37:29Z</time>
      </trkpt>
      <trkpt lat="46.56649" lon="5.24524">
        <ele>203</ele>
        <time>2022-04-06T13:37:31Z</time>
      </trkpt>
      <trkpt lat="46.56631" lon="5.24519">
        <ele>203.6</ele>
        <time>2022-04-06T13:37:35Z</time>
      </trkpt>
      <trkpt lat="46.56597" lon="5.24507">
        <ele>205</ele>
        <time>2022-04-06T13:37:42Z</time>
      </trkpt>
      <trkpt lat="46.56577" lon="5.245">
        <ele>206.2</ele>
        <time>2022-04-06T13:37:47Z</time>
      </trkpt>
      <trkpt lat="46.56548" lon="5.2449">
        <ele>207</ele>
        <time>2022-04-06T13:37:53Z</time>
      </trkpt>
      <trkpt lat="46.56543" lon="5.24488">
        <ele>207.2</ele>
        <time>2022-04-06T13:37:54Z</time>
      </trkpt>
      <trkpt lat="46.56498" lon="5.24473">
        <ele>208.4</ele>
        <time>2022-04-06T13:38:03Z</time>
      </trkpt>
      <trkpt lat="46.56493" lon="5.24471">
        <ele>208.4</ele>
        <time>2022-04-06T13:38:04Z</time>
      </trkpt>
      <trkpt lat="46.56439" lon="5.24453">
        <ele>209.4</ele>
        <time>2022-04-06T13:38:15Z</time>
      </trkpt>
      <trkpt lat="46.56406" lon="5.24441">
        <ele>210.4</ele>
        <time>2022-04-06T13:38:22Z</time>
      </trkpt>
      <trkpt lat="46.56401" lon="5.2444">
        <ele>210.6</ele>
        <time>2022-04-06T13:38:23Z</time>
      </trkpt>
      <trkpt lat="46.56358" lon="5.24425">
        <ele>211.4</ele>
        <time>2022-04-06T13:38:32Z</time>
      </trkpt>
      <trkpt lat="46.56355" lon="5.24424">
        <ele>212</ele>
        <time>2022-04-06T13:38:33Z</time>
      </trkpt>
      <trkpt lat="46.56326" lon="5.24413">
        <ele>212.6</ele>
        <time>2022-04-06T13:38:39Z</time>
      </trkpt>
      <trkpt lat="46.56303" lon="5.24405">
        <ele>213.4</ele>
        <time>2022-04-06T13:38:44Z</time>
      </trkpt>
      <trkpt lat="46.5629" lon="5.24401">
        <ele>213.6</ele>
        <time>2022-04-06T13:38:46Z</time>
      </trkpt>
      <trkpt lat="46.56251" lon="5.24388">
        <ele>214</ele>
        <time>2022-04-06T13:38:53Z</time>
      </trkpt>
      <trkpt lat="46.56194" lon="5.24367">
        <ele>214.2</ele>
        <time>2022-04-06T13:39:03Z</time>
      </trkpt>
      <trkpt lat="46.5614" lon="5.24349">
        <ele>214.2</ele>
        <time>2022-04-06T13:39:12Z</time>
      </trkpt>
      <trkpt lat="46.56085" lon="5.2433">
        <ele>214.2</ele>
        <time>2022-04-06T13:39:21Z</time>
      </trkpt>
      <trkpt lat="46.56067" lon="5.24324">
        <ele>214</ele>
        <time>2022-04-06T13:39:24Z</time>
      </trkpt>
      <trkpt lat="46.56011" lon="5.24305">
        <ele>214</ele>
        <time>2022-04-06T13:39:33Z</time>
      </trkpt>
      <trkpt lat="46.55993" lon="5.24301">
        <ele>213.8</ele>
        <time>2022-04-06T13:39:36Z</time>
      </trkpt>
      <trkpt lat="46.55967" lon="5.24296">
        <ele>213.8</ele>
        <time>2022-04-06T13:39:40Z</time>
      </trkpt>
      <trkpt lat="46.55962" lon="5.24291">
        <ele>213.8</ele>
        <time>2022-04-06T13:39:41Z</time>
      </trkpt>
      <trkpt lat="46.55957" lon="5.24279">
        <ele>213.6</ele>
        <time>2022-04-06T13:39:42Z</time>
      </trkpt>
      <trkpt lat="46.55956" lon="5.24269">
        <ele>213.4</ele>
        <time>2022-04-06T13:39:43Z</time>
      </trkpt>
      <trkpt lat="46.55951" lon="5.24223">
        <ele>212.8</ele>
        <time>2022-04-06T13:39:48Z</time>
      </trkpt>
      <trkpt lat="46.5595" lon="5.24214">
        <ele>212.6</ele>
        <time>2022-04-06T13:39:49Z</time>
      </trkpt>
      <trkpt lat="46.55949" lon="5.24205">
        <ele>212.6</ele>
        <time>2022-04-06T13:39:50Z</time>
      </trkpt>
      <trkpt lat="46.55946" lon="5.24186">
        <ele>212.4</ele>
        <time>2022-04-06T13:39:52Z</time>
      </trkpt>
      <trkpt lat="46.55942" lon="5.24167">
        <ele>212.4</ele>
        <time>2022-04-06T13:39:54Z</time>
      </trkpt>
      <trkpt lat="46.55936" lon="5.24149">
        <ele>212.8</ele>
        <time>2022-04-06T13:39:56Z</time>
      </trkpt>
      <trkpt lat="46.55927" lon="5.24122">
        <ele>212.8</ele>
        <time>2022-04-06T13:39:59Z</time>
      </trkpt>
      <trkpt lat="46.55907" lon="5.24052">
        <ele>213.4</ele>
        <time>2022-04-06T13:40:07Z</time>
      </trkpt>
      <trkpt lat="46.55887" lon="5.23991">
        <ele>213.6</ele>
        <time>2022-04-06T13:40:14Z</time>
      </trkpt>
      <trkpt lat="46.55882" lon="5.23974">
        <ele>213.6</ele>
        <time>2022-04-06T13:40:16Z</time>
      </trkpt>
      <trkpt lat="46.55878" lon="5.23962">
        <ele>213.6</ele>
        <time>2022-04-06T13:40:18Z</time>
      </trkpt>
      <trkpt lat="46.55872" lon="5.2395">
        <ele>213.6</ele>
        <time>2022-04-06T13:40:20Z</time>
      </trkpt>
      <trkpt lat="46.55861" lon="5.23936">
        <ele>213.6</ele>
        <time>2022-04-06T13:40:22Z</time>
      </trkpt>
      <trkpt lat="46.55837" lon="5.23913">
        <ele>213.6</ele>
        <time>2022-04-06T13:40:26Z</time>
      </trkpt>
      <trkpt lat="46.5583" lon="5.23909">
        <ele>213.6</ele>
        <time>2022-04-06T13:40:27Z</time>
      </trkpt>
      <trkpt lat="46.55806" lon="5.2389">
        <ele>213.6</ele>
        <time>2022-04-06T13:40:31Z</time>
      </trkpt>
      <trkpt lat="46.55794" lon="5.23881">
        <ele>213.6</ele>
        <time>2022-04-06T13:40:33Z</time>
      </trkpt>
      <trkpt lat="46.55787" lon="5.23877">
        <ele>213.6</ele>
        <time>2022-04-06T13:40:34Z</time>
      </trkpt>
      <trkpt lat="46.55774" lon="5.23867">
        <ele>213.8</ele>
        <time>2022-04-06T13:40:36Z</time>
      </trkpt>
      <trkpt lat="46.55768" lon="5.2386">
        <ele>213.8</ele>
        <time>2022-04-06T13:40:37Z</time>
      </trkpt>
      <trkpt lat="46.55757" lon="5.23848">
        <ele>213.8</ele>
        <time>2022-04-06T13:40:39Z</time>
      </trkpt>
      <trkpt lat="46.55744" lon="5.23839">
        <ele>214</ele>
        <time>2022-04-06T13:40:41Z</time>
      </trkpt>
      <trkpt lat="46.55738" lon="5.23835">
        <ele>214</ele>
        <time>2022-04-06T13:40:42Z</time>
      </trkpt>
      <trkpt lat="46.55726" lon="5.23827">
        <ele>214</ele>
        <time>2022-04-06T13:40:44Z</time>
      </trkpt>
      <trkpt lat="46.55706" lon="5.23819">
        <ele>214</ele>
        <time>2022-04-06T13:40:47Z</time>
      </trkpt>
      <trkpt lat="46.55699" lon="5.23818">
        <ele>214</ele>
        <time>2022-04-06T13:40:48Z</time>
      </trkpt>
      <trkpt lat="46.55672" lon="5.23816">
        <ele>213.6</ele>
        <time>2022-04-06T13:40:52Z</time>
      </trkpt>
      <trkpt lat="46.5565" lon="5.23817">
        <ele>213.2</ele>
        <time>2022-04-06T13:40:55Z</time>
      </trkpt>
      <trkpt lat="46.55633" lon="5.23818">
        <ele>213.2</ele>
        <time>2022-04-06T13:40:57Z</time>
      </trkpt>
      <trkpt lat="46.55608" lon="5.23819">
        <ele>212.2</ele>
        <time>2022-04-06T13:41:00Z</time>
      </trkpt>
      <trkpt lat="46.5559" lon="5.23819">
        <ele>211.8</ele>
        <time>2022-04-06T13:41:02Z</time>
      </trkpt>
      <trkpt lat="46.55571" lon="5.23817">
        <ele>210.8</ele>
        <time>2022-04-06T13:41:04Z</time>
      </trkpt>
      <trkpt lat="46.55543" lon="5.23809">
        <ele>209.6</ele>
        <time>2022-04-06T13:41:07Z</time>
      </trkpt>
      <trkpt lat="46.55533" lon="5.23805">
        <ele>209.2</ele>
        <time>2022-04-06T13:41:08Z</time>
      </trkpt>
      <trkpt lat="46.55524" lon="5.238">
        <ele>208.4</ele>
        <time>2022-04-06T13:41:09Z</time>
      </trkpt>
      <trkpt lat="46.55489" lon="5.23779">
        <ele>207</ele>
        <time>2022-04-06T13:41:12Z</time>
      </trkpt>
      <trkpt lat="46.5548" lon="5.23773">
        <ele>206.8</ele>
        <time>2022-04-06T13:41:13Z</time>
      </trkpt>
      <trkpt lat="46.5547" lon="5.23766">
        <ele>205.8</ele>
        <time>2022-04-06T13:41:15Z</time>
      </trkpt>
      <trkpt lat="46.55447" lon="5.2375">
        <ele>204.4</ele>
        <time>2022-04-06T13:41:17Z</time>
      </trkpt>
      <trkpt lat="46.55428" lon="5.23736">
        <ele>203.4</ele>
        <time>2022-04-06T13:41:19Z</time>
      </trkpt>
      <trkpt lat="46.55409" lon="5.23723">
        <ele>202.2</ele>
        <time>2022-04-06T13:41:21Z</time>
      </trkpt>
      <trkpt lat="46.554" lon="5.23717">
        <ele>202</ele>
        <time>2022-04-06T13:41:22Z</time>
      </trkpt>
      <trkpt lat="46.55373" lon="5.23698">
        <ele>200.8</ele>
        <time>2022-04-06T13:41:25Z</time>
      </trkpt>
      <trkpt lat="46.55349" lon="5.2368">
        <ele>199.8</ele>
        <time>2022-04-06T13:41:28Z</time>
      </trkpt>
      <trkpt lat="46.55341" lon="5.23674">
        <ele>199.8</ele>
        <time>2022-04-06T13:41:29Z</time>
      </trkpt>
      <trkpt lat="46.5529" lon="5.23633">
        <ele>199</ele>
        <time>2022-04-06T13:41:36Z</time>
      </trkpt>
      <trkpt lat="46.55242" lon="5.23594">
        <ele>199</ele>
        <time>2022-04-06T13:41:43Z</time>
      </trkpt>
      <trkpt lat="46.55223" lon="5.23579">
        <ele>199.2</ele>
        <time>2022-04-06T13:41:46Z</time>
      </trkpt>
      <trkpt lat="46.55173" lon="5.23538">
        <ele>199.6</ele>
        <time>2022-04-06T13:41:54Z</time>
      </trkpt>
      <trkpt lat="46.55166" lon="5.23533">
        <ele>199.6</ele>
        <time>2022-04-06T13:41:55Z</time>
      </trkpt>
      <trkpt lat="46.55117" lon="5.23491">
        <ele>199.4</ele>
        <time>2022-04-06T13:42:03Z</time>
      </trkpt>
      <trkpt lat="46.55083" lon="5.23453">
        <ele>199.2</ele>
        <time>2022-04-06T13:42:09Z</time>
      </trkpt>
      <trkpt lat="46.5504" lon="5.23394">
        <ele>198.8</ele>
        <time>2022-04-06T13:42:17Z</time>
      </trkpt>
      <trkpt lat="46.55035" lon="5.23385">
        <ele>198.8</ele>
        <time>2022-04-06T13:42:18Z</time>
      </trkpt>
      <trkpt lat="46.55027" lon="5.23366">
        <ele>198.6</ele>
        <time>2022-04-06T13:42:20Z</time>
      </trkpt>
      <trkpt lat="46.55014" lon="5.23325">
        <ele>198.2</ele>
        <time>2022-04-06T13:42:24Z</time>
      </trkpt>
      <trkpt lat="46.54998" lon="5.23271">
        <ele>198</ele>
        <time>2022-04-06T13:42:30Z</time>
      </trkpt>
      <trkpt lat="46.54984" lon="5.23227">
        <ele>199</ele>
        <time>2022-04-06T13:42:36Z</time>
      </trkpt>
      <trkpt lat="46.54968" lon="5.23199">
        <ele>199.8</ele>
        <time>2022-04-06T13:42:41Z</time>
      </trkpt>
      <trkpt lat="46.54962" lon="5.23192">
        <ele>200</ele>
        <time>2022-04-06T13:42:42Z</time>
      </trkpt>
      <trkpt lat="46.54955" lon="5.23184">
        <ele>201</ele>
        <time>2022-04-06T13:42:45Z</time>
      </trkpt>
      <trkpt lat="46.54934" lon="5.23164">
        <ele>202.2</ele>
        <time>2022-04-06T13:42:50Z</time>
      </trkpt>
      <trkpt lat="46.5492" lon="5.23151">
        <ele>203.4</ele>
        <time>2022-04-06T13:42:54Z</time>
      </trkpt>
      <trkpt lat="46.5491" lon="5.23141">
        <ele>204.4</ele>
        <time>2022-04-06T13:42:57Z</time>
      </trkpt>
      <trkpt lat="46.54899" lon="5.23131">
        <ele>205</ele>
        <time>2022-04-06T13:43:00Z</time>
      </trkpt>
      <trkpt lat="46.54891" lon="5.23125">
        <ele>205.6</ele>
        <time>2022-04-06T13:43:02Z</time>
      </trkpt>
      <trkpt lat="46.54874" lon="5.23109">
        <ele>206.4</ele>
        <time>2022-04-06T13:43:07Z</time>
      </trkpt>
      <trkpt lat="46.54871" lon="5.23105">
        <ele>207</ele>
        <time>2022-04-06T13:43:08Z</time>
      </trkpt>
      <trkpt lat="46.54867" lon="5.23102">
        <ele>207</ele>
        <time>2022-04-06T13:43:09Z</time>
      </trkpt>
      <trkpt lat="46.5485" lon="5.23088">
        <ele>208</ele>
        <time>2022-04-06T13:43:14Z</time>
      </trkpt>
      <trkpt lat="46.54843" lon="5.23081">
        <ele>208.6</ele>
        <time>2022-04-06T13:43:16Z</time>
      </trkpt>
      <trkpt lat="46.54836" lon="5.23074">
        <ele>209</ele>
        <time>2022-04-06T13:43:18Z</time>
      </trkpt>
      <trkpt lat="46.54817" lon="5.23055">
        <ele>210.2</ele>
        <time>2022-04-06T13:43:24Z</time>
      </trkpt>
      <trkpt lat="46.54807" lon="5.23045">
        <ele>210.8</ele>
        <time>2022-04-06T13:43:27Z</time>
      </trkpt>
      <trkpt lat="46.54796" lon="5.23034">
        <ele>211.2</ele>
        <time>2022-04-06T13:43:30Z</time>
      </trkpt>
      <trkpt lat="46.54775" lon="5.23014">
        <ele>211.6</ele>
        <time>2022-04-06T13:43:35Z</time>
      </trkpt>
      <trkpt lat="46.54741" lon="5.22979">
        <ele>211.6</ele>
        <time>2022-04-06T13:43:42Z</time>
      </trkpt>
      <trkpt lat="46.54704" lon="5.22945">
        <ele>211.4</ele>
        <time>2022-04-06T13:43:50Z</time>
      </trkpt>
      <trkpt lat="46.54684" lon="5.22932">
        <ele>211.8</ele>
        <time>2022-04-06T13:43:54Z</time>
      </trkpt>
      <trkpt lat="46.54663" lon="5.22921">
        <ele>212</ele>
        <time>2022-04-06T13:43:58Z</time>
      </trkpt>
      <trkpt lat="46.54633" lon="5.22905">
        <ele>212.4</ele>
        <time>2022-04-06T13:44:04Z</time>
      </trkpt>
      <trkpt lat="46.54609" lon="5.22893">
        <ele>212.8</ele>
        <time>2022-04-06T13:44:09Z</time>
      </trkpt>
      <trkpt lat="46.54575" lon="5.22873">
        <ele>213.6</ele>
        <time>2022-04-06T13:44:16Z</time>
      </trkpt>
      <trkpt lat="46.54565" lon="5.22868">
        <ele>214</ele>
        <time>2022-04-06T13:44:18Z</time>
      </trkpt>
      <trkpt lat="46.54527" lon="5.22844">
        <ele>214.2</ele>
        <time>2022-04-06T13:44:25Z</time>
      </trkpt>
      <trkpt lat="46.54522" lon="5.22838">
        <ele>214</ele>
        <time>2022-04-06T13:44:26Z</time>
      </trkpt>
      <trkpt lat="46.54518" lon="5.22832">
        <ele>214</ele>
        <time>2022-04-06T13:44:27Z</time>
      </trkpt>
      <trkpt lat="46.54503" lon="5.22803">
        <ele>213.8</ele>
        <time>2022-04-06T13:44:31Z</time>
      </trkpt>
      <trkpt lat="46.54469" lon="5.22738">
        <ele>213.8</ele>
        <time>2022-04-06T13:44:40Z</time>
      </trkpt>
      <trkpt lat="46.54434" lon="5.22693">
        <ele>213.6</ele>
        <time>2022-04-06T13:44:47Z</time>
      </trkpt>
      <trkpt lat="46.5439" lon="5.22649">
        <ele>213</ele>
        <time>2022-04-06T13:44:54Z</time>
      </trkpt>
      <trkpt lat="46.54343" lon="5.22601">
        <ele>212.6</ele>
        <time>2022-04-06T13:45:02Z</time>
      </trkpt>
      <trkpt lat="46.54337" lon="5.22596">
        <ele>212.6</ele>
        <time>2022-04-06T13:45:03Z</time>
      </trkpt>
      <trkpt lat="46.54293" lon="5.22551">
        <ele>212.8</ele>
        <time>2022-04-06T13:45:11Z</time>
      </trkpt>
      <trkpt lat="46.54282" lon="5.22538">
        <ele>212.8</ele>
        <time>2022-04-06T13:45:13Z</time>
      </trkpt>
      <trkpt lat="46.54274" lon="5.22522">
        <ele>212.8</ele>
        <time>2022-04-06T13:45:15Z</time>
      </trkpt>
      <trkpt lat="46.54269" lon="5.22502">
        <ele>212.8</ele>
        <time>2022-04-06T13:45:17Z</time>
      </trkpt>
      <trkpt lat="46.54267" lon="5.22482">
        <ele>212.6</ele>
        <time>2022-04-06T13:45:19Z</time>
      </trkpt>
      <trkpt lat="46.54268" lon="5.22461">
        <ele>212.6</ele>
        <time>2022-04-06T13:45:21Z</time>
      </trkpt>
      <trkpt lat="46.5427" lon="5.2238">
        <ele>211.6</ele>
        <time>2022-04-06T13:45:28Z</time>
      </trkpt>
      <trkpt lat="46.5427" lon="5.22367">
        <ele>211.4</ele>
        <time>2022-04-06T13:45:29Z</time>
      </trkpt>
      <trkpt lat="46.5427" lon="5.22354">
        <ele>211</ele>
        <time>2022-04-06T13:45:30Z</time>
      </trkpt>
      <trkpt lat="46.54272" lon="5.22327">
        <ele>210.4</ele>
        <time>2022-04-06T13:45:32Z</time>
      </trkpt>
      <trkpt lat="46.54273" lon="5.22286">
        <ele>209</ele>
        <time>2022-04-06T13:45:35Z</time>
      </trkpt>
      <trkpt lat="46.54275" lon="5.22244">
        <ele>207.8</ele>
        <time>2022-04-06T13:45:38Z</time>
      </trkpt>
      <trkpt lat="46.54276" lon="5.22231">
        <ele>207.6</ele>
        <time>2022-04-06T13:45:39Z</time>
      </trkpt>
      <trkpt lat="46.54278" lon="5.22185">
        <ele>206.4</ele>
        <time>2022-04-06T13:45:42Z</time>
      </trkpt>
      <trkpt lat="46.54278" lon="5.22144">
        <ele>206.2</ele>
        <time>2022-04-06T13:45:46Z</time>
      </trkpt>
      <trkpt lat="46.54272" lon="5.22111">
        <ele>205.8</ele>
        <time>2022-04-06T13:45:49Z</time>
      </trkpt>
      <trkpt lat="46.54268" lon="5.22102">
        <ele>206</ele>
        <time>2022-04-06T13:45:50Z</time>
      </trkpt>
      <trkpt lat="46.54242" lon="5.22043">
        <ele>206</ele>
        <time>2022-04-06T13:45:57Z</time>
      </trkpt>
      <trkpt lat="46.54231" lon="5.22021">
        <ele>206.2</ele>
        <time>2022-04-06T13:46:00Z</time>
      </trkpt>
      <trkpt lat="46.54224" lon="5.22008">
        <ele>206.4</ele>
        <time>2022-04-06T13:46:02Z</time>
      </trkpt>
      <trkpt lat="46.54217" lon="5.21996">
        <ele>206.4</ele>
        <time>2022-04-06T13:46:04Z</time>
      </trkpt>
      <trkpt lat="46.54208" lon="5.21977">
        <ele>207</ele>
        <time>2022-04-06T13:46:07Z</time>
      </trkpt>
      <trkpt lat="46.54199" lon="5.21956">
        <ele>207.8</ele>
        <time>2022-04-06T13:46:10Z</time>
      </trkpt>
      <trkpt lat="46.54193" lon="5.21942">
        <ele>208.2</ele>
        <time>2022-04-06T13:46:12Z</time>
      </trkpt>
      <trkpt lat="46.54188" lon="5.21928">
        <ele>208.6</ele>
        <time>2022-04-06T13:46:14Z</time>
      </trkpt>
      <trkpt lat="46.54181" lon="5.21913">
        <ele>209</ele>
        <time>2022-04-06T13:46:16Z</time>
      </trkpt>
      <trkpt lat="46.54163" lon="5.2186">
        <ele>210</ele>
        <time>2022-04-06T13:46:23Z</time>
      </trkpt>
      <trkpt lat="46.54161" lon="5.21854">
        <ele>210.4</ele>
        <time>2022-04-06T13:46:24Z</time>
      </trkpt>
      <trkpt lat="46.54142" lon="5.21794">
        <ele>211</ele>
        <time>2022-04-06T13:46:32Z</time>
      </trkpt>
      <trkpt lat="46.54127" lon="5.21743">
        <ele>210.8</ele>
        <time>2022-04-06T13:46:38Z</time>
      </trkpt>
      <trkpt lat="46.54103" lon="5.21677">
        <ele>210.2</ele>
        <time>2022-04-06T13:46:46Z</time>
      </trkpt>
      <trkpt lat="46.54078" lon="5.21644">
        <ele>210.2</ele>
        <time>2022-04-06T13:46:51Z</time>
      </trkpt>
      <trkpt lat="46.54038" lon="5.21607">
        <ele>210</ele>
        <time>2022-04-06T13:46:58Z</time>
      </trkpt>
      <trkpt lat="46.5399" lon="5.21559">
        <ele>210</ele>
        <time>2022-04-06T13:47:07Z</time>
      </trkpt>
      <trkpt lat="46.5394" lon="5.2151">
        <ele>210.6</ele>
        <time>2022-04-06T13:47:17Z</time>
      </trkpt>
      <trkpt lat="46.53925" lon="5.21495">
        <ele>211</ele>
        <time>2022-04-06T13:47:20Z</time>
      </trkpt>
      <trkpt lat="46.53898" lon="5.21457">
        <ele>211.4</ele>
        <time>2022-04-06T13:47:26Z</time>
      </trkpt>
      <trkpt lat="46.53858" lon="5.21396">
        <ele>211.4</ele>
        <time>2022-04-06T13:47:35Z</time>
      </trkpt>
      <trkpt lat="46.53822" lon="5.2134">
        <ele>212</ele>
        <time>2022-04-06T13:47:43Z</time>
      </trkpt>
      <trkpt lat="46.53822" lon="5.2134">
        <ele>212</ele>
        <time>2022-04-06T13:47:44Z</time>
      </trkpt>
      <trkpt lat="46.53784" lon="5.21279">
        <ele>212.8</ele>
        <time>2022-04-06T13:47:53Z</time>
      </trkpt>
      <trkpt lat="46.5378" lon="5.21273">
        <ele>212.8</ele>
        <time>2022-04-06T13:47:54Z</time>
      </trkpt>
      <trkpt lat="46.53763" lon="5.21248">
        <ele>212.8</ele>
        <time>2022-04-06T13:47:58Z</time>
      </trkpt>
      <trkpt lat="46.53753" lon="5.21236">
        <ele>213.2</ele>
        <time>2022-04-06T13:48:00Z</time>
      </trkpt>
      <trkpt lat="46.53739" lon="5.21218">
        <ele>213.2</ele>
        <time>2022-04-06T13:48:03Z</time>
      </trkpt>
      <trkpt lat="46.53718" lon="5.21194">
        <ele>213</ele>
        <time>2022-04-06T13:48:07Z</time>
      </trkpt>
      <trkpt lat="46.53672" lon="5.21142">
        <ele>213</ele>
        <time>2022-04-06T13:48:16Z</time>
      </trkpt>
      <trkpt lat="46.53667" lon="5.21137">
        <ele>212.8</ele>
        <time>2022-04-06T13:48:17Z</time>
      </trkpt>
      <trkpt lat="46.53624" lon="5.21095">
        <ele>212.6</ele>
        <time>2022-04-06T13:48:25Z</time>
      </trkpt>
      <trkpt lat="46.53599" lon="5.21053">
        <ele>212.2</ele>
        <time>2022-04-06T13:48:31Z</time>
      </trkpt>
      <trkpt lat="46.53591" lon="5.21028">
        <ele>212.2</ele>
        <time>2022-04-06T13:48:34Z</time>
      </trkpt>
      <trkpt lat="46.53589" lon="5.2101">
        <ele>212.2</ele>
        <time>2022-04-06T13:48:36Z</time>
      </trkpt>
      <trkpt lat="46.53591" lon="5.20964">
        <ele>212</ele>
        <time>2022-04-06T13:48:41Z</time>
      </trkpt>
      <trkpt lat="46.53592" lon="5.20955">
        <ele>212</ele>
        <time>2022-04-06T13:48:42Z</time>
      </trkpt>
      <trkpt lat="46.53587" lon="5.209">
        <ele>211.8</ele>
        <time>2022-04-06T13:48:48Z</time>
      </trkpt>
      <trkpt lat="46.53577" lon="5.20847">
        <ele>212.2</ele>
        <time>2022-04-06T13:48:54Z</time>
      </trkpt>
      <trkpt lat="46.5357" lon="5.20831">
        <ele>211.8</ele>
        <time>2022-04-06T13:48:56Z</time>
      </trkpt>
      <trkpt lat="46.5356" lon="5.20817">
        <ele>211.8</ele>
        <time>2022-04-06T13:48:58Z</time>
      </trkpt>
      <trkpt lat="46.53549" lon="5.20807">
        <ele>211.8</ele>
        <time>2022-04-06T13:49:00Z</time>
      </trkpt>
      <trkpt lat="46.53543" lon="5.20803">
        <ele>211.8</ele>
        <time>2022-04-06T13:49:01Z</time>
      </trkpt>
      <trkpt lat="46.53519" lon="5.20787">
        <ele>211.6</ele>
        <time>2022-04-06T13:49:05Z</time>
      </trkpt>
      <trkpt lat="46.53483" lon="5.20753">
        <ele>211.2</ele>
        <time>2022-04-06T13:49:11Z</time>
      </trkpt>
      <trkpt lat="46.53469" lon="5.20736">
        <ele>211</ele>
        <time>2022-04-06T13:49:13Z</time>
      </trkpt>
      <trkpt lat="46.53427" lon="5.20689">
        <ele>210.2</ele>
        <time>2022-04-06T13:49:21Z</time>
      </trkpt>
      <trkpt lat="46.53422" lon="5.20683">
        <ele>209.8</ele>
        <time>2022-04-06T13:49:22Z</time>
      </trkpt>
      <trkpt lat="46.53407" lon="5.20664">
        <ele>209.4</ele>
        <time>2022-04-06T13:49:25Z</time>
      </trkpt>
      <trkpt lat="46.53405" lon="5.20657">
        <ele>209.4</ele>
        <time>2022-04-06T13:49:26Z</time>
      </trkpt>
      <trkpt lat="46.53404" lon="5.20649">
        <ele>209.2</ele>
        <time>2022-04-06T13:49:27Z</time>
      </trkpt>
      <trkpt lat="46.53406" lon="5.2064">
        <ele>209.2</ele>
        <time>2022-04-06T13:49:28Z</time>
      </trkpt>
      <trkpt lat="46.53409" lon="5.20632">
        <ele>208.8</ele>
        <time>2022-04-06T13:49:29Z</time>
      </trkpt>
      <trkpt lat="46.53412" lon="5.20625">
        <ele>208.6</ele>
        <time>2022-04-06T13:49:30Z</time>
      </trkpt>
      <trkpt lat="46.5342" lon="5.20612">
        <ele>208.4</ele>
        <time>2022-04-06T13:49:32Z</time>
      </trkpt>
      <trkpt lat="46.53427" lon="5.20601">
        <ele>208.2</ele>
        <time>2022-04-06T13:49:34Z</time>
      </trkpt>
      <trkpt lat="46.53441" lon="5.20584">
        <ele>207.8</ele>
        <time>2022-04-06T13:49:37Z</time>
      </trkpt>
      <trkpt lat="46.53451" lon="5.20571">
        <ele>207.6</ele>
        <time>2022-04-06T13:49:39Z</time>
      </trkpt>
      <trkpt lat="46.53469" lon="5.20549">
        <ele>207</ele>
        <time>2022-04-06T13:49:42Z</time>
      </trkpt>
      <trkpt lat="46.53505" lon="5.20502">
        <ele>206.6</ele>
        <time>2022-04-06T13:49:48Z</time>
      </trkpt>
      <trkpt lat="46.53517" lon="5.20486">
        <ele>206</ele>
        <time>2022-04-06T13:49:50Z</time>
      </trkpt>
      <trkpt lat="46.53529" lon="5.2047">
        <ele>205.4</ele>
        <time>2022-04-06T13:49:52Z</time>
      </trkpt>
      <trkpt lat="46.53558" lon="5.2043">
        <ele>204.2</ele>
        <time>2022-04-06T13:49:57Z</time>
      </trkpt>
      <trkpt lat="46.53575" lon="5.20407">
        <ele>203.8</ele>
        <time>2022-04-06T13:50:00Z</time>
      </trkpt>
      <trkpt lat="46.53608" lon="5.20363">
        <ele>204.4</ele>
        <time>2022-04-06T13:50:07Z</time>
      </trkpt>
      <trkpt lat="46.53634" lon="5.20326">
        <ele>205.4</ele>
        <time>2022-04-06T13:50:13Z</time>
      </trkpt>
      <trkpt lat="46.53634" lon="5.20326">
        <ele>205.4</ele>
        <time>2022-04-06T13:50:14Z</time>
      </trkpt>
      <trkpt lat="46.53652" lon="5.20295">
        <ele>206.4</ele>
        <time>2022-04-06T13:50:19Z</time>
      </trkpt>
      <trkpt lat="46.53659" lon="5.20284">
        <ele>207</ele>
        <time>2022-04-06T13:50:21Z</time>
      </trkpt>
      <trkpt lat="46.53666" lon="5.20272">
        <ele>207.6</ele>
        <time>2022-04-06T13:50:23Z</time>
      </trkpt>
      <trkpt lat="46.53682" lon="5.20243">
        <ele>208.8</ele>
        <time>2022-04-06T13:50:28Z</time>
      </trkpt>
      <trkpt lat="46.53695" lon="5.2022">
        <ele>209.2</ele>
        <time>2022-04-06T13:50:32Z</time>
      </trkpt>
      <trkpt lat="46.5372" lon="5.20177">
        <ele>209.8</ele>
        <time>2022-04-06T13:50:39Z</time>
      </trkpt>
      <trkpt lat="46.53731" lon="5.20159">
        <ele>210</ele>
        <time>2022-04-06T13:50:42Z</time>
      </trkpt>
      <trkpt lat="46.53761" lon="5.20107">
        <ele>210.4</ele>
        <time>2022-04-06T13:50:50Z</time>
      </trkpt>
      <trkpt lat="46.53797" lon="5.20049">
        <ele>210.6</ele>
        <time>2022-04-06T13:50:59Z</time>
      </trkpt>
      <trkpt lat="46.53801" lon="5.20043">
        <ele>210.4</ele>
        <time>2022-04-06T13:51:00Z</time>
      </trkpt>
      <trkpt lat="46.53829" lon="5.2">
        <ele>210.4</ele>
        <time>2022-04-06T13:51:06Z</time>
      </trkpt>
      <trkpt lat="46.53872" lon="5.19938">
        <ele>208.8</ele>
        <time>2022-04-06T13:51:13Z</time>
      </trkpt>
      <trkpt lat="46.53872" lon="5.19938">
        <ele>208.8</ele>
        <time>2022-04-06T13:51:14Z</time>
      </trkpt>
      <trkpt lat="46.53894" lon="5.19906">
        <ele>207.6</ele>
        <time>2022-04-06T13:51:17Z</time>
      </trkpt>
      <trkpt lat="46.53921" lon="5.19868">
        <ele>206.4</ele>
        <time>2022-04-06T13:51:21Z</time>
      </trkpt>
      <trkpt lat="46.53933" lon="5.19847">
        <ele>205.4</ele>
        <time>2022-04-06T13:51:23Z</time>
      </trkpt>
      <trkpt lat="46.53943" lon="5.19825">
        <ele>204.2</ele>
        <time>2022-04-06T13:51:25Z</time>
      </trkpt>
      <trkpt lat="46.53952" lon="5.19803">
        <ele>203.2</ele>
        <time>2022-04-06T13:51:27Z</time>
      </trkpt>
      <trkpt lat="46.53978" lon="5.19737">
        <ele>202</ele>
        <time>2022-04-06T13:51:33Z</time>
      </trkpt>
      <trkpt lat="46.53989" lon="5.19706">
        <ele>201.6</ele>
        <time>2022-04-06T13:51:36Z</time>
      </trkpt>
      <trkpt lat="46.5401" lon="5.19651">
        <ele>201.2</ele>
        <time>2022-04-06T13:51:42Z</time>
      </trkpt>
      <trkpt lat="46.54036" lon="5.1959">
        <ele>201.6</ele>
        <time>2022-04-06T13:51:49Z</time>
      </trkpt>
      <trkpt lat="46.5404" lon="5.19582">
        <ele>201.6</ele>
        <time>2022-04-06T13:51:50Z</time>
      </trkpt>
      <trkpt lat="46.54058" lon="5.19564">
        <ele>202</ele>
        <time>2022-04-06T13:51:53Z</time>
      </trkpt>
      <trkpt lat="46.54102" lon="5.19535">
        <ele>202.6</ele>
        <time>2022-04-06T13:52:00Z</time>
      </trkpt>
      <trkpt lat="46.54115" lon="5.19529">
        <ele>203</ele>
        <time>2022-04-06T13:52:02Z</time>
      </trkpt>
      <trkpt lat="46.54141" lon="5.19521">
        <ele>203.2</ele>
        <time>2022-04-06T13:52:06Z</time>
      </trkpt>
      <trkpt lat="46.54197" lon="5.1951">
        <ele>203.4</ele>
        <time>2022-04-06T13:52:15Z</time>
      </trkpt>
      <trkpt lat="46.54254" lon="5.19496">
        <ele>203.6</ele>
        <time>2022-04-06T13:52:23Z</time>
      </trkpt>
      <trkpt lat="46.54267" lon="5.19493">
        <ele>203.6</ele>
        <time>2022-04-06T13:52:25Z</time>
      </trkpt>
      <trkpt lat="46.54321" lon="5.19481">
        <ele>203.4</ele>
        <time>2022-04-06T13:52:33Z</time>
      </trkpt>
      <trkpt lat="46.5438" lon="5.19466">
        <ele>203</ele>
        <time>2022-04-06T13:52:41Z</time>
      </trkpt>
      <trkpt lat="46.54388" lon="5.19463">
        <ele>202.8</ele>
        <time>2022-04-06T13:52:42Z</time>
      </trkpt>
      <trkpt lat="46.54416" lon="5.19442">
        <ele>201.8</ele>
        <time>2022-04-06T13:52:46Z</time>
      </trkpt>
      <trkpt lat="46.54435" lon="5.19405">
        <ele>200.8</ele>
        <time>2022-04-06T13:52:50Z</time>
      </trkpt>
      <trkpt lat="46.54438" lon="5.19395">
        <ele>200.4</ele>
        <time>2022-04-06T13:52:51Z</time>
      </trkpt>
      <trkpt lat="46.54447" lon="5.19353">
        <ele>200</ele>
        <time>2022-04-06T13:52:55Z</time>
      </trkpt>
      <trkpt lat="46.54448" lon="5.193">
        <ele>200</ele>
        <time>2022-04-06T13:53:00Z</time>
      </trkpt>
      <trkpt lat="46.54443" lon="5.19253">
        <ele>200.2</ele>
        <time>2022-04-06T13:53:05Z</time>
      </trkpt>
      <trkpt lat="46.54436" lon="5.19203">
        <ele>201</ele>
        <time>2022-04-06T13:53:11Z</time>
      </trkpt>
      <trkpt lat="46.54432" lon="5.19169">
        <ele>201.4</ele>
        <time>2022-04-06T13:53:15Z</time>
      </trkpt>
      <trkpt lat="46.54431" lon="5.19142">
        <ele>202.2</ele>
        <time>2022-04-06T13:53:18Z</time>
      </trkpt>
      <trkpt lat="46.54431" lon="5.19124">
        <ele>202.4</ele>
        <time>2022-04-06T13:53:20Z</time>
      </trkpt>
      <trkpt lat="46.5443" lon="5.1907">
        <ele>203.8</ele>
        <time>2022-04-06T13:53:26Z</time>
      </trkpt>
      <trkpt lat="46.5443" lon="5.19052">
        <ele>203.8</ele>
        <time>2022-04-06T13:53:28Z</time>
      </trkpt>
      <trkpt lat="46.54431" lon="5.18971">
        <ele>203.8</ele>
        <time>2022-04-06T13:53:37Z</time>
      </trkpt>
      <trkpt lat="46.54431" lon="5.18962">
        <ele>203.6</ele>
        <time>2022-04-06T13:53:38Z</time>
      </trkpt>
      <trkpt lat="46.54439" lon="5.18897">
        <ele>204.8</ele>
        <time>2022-04-06T13:53:46Z</time>
      </trkpt>
      <trkpt lat="46.54452" lon="5.18831">
        <ele>205.4</ele>
        <time>2022-04-06T13:53:54Z</time>
      </trkpt>
      <trkpt lat="46.54469" lon="5.18754">
        <ele>205.6</ele>
        <time>2022-04-06T13:54:03Z</time>
      </trkpt>
      <trkpt lat="46.54484" lon="5.18703">
        <ele>205.6</ele>
        <time>2022-04-06T13:54:09Z</time>
      </trkpt>
      <trkpt lat="46.54492" lon="5.18688">
        <ele>205.6</ele>
        <time>2022-04-06T13:54:11Z</time>
      </trkpt>
      <trkpt lat="46.54517" lon="5.18656">
        <ele>205.2</ele>
        <time>2022-04-06T13:54:16Z</time>
      </trkpt>
      <trkpt lat="46.54549" lon="5.18628">
        <ele>204.4</ele>
        <time>2022-04-06T13:54:21Z</time>
      </trkpt>
      <trkpt lat="46.54571" lon="5.18609">
        <ele>203.6</ele>
        <time>2022-04-06T13:54:24Z</time>
      </trkpt>
      <trkpt lat="46.54593" lon="5.18589">
        <ele>202.2</ele>
        <time>2022-04-06T13:54:27Z</time>
      </trkpt>
      <trkpt lat="46.546" lon="5.18583">
        <ele>202</ele>
        <time>2022-04-06T13:54:28Z</time>
      </trkpt>
      <trkpt lat="46.54624" lon="5.1856">
        <ele>201.6</ele>
        <time>2022-04-06T13:54:32Z</time>
      </trkpt>
      <trkpt lat="46.54629" lon="5.18555">
        <ele>201.6</ele>
        <time>2022-04-06T13:54:33Z</time>
      </trkpt>
      <trkpt lat="46.54667" lon="5.18526">
        <ele>203</ele>
        <time>2022-04-06T13:54:40Z</time>
      </trkpt>
      <trkpt lat="46.5468" lon="5.18517">
        <ele>203.4</ele>
        <time>2022-04-06T13:54:42Z</time>
      </trkpt>
      <trkpt lat="46.54698" lon="5.18508">
        <ele>204.2</ele>
        <time>2022-04-06T13:54:46Z</time>
      </trkpt>
      <trkpt lat="46.54703" lon="5.18506">
        <ele>204.4</ele>
        <time>2022-04-06T13:54:47Z</time>
      </trkpt>
      <trkpt lat="46.54735" lon="5.18492">
        <ele>205.4</ele>
        <time>2022-04-06T13:54:53Z</time>
      </trkpt>
      <trkpt lat="46.5474" lon="5.18489">
        <ele>205.6</ele>
        <time>2022-04-06T13:54:54Z</time>
      </trkpt>
      <trkpt lat="46.54744" lon="5.18486">
        <ele>205.8</ele>
        <time>2022-04-06T13:54:55Z</time>
      </trkpt>
      <trkpt lat="46.54758" lon="5.18475">
        <ele>206.4</ele>
        <time>2022-04-06T13:54:58Z</time>
      </trkpt>
      <trkpt lat="46.54774" lon="5.18458">
        <ele>207.6</ele>
        <time>2022-04-06T13:55:02Z</time>
      </trkpt>
      <trkpt lat="46.54789" lon="5.1843">
        <ele>208.6</ele>
        <time>2022-04-06T13:55:07Z</time>
      </trkpt>
      <trkpt lat="46.54792" lon="5.18416">
        <ele>209</ele>
        <time>2022-04-06T13:55:09Z</time>
      </trkpt>
      <trkpt lat="46.54795" lon="5.18395">
        <ele>209.8</ele>
        <time>2022-04-06T13:55:12Z</time>
      </trkpt>
      <trkpt lat="46.54792" lon="5.1835">
        <ele>210.6</ele>
        <time>2022-04-06T13:55:18Z</time>
      </trkpt>
      <trkpt lat="46.54777" lon="5.18279">
        <ele>210.6</ele>
        <time>2022-04-06T13:55:27Z</time>
      </trkpt>
      <trkpt lat="46.54762" lon="5.182">
        <ele>210.2</ele>
        <time>2022-04-06T13:55:36Z</time>
      </trkpt>
      <trkpt lat="46.54746" lon="5.18118">
        <ele>210.2</ele>
        <time>2022-04-06T13:55:45Z</time>
      </trkpt>
      <trkpt lat="46.54741" lon="5.18099">
        <ele>210</ele>
        <time>2022-04-06T13:55:47Z</time>
      </trkpt>
      <trkpt lat="46.54725" lon="5.18027">
        <ele>209.4</ele>
        <time>2022-04-06T13:55:54Z</time>
      </trkpt>
      <trkpt lat="46.54707" lon="5.17947">
        <ele>209</ele>
        <time>2022-04-06T13:56:02Z</time>
      </trkpt>
      <trkpt lat="46.54705" lon="5.17938">
        <ele>209</ele>
        <time>2022-04-06T13:56:03Z</time>
      </trkpt>
      <trkpt lat="46.54703" lon="5.17928">
        <ele>209</ele>
        <time>2022-04-06T13:56:04Z</time>
      </trkpt>
      <trkpt lat="46.54703" lon="5.17898">
        <ele>209</ele>
        <time>2022-04-06T13:56:07Z</time>
      </trkpt>
      <trkpt lat="46.54713" lon="5.1785">
        <ele>209</ele>
        <time>2022-04-06T13:56:12Z</time>
      </trkpt>
      <trkpt lat="46.54735" lon="5.17775">
        <ele>209.2</ele>
        <time>2022-04-06T13:56:20Z</time>
      </trkpt>
      <trkpt lat="46.54738" lon="5.17765">
        <ele>209.2</ele>
        <time>2022-04-06T13:56:21Z</time>
      </trkpt>
      <trkpt lat="46.54759" lon="5.1769">
        <ele>209.2</ele>
        <time>2022-04-06T13:56:29Z</time>
      </trkpt>
      <trkpt lat="46.54765" lon="5.17671">
        <ele>209.2</ele>
        <time>2022-04-06T13:56:31Z</time>
      </trkpt>
      <trkpt lat="46.54773" lon="5.17641">
        <ele>208.8</ele>
        <time>2022-04-06T13:56:34Z</time>
      </trkpt>
      <trkpt lat="46.54785" lon="5.17598">
        <ele>208.4</ele>
        <time>2022-04-06T13:56:38Z</time>
      </trkpt>
      <trkpt lat="46.54792" lon="5.17575">
        <ele>207.8</ele>
        <time>2022-04-06T13:56:40Z</time>
      </trkpt>
      <trkpt lat="46.54804" lon="5.1753">
        <ele>206.4</ele>
        <time>2022-04-06T13:56:43Z</time>
      </trkpt>
      <trkpt lat="46.54804" lon="5.1753">
        <ele>206.4</ele>
        <time>2022-04-06T13:56:44Z</time>
      </trkpt>
      <trkpt lat="46.54817" lon="5.17485">
        <ele>204.8</ele>
        <time>2022-04-06T13:56:47Z</time>
      </trkpt>
      <trkpt lat="46.54828" lon="5.17458">
        <ele>203.6</ele>
        <time>2022-04-06T13:56:49Z</time>
      </trkpt>
      <trkpt lat="46.54843" lon="5.17437">
        <ele>202.6</ele>
        <time>2022-04-06T13:56:51Z</time>
      </trkpt>
      <trkpt lat="46.54853" lon="5.1743">
        <ele>201.8</ele>
        <time>2022-04-06T13:56:52Z</time>
      </trkpt>
      <trkpt lat="46.54862" lon="5.17425">
        <ele>201.2</ele>
        <time>2022-04-06T13:56:53Z</time>
      </trkpt>
      <trkpt lat="46.54882" lon="5.17417">
        <ele>199.8</ele>
        <time>2022-04-06T13:56:55Z</time>
      </trkpt>
      <trkpt lat="46.54892" lon="5.17414">
        <ele>199.2</ele>
        <time>2022-04-06T13:56:56Z</time>
      </trkpt>
      <trkpt lat="46.54901" lon="5.17411">
        <ele>198.8</ele>
        <time>2022-04-06T13:56:57Z</time>
      </trkpt>
      <trkpt lat="46.54937" lon="5.17401">
        <ele>197.8</ele>
        <time>2022-04-06T13:57:01Z</time>
      </trkpt>
      <trkpt lat="46.5496" lon="5.17393">
        <ele>197.8</ele>
        <time>2022-04-06T13:57:04Z</time>
      </trkpt>
      <trkpt lat="46.54966" lon="5.17388">
        <ele>197.8</ele>
        <time>2022-04-06T13:57:05Z</time>
      </trkpt>
      <trkpt lat="46.54971" lon="5.17382">
        <ele>197.8</ele>
        <time>2022-04-06T13:57:06Z</time>
      </trkpt>
      <trkpt lat="46.54978" lon="5.17372">
        <ele>197.8</ele>
        <time>2022-04-06T13:57:08Z</time>
      </trkpt>
      <trkpt lat="46.54981" lon="5.17366">
        <ele>197.8</ele>
        <time>2022-04-06T13:57:11Z</time>
      </trkpt>
      <trkpt lat="46.54981" lon="5.17366">
        <ele>197.8</ele>
        <time>2022-04-06T13:57:13Z</time>
      </trkpt>
      <trkpt lat="46.54981" lon="5.17362">
        <ele>197.6</ele>
        <time>2022-04-06T13:58:07Z</time>
      </trkpt>
      <trkpt lat="46.54981" lon="5.17358">
        <ele>197.6</ele>
        <time>2022-04-06T13:58:08Z</time>
      </trkpt>
      <trkpt lat="46.54983" lon="5.1734">
        <ele>197.6</ele>
        <time>2022-04-06T13:58:11Z</time>
      </trkpt>
      <trkpt lat="46.54983" lon="5.17326">
        <ele>197.6</ele>
        <time>2022-04-06T13:58:12Z</time>
      </trkpt>
      <trkpt lat="46.54979" lon="5.1726">
        <ele>196.6</ele>
        <time>2022-04-06T13:58:19Z</time>
      </trkpt>
      <trkpt lat="46.5498" lon="5.17198">
        <ele>195.8</ele>
        <time>2022-04-06T13:58:25Z</time>
      </trkpt>
      <trkpt lat="46.54985" lon="5.17159">
        <ele>195.6</ele>
        <time>2022-04-06T13:58:29Z</time>
      </trkpt>
      <trkpt lat="46.5499" lon="5.17132">
        <ele>195.4</ele>
        <time>2022-04-06T13:58:32Z</time>
      </trkpt>
      <trkpt lat="46.54996" lon="5.17091">
        <ele>195.6</ele>
        <time>2022-04-06T13:58:37Z</time>
      </trkpt>
      <trkpt lat="46.54998" lon="5.17072">
        <ele>196</ele>
        <time>2022-04-06T13:58:40Z</time>
      </trkpt>
      <trkpt lat="46.54995" lon="5.17068">
        <ele>196.2</ele>
        <time>2022-04-06T13:58:41Z</time>
      </trkpt>
      <trkpt lat="46.54988" lon="5.17068">
        <ele>196.4</ele>
        <time>2022-04-06T13:58:43Z</time>
      </trkpt>
      <trkpt lat="46.54983" lon="5.17071">
        <ele>196.6</ele>
        <time>2022-04-06T13:58:44Z</time>
      </trkpt>
      <trkpt lat="46.54972" lon="5.17079">
        <ele>196.6</ele>
        <time>2022-04-06T13:58:46Z</time>
      </trkpt>
      <trkpt lat="46.54966" lon="5.17082">
        <ele>196.6</ele>
        <time>2022-04-06T13:58:47Z</time>
      </trkpt>
      <trkpt lat="46.54959" lon="5.17083">
        <ele>196.6</ele>
        <time>2022-04-06T13:58:48Z</time>
      </trkpt>
      <trkpt lat="46.54931" lon="5.17084">
        <ele>196</ele>
        <time>2022-04-06T13:58:52Z</time>
      </trkpt>
      <trkpt lat="46.54917" lon="5.17091">
        <ele>195.8</ele>
        <time>2022-04-06T13:58:54Z</time>
      </trkpt>
      <trkpt lat="46.5491" lon="5.17097">
        <ele>195.8</ele>
        <time>2022-04-06T13:58:55Z</time>
      </trkpt>
      <trkpt lat="46.54893" lon="5.17118">
        <ele>195.6</ele>
        <time>2022-04-06T13:58:58Z</time>
      </trkpt>
      <trkpt lat="46.54876" lon="5.17138">
        <ele>195.2</ele>
        <time>2022-04-06T13:59:01Z</time>
      </trkpt>
      <trkpt lat="46.54864" lon="5.17148">
        <ele>195.2</ele>
        <time>2022-04-06T13:59:03Z</time>
      </trkpt>
      <trkpt lat="46.5485" lon="5.17155">
        <ele>194.8</ele>
        <time>2022-04-06T13:59:05Z</time>
      </trkpt>
      <trkpt lat="46.54823" lon="5.17157">
        <ele>194.8</ele>
        <time>2022-04-06T13:59:09Z</time>
      </trkpt>
      <trkpt lat="46.5479" lon="5.17153">
        <ele>195.4</ele>
        <time>2022-04-06T13:59:15Z</time>
      </trkpt>
      <trkpt lat="46.54758" lon="5.17147">
        <ele>196.6</ele>
        <time>2022-04-06T13:59:21Z</time>
      </trkpt>
      <trkpt lat="46.54749" lon="5.17145">
        <ele>197.4</ele>
        <time>2022-04-06T13:59:23Z</time>
      </trkpt>
      <trkpt lat="46.54735" lon="5.17143">
        <ele>198</ele>
        <time>2022-04-06T13:59:26Z</time>
      </trkpt>
      <trkpt lat="46.54713" lon="5.17138">
        <ele>199.2</ele>
        <time>2022-04-06T13:59:31Z</time>
      </trkpt>
      <trkpt lat="46.54694" lon="5.17136">
        <ele>199.8</ele>
        <time>2022-04-06T13:59:35Z</time>
      </trkpt>
      <trkpt lat="46.54683" lon="5.17135">
        <ele>200.4</ele>
        <time>2022-04-06T13:59:37Z</time>
      </trkpt>
      <trkpt lat="46.54654" lon="5.17133">
        <ele>201.6</ele>
        <time>2022-04-06T13:59:43Z</time>
      </trkpt>
      <trkpt lat="46.54644" lon="5.17133">
        <ele>201.8</ele>
        <time>2022-04-06T13:59:45Z</time>
      </trkpt>
      <trkpt lat="46.54615" lon="5.17132">
        <ele>202.6</ele>
        <time>2022-04-06T13:59:51Z</time>
      </trkpt>
      <trkpt lat="46.54605" lon="5.17132">
        <ele>202.8</ele>
        <time>2022-04-06T13:59:53Z</time>
      </trkpt>
      <trkpt lat="46.54577" lon="5.17132">
        <ele>203.6</ele>
        <time>2022-04-06T13:59:59Z</time>
      </trkpt>
      <trkpt lat="46.54553" lon="5.17131">
        <ele>204.2</ele>
        <time>2022-04-06T14:00:04Z</time>
      </trkpt>
      <trkpt lat="46.54533" lon="5.17131">
        <ele>204.8</ele>
        <time>2022-04-06T14:00:08Z</time>
      </trkpt>
      <trkpt lat="46.54507" lon="5.17131">
        <ele>205.6</ele>
        <time>2022-04-06T14:00:13Z</time>
      </trkpt>
      <trkpt lat="46.54475" lon="5.17129">
        <ele>205.8</ele>
        <time>2022-04-06T14:00:19Z</time>
      </trkpt>
      <trkpt lat="46.54452" lon="5.1713">
        <ele>206</ele>
        <time>2022-04-06T14:00:23Z</time>
      </trkpt>
      <trkpt lat="46.54436" lon="5.1713">
        <ele>206.4</ele>
        <time>2022-04-06T14:00:26Z</time>
      </trkpt>
      <trkpt lat="46.5442" lon="5.1713">
        <ele>206.8</ele>
        <time>2022-04-06T14:00:29Z</time>
      </trkpt>
      <trkpt lat="46.54398" lon="5.17135">
        <ele>207.2</ele>
        <time>2022-04-06T14:00:33Z</time>
      </trkpt>
      <trkpt lat="46.5437" lon="5.17154">
        <ele>207.4</ele>
        <time>2022-04-06T14:00:38Z</time>
      </trkpt>
      <trkpt lat="46.54336" lon="5.17182">
        <ele>206.8</ele>
        <time>2022-04-06T14:00:43Z</time>
      </trkpt>
      <trkpt lat="46.54294" lon="5.17213">
        <ele>206.2</ele>
        <time>2022-04-06T14:00:50Z</time>
      </trkpt>
      <trkpt lat="46.54273" lon="5.17229">
        <ele>205.6</ele>
        <time>2022-04-06T14:00:53Z</time>
      </trkpt>
      <trkpt lat="46.5425" lon="5.17246">
        <ele>205</ele>
        <time>2022-04-06T14:00:56Z</time>
      </trkpt>
      <trkpt lat="46.54234" lon="5.17259">
        <ele>204.6</ele>
        <time>2022-04-06T14:00:58Z</time>
      </trkpt>
      <trkpt lat="46.54196" lon="5.17288">
        <ele>203.4</ele>
        <time>2022-04-06T14:01:03Z</time>
      </trkpt>
      <trkpt lat="46.54163" lon="5.17312">
        <ele>203.2</ele>
        <time>2022-04-06T14:01:08Z</time>
      </trkpt>
      <trkpt lat="46.54125" lon="5.17341">
        <ele>204.2</ele>
        <time>2022-04-06T14:01:15Z</time>
      </trkpt>
      <trkpt lat="46.54121" lon="5.17345">
        <ele>204.6</ele>
        <time>2022-04-06T14:01:16Z</time>
      </trkpt>
      <trkpt lat="46.54098" lon="5.17365">
        <ele>206</ele>
        <time>2022-04-06T14:01:21Z</time>
      </trkpt>
      <trkpt lat="46.54088" lon="5.17372">
        <ele>206.6</ele>
        <time>2022-04-06T14:01:23Z</time>
      </trkpt>
      <trkpt lat="46.54079" lon="5.17381">
        <ele>207</ele>
        <time>2022-04-06T14:01:25Z</time>
      </trkpt>
      <trkpt lat="46.54051" lon="5.17401">
        <ele>208</ele>
        <time>2022-04-06T14:01:30Z</time>
      </trkpt>
      <trkpt lat="46.54045" lon="5.17405">
        <ele>208</ele>
        <time>2022-04-06T14:01:31Z</time>
      </trkpt>
      <trkpt lat="46.54" lon="5.17438">
        <ele>208.6</ele>
        <time>2022-04-06T14:01:39Z</time>
      </trkpt>
      <trkpt lat="46.53947" lon="5.17478">
        <ele>208.8</ele>
        <time>2022-04-06T14:01:48Z</time>
      </trkpt>
      <trkpt lat="46.53909" lon="5.17506">
        <ele>208.8</ele>
        <time>2022-04-06T14:01:54Z</time>
      </trkpt>
      <trkpt lat="46.53866" lon="5.17533">
        <ele>208</ele>
        <time>2022-04-06T14:02:00Z</time>
      </trkpt>
      <trkpt lat="46.53823" lon="5.17546">
        <ele>207.2</ele>
        <time>2022-04-06T14:02:06Z</time>
      </trkpt>
      <trkpt lat="46.53777" lon="5.17555">
        <ele>207.6</ele>
        <time>2022-04-06T14:02:13Z</time>
      </trkpt>
      <trkpt lat="46.53728" lon="5.17566">
        <ele>208.4</ele>
        <time>2022-04-06T14:02:21Z</time>
      </trkpt>
      <trkpt lat="46.53678" lon="5.17576">
        <ele>209.2</ele>
        <time>2022-04-06T14:02:29Z</time>
      </trkpt>
      <trkpt lat="46.53644" lon="5.17584">
        <ele>209.4</ele>
        <time>2022-04-06T14:02:34Z</time>
      </trkpt>
      <trkpt lat="46.53589" lon="5.17595">
        <ele>209</ele>
        <time>2022-04-06T14:02:41Z</time>
      </trkpt>
      <trkpt lat="46.53585" lon="5.17596">
        <ele>209</ele>
        <time>2022-04-06T14:02:42Z</time>
      </trkpt>
      <trkpt lat="46.53536" lon="5.17611">
        <ele>209.2</ele>
        <time>2022-04-06T14:02:50Z</time>
      </trkpt>
      <trkpt lat="46.53493" lon="5.17642">
        <ele>209.4</ele>
        <time>2022-04-06T14:02:57Z</time>
      </trkpt>
      <trkpt lat="46.53442" lon="5.17681">
        <ele>209.4</ele>
        <time>2022-04-06T14:03:05Z</time>
      </trkpt>
      <trkpt lat="46.53429" lon="5.17691">
        <ele>209.4</ele>
        <time>2022-04-06T14:03:07Z</time>
      </trkpt>
      <trkpt lat="46.53381" lon="5.17728">
        <ele>209</ele>
        <time>2022-04-06T14:03:14Z</time>
      </trkpt>
      <trkpt lat="46.53373" lon="5.17734">
        <ele>208.8</ele>
        <time>2022-04-06T14:03:15Z</time>
      </trkpt>
      <trkpt lat="46.53329" lon="5.17757">
        <ele>208.4</ele>
        <time>2022-04-06T14:03:21Z</time>
      </trkpt>
      <trkpt lat="46.53285" lon="5.17762">
        <ele>208.2</ele>
        <time>2022-04-06T14:03:27Z</time>
      </trkpt>
      <trkpt lat="46.53238" lon="5.17761">
        <ele>208.4</ele>
        <time>2022-04-06T14:03:34Z</time>
      </trkpt>
      <trkpt lat="46.53193" lon="5.17753">
        <ele>209.4</ele>
        <time>2022-04-06T14:03:41Z</time>
      </trkpt>
      <trkpt lat="46.53135" lon="5.17741">
        <ele>209.2</ele>
        <time>2022-04-06T14:03:50Z</time>
      </trkpt>
      <trkpt lat="46.53107" lon="5.17737">
        <ele>208.2</ele>
        <time>2022-04-06T14:03:54Z</time>
      </trkpt>
      <trkpt lat="46.53085" lon="5.17733">
        <ele>207.8</ele>
        <time>2022-04-06T14:03:57Z</time>
      </trkpt>
      <trkpt lat="46.53054" lon="5.17729">
        <ele>207</ele>
        <time>2022-04-06T14:04:01Z</time>
      </trkpt>
      <trkpt lat="46.53038" lon="5.17725">
        <ele>206.8</ele>
        <time>2022-04-06T14:04:03Z</time>
      </trkpt>
      <trkpt lat="46.53014" lon="5.17719">
        <ele>205.8</ele>
        <time>2022-04-06T14:04:06Z</time>
      </trkpt>
      <trkpt lat="46.52985" lon="5.17707">
        <ele>204.8</ele>
        <time>2022-04-06T14:04:10Z</time>
      </trkpt>
      <trkpt lat="46.52944" lon="5.1769">
        <ele>203.8</ele>
        <time>2022-04-06T14:04:16Z</time>
      </trkpt>
      <trkpt lat="46.52931" lon="5.17684">
        <ele>203.4</ele>
        <time>2022-04-06T14:04:18Z</time>
      </trkpt>
      <trkpt lat="46.52879" lon="5.1766">
        <ele>203</ele>
        <time>2022-04-06T14:04:26Z</time>
      </trkpt>
      <trkpt lat="46.52866" lon="5.17655">
        <ele>202.6</ele>
        <time>2022-04-06T14:04:28Z</time>
      </trkpt>
      <trkpt lat="46.52832" lon="5.1764">
        <ele>201.6</ele>
        <time>2022-04-06T14:04:33Z</time>
      </trkpt>
      <trkpt lat="46.52825" lon="5.17635">
        <ele>201.2</ele>
        <time>2022-04-06T14:04:34Z</time>
      </trkpt>
      <trkpt lat="46.52809" lon="5.17614">
        <ele>200.8</ele>
        <time>2022-04-06T14:04:37Z</time>
      </trkpt>
      <trkpt lat="46.52804" lon="5.17606">
        <ele>200.6</ele>
        <time>2022-04-06T14:04:38Z</time>
      </trkpt>
      <trkpt lat="46.528" lon="5.17598">
        <ele>200.4</ele>
        <time>2022-04-06T14:04:39Z</time>
      </trkpt>
      <trkpt lat="46.52766" lon="5.17541">
        <ele>199.8</ele>
        <time>2022-04-06T14:04:46Z</time>
      </trkpt>
      <trkpt lat="46.52731" lon="5.17482">
        <ele>199.8</ele>
        <time>2022-04-06T14:04:54Z</time>
      </trkpt>
      <trkpt lat="46.52726" lon="5.17475">
        <ele>199.8</ele>
        <time>2022-04-06T14:04:55Z</time>
      </trkpt>
      <trkpt lat="46.52705" lon="5.17448">
        <ele>200.2</ele>
        <time>2022-04-06T14:05:00Z</time>
      </trkpt>
      <trkpt lat="46.52675" lon="5.17416">
        <ele>201.4</ele>
        <time>2022-04-06T14:05:07Z</time>
      </trkpt>
      <trkpt lat="46.52673" lon="5.17414">
        <ele>201.8</ele>
        <time>2022-04-06T14:05:08Z</time>
      </trkpt>
      <trkpt lat="46.52665" lon="5.17404">
        <ele>202.4</ele>
        <time>2022-04-06T14:05:11Z</time>
      </trkpt>
      <trkpt lat="46.52661" lon="5.17401">
        <ele>202.8</ele>
        <time>2022-04-06T14:05:12Z</time>
      </trkpt>
      <trkpt lat="46.52654" lon="5.17394">
        <ele>203</ele>
        <time>2022-04-06T14:05:14Z</time>
      </trkpt>
      <trkpt lat="46.52641" lon="5.1738">
        <ele>203.8</ele>
        <time>2022-04-06T14:05:18Z</time>
      </trkpt>
      <trkpt lat="46.52628" lon="5.17367">
        <ele>205</ele>
        <time>2022-04-06T14:05:22Z</time>
      </trkpt>
      <trkpt lat="46.52623" lon="5.1736">
        <ele>205.6</ele>
        <time>2022-04-06T14:05:24Z</time>
      </trkpt>
      <trkpt lat="46.52615" lon="5.17349">
        <ele>206.2</ele>
        <time>2022-04-06T14:05:27Z</time>
      </trkpt>
      <trkpt lat="46.52604" lon="5.17337">
        <ele>207.6</ele>
        <time>2022-04-06T14:05:31Z</time>
      </trkpt>
      <trkpt lat="46.52601" lon="5.17334">
        <ele>208</ele>
        <time>2022-04-06T14:05:32Z</time>
      </trkpt>
      <trkpt lat="46.52594" lon="5.17325">
        <ele>208.8</ele>
        <time>2022-04-06T14:05:35Z</time>
      </trkpt>
      <trkpt lat="46.52584" lon="5.17314">
        <ele>209.4</ele>
        <time>2022-04-06T14:05:38Z</time>
      </trkpt>
      <trkpt lat="46.52577" lon="5.17306">
        <ele>210.2</ele>
        <time>2022-04-06T14:05:40Z</time>
      </trkpt>
      <trkpt lat="46.5256" lon="5.17287">
        <ele>211.2</ele>
        <time>2022-04-06T14:05:45Z</time>
      </trkpt>
      <trkpt lat="46.52552" lon="5.17279">
        <ele>211.6</ele>
        <time>2022-04-06T14:05:47Z</time>
      </trkpt>
      <trkpt lat="46.52531" lon="5.17256">
        <ele>212.2</ele>
        <time>2022-04-06T14:05:53Z</time>
      </trkpt>
      <trkpt lat="46.52524" lon="5.17248">
        <ele>212.4</ele>
        <time>2022-04-06T14:05:55Z</time>
      </trkpt>
      <trkpt lat="46.52505" lon="5.17226">
        <ele>213.2</ele>
        <time>2022-04-06T14:06:00Z</time>
      </trkpt>
      <trkpt lat="46.52493" lon="5.17213">
        <ele>213.6</ele>
        <time>2022-04-06T14:06:03Z</time>
      </trkpt>
      <trkpt lat="46.52447" lon="5.17161">
        <ele>214</ele>
        <time>2022-04-06T14:06:13Z</time>
      </trkpt>
      <trkpt lat="46.52409" lon="5.17113">
        <ele>214.2</ele>
        <time>2022-04-06T14:06:23Z</time>
      </trkpt>
      <trkpt lat="46.52364" lon="5.17061">
        <ele>213.8</ele>
        <time>2022-04-06T14:06:32Z</time>
      </trkpt>
      <trkpt lat="46.5232" lon="5.17012">
        <ele>213.6</ele>
        <time>2022-04-06T14:06:40Z</time>
      </trkpt>
      <trkpt lat="46.52315" lon="5.17006">
        <ele>213.4</ele>
        <time>2022-04-06T14:06:41Z</time>
      </trkpt>
      <trkpt lat="46.52293" lon="5.16969">
        <ele>213.2</ele>
        <time>2022-04-06T14:06:46Z</time>
      </trkpt>
      <trkpt lat="46.52289" lon="5.1696">
        <ele>213.2</ele>
        <time>2022-04-06T14:06:47Z</time>
      </trkpt>
      <trkpt lat="46.52284" lon="5.16941">
        <ele>213.2</ele>
        <time>2022-04-06T14:06:49Z</time>
      </trkpt>
      <trkpt lat="46.52279" lon="5.16912">
        <ele>212.8</ele>
        <time>2022-04-06T14:06:52Z</time>
      </trkpt>
      <trkpt lat="46.52278" lon="5.16864">
        <ele>212.8</ele>
        <time>2022-04-06T14:06:57Z</time>
      </trkpt>
      <trkpt lat="46.5228" lon="5.16783">
        <ele>214</ele>
        <time>2022-04-06T14:07:06Z</time>
      </trkpt>
      <trkpt lat="46.5228" lon="5.16739">
        <ele>214.6</ele>
        <time>2022-04-06T14:07:11Z</time>
      </trkpt>
      <trkpt lat="46.5228" lon="5.16721">
        <ele>214.6</ele>
        <time>2022-04-06T14:07:12Z</time>
      </trkpt>
      <trkpt lat="46.52279" lon="5.16716">
        <ele>214.8</ele>
        <time>2022-04-06T14:07:13Z</time>
      </trkpt>
      <trkpt lat="46.52272" lon="5.16687">
        <ele>214.8</ele>
        <time>2022-04-06T14:07:17Z</time>
      </trkpt>
      <trkpt lat="46.52265" lon="5.16672">
        <ele>215</ele>
        <time>2022-04-06T14:07:19Z</time>
      </trkpt>
      <trkpt lat="46.52257" lon="5.16659">
        <ele>215</ele>
        <time>2022-04-06T14:07:21Z</time>
      </trkpt>
      <trkpt lat="46.52246" lon="5.16647">
        <ele>215</ele>
        <time>2022-04-06T14:07:23Z</time>
      </trkpt>
      <trkpt lat="46.52239" lon="5.16642">
        <ele>215.2</ele>
        <time>2022-04-06T14:07:24Z</time>
      </trkpt>
      <trkpt lat="46.52201" lon="5.16618">
        <ele>215.2</ele>
        <time>2022-04-06T14:07:30Z</time>
      </trkpt>
      <trkpt lat="46.52146" lon="5.16589">
        <ele>215.4</ele>
        <time>2022-04-06T14:07:39Z</time>
      </trkpt>
      <trkpt lat="46.5214" lon="5.16585">
        <ele>215.6</ele>
        <time>2022-04-06T14:07:40Z</time>
      </trkpt>
      <trkpt lat="46.52089" lon="5.16557">
        <ele>215.6</ele>
        <time>2022-04-06T14:07:48Z</time>
      </trkpt>
      <trkpt lat="46.52083" lon="5.16553">
        <ele>215.6</ele>
        <time>2022-04-06T14:07:49Z</time>
      </trkpt>
      <trkpt lat="46.52053" lon="5.16542">
        <ele>215.4</ele>
        <time>2022-04-06T14:07:53Z</time>
      </trkpt>
      <trkpt lat="46.52046" lon="5.16542">
        <ele>215</ele>
        <time>2022-04-06T14:07:54Z</time>
      </trkpt>
      <trkpt lat="46.52014" lon="5.16545">
        <ele>214.6</ele>
        <time>2022-04-06T14:07:58Z</time>
      </trkpt>
      <trkpt lat="46.52006" lon="5.16547">
        <ele>214.2</ele>
        <time>2022-04-06T14:07:59Z</time>
      </trkpt>
      <trkpt lat="46.51964" lon="5.16556">
        <ele>213.4</ele>
        <time>2022-04-06T14:08:04Z</time>
      </trkpt>
      <trkpt lat="46.51937" lon="5.16561">
        <ele>213</ele>
        <time>2022-04-06T14:08:07Z</time>
      </trkpt>
      <trkpt lat="46.51919" lon="5.16565">
        <ele>212.2</ele>
        <time>2022-04-06T14:08:09Z</time>
      </trkpt>
      <trkpt lat="46.51873" lon="5.16574">
        <ele>211</ele>
        <time>2022-04-06T14:08:13Z</time>
      </trkpt>
      <trkpt lat="46.51863" lon="5.16576">
        <ele>210.8</ele>
        <time>2022-04-06T14:08:14Z</time>
      </trkpt>
      <trkpt lat="46.51839" lon="5.16578">
        <ele>209.2</ele>
        <time>2022-04-06T14:08:17Z</time>
      </trkpt>
      <trkpt lat="46.51809" lon="5.16576">
        <ele>208</ele>
        <time>2022-04-06T14:08:20Z</time>
      </trkpt>
      <trkpt lat="46.51781" lon="5.16573">
        <ele>207</ele>
        <time>2022-04-06T14:08:23Z</time>
      </trkpt>
      <trkpt lat="46.51762" lon="5.16574">
        <ele>206.6</ele>
        <time>2022-04-06T14:08:25Z</time>
      </trkpt>
      <trkpt lat="46.51754" lon="5.16576">
        <ele>206.4</ele>
        <time>2022-04-06T14:08:26Z</time>
      </trkpt>
      <trkpt lat="46.51746" lon="5.1658">
        <ele>206.2</ele>
        <time>2022-04-06T14:08:27Z</time>
      </trkpt>
      <trkpt lat="46.51732" lon="5.16592">
        <ele>206.2</ele>
        <time>2022-04-06T14:08:29Z</time>
      </trkpt>
      <trkpt lat="46.51703" lon="5.16624">
        <ele>206.4</ele>
        <time>2022-04-06T14:08:34Z</time>
      </trkpt>
      <trkpt lat="46.51691" lon="5.16635">
        <ele>207</ele>
        <time>2022-04-06T14:08:36Z</time>
      </trkpt>
      <trkpt lat="46.51672" lon="5.16646">
        <ele>207.4</ele>
        <time>2022-04-06T14:08:39Z</time>
      </trkpt>
      <trkpt lat="46.51653" lon="5.16651">
        <ele>208.2</ele>
        <time>2022-04-06T14:08:42Z</time>
      </trkpt>
      <trkpt lat="46.51633" lon="5.16655">
        <ele>209</ele>
        <time>2022-04-06T14:08:45Z</time>
      </trkpt>
      <trkpt lat="46.51608" lon="5.16665">
        <ele>209.4</ele>
        <time>2022-04-06T14:08:49Z</time>
      </trkpt>
      <trkpt lat="46.51601" lon="5.16669">
        <ele>209.6</ele>
        <time>2022-04-06T14:08:50Z</time>
      </trkpt>
      <trkpt lat="46.51561" lon="5.16695">
        <ele>209.6</ele>
        <time>2022-04-06T14:08:56Z</time>
      </trkpt>
      <trkpt lat="46.51554" lon="5.16698">
        <ele>209.4</ele>
        <time>2022-04-06T14:08:57Z</time>
      </trkpt>
      <trkpt lat="46.51538" lon="5.16699">
        <ele>209.2</ele>
        <time>2022-04-06T14:08:59Z</time>
      </trkpt>
      <trkpt lat="46.51508" lon="5.16686">
        <ele>208.4</ele>
        <time>2022-04-06T14:09:03Z</time>
      </trkpt>
      <trkpt lat="46.51463" lon="5.16673">
        <ele>207.6</ele>
        <time>2022-04-06T14:09:09Z</time>
      </trkpt>
      <trkpt lat="46.51422" lon="5.1667">
        <ele>207.4</ele>
        <time>2022-04-06T14:09:15Z</time>
      </trkpt>
      <trkpt lat="46.51415" lon="5.16671">
        <ele>207.4</ele>
        <time>2022-04-06T14:09:16Z</time>
      </trkpt>
      <trkpt lat="46.51393" lon="5.16682">
        <ele>207.8</ele>
        <time>2022-04-06T14:09:19Z</time>
      </trkpt>
      <trkpt lat="46.51356" lon="5.16715">
        <ele>208</ele>
        <time>2022-04-06T14:09:25Z</time>
      </trkpt>
      <trkpt lat="46.51309" lon="5.16749">
        <ele>207.8</ele>
        <time>2022-04-06T14:09:32Z</time>
      </trkpt>
      <trkpt lat="46.51276" lon="5.16769">
        <ele>207.6</ele>
        <time>2022-04-06T14:09:37Z</time>
      </trkpt>
      <trkpt lat="46.51262" lon="5.16776">
        <ele>207.4</ele>
        <time>2022-04-06T14:09:39Z</time>
      </trkpt>
      <trkpt lat="46.51247" lon="5.16778">
        <ele>207.2</ele>
        <time>2022-04-06T14:09:41Z</time>
      </trkpt>
      <trkpt lat="46.51231" lon="5.16774">
        <ele>207</ele>
        <time>2022-04-06T14:09:43Z</time>
      </trkpt>
      <trkpt lat="46.51217" lon="5.16767">
        <ele>206.6</ele>
        <time>2022-04-06T14:09:45Z</time>
      </trkpt>
      <trkpt lat="46.51203" lon="5.16756">
        <ele>206.4</ele>
        <time>2022-04-06T14:09:47Z</time>
      </trkpt>
      <trkpt lat="46.51168" lon="5.16711">
        <ele>206</ele>
        <time>2022-04-06T14:09:53Z</time>
      </trkpt>
      <trkpt lat="46.51139" lon="5.16671">
        <ele>205.4</ele>
        <time>2022-04-06T14:09:58Z</time>
      </trkpt>
      <trkpt lat="46.51128" lon="5.16655">
        <ele>205.2</ele>
        <time>2022-04-06T14:10:00Z</time>
      </trkpt>
      <trkpt lat="46.51095" lon="5.16623">
        <ele>204.4</ele>
        <time>2022-04-06T14:10:05Z</time>
      </trkpt>
      <trkpt lat="46.51081" lon="5.16616">
        <ele>204.4</ele>
        <time>2022-04-06T14:10:07Z</time>
      </trkpt>
      <trkpt lat="46.51058" lon="5.16608">
        <ele>204.2</ele>
        <time>2022-04-06T14:10:10Z</time>
      </trkpt>
      <trkpt lat="46.51022" lon="5.16593">
        <ele>203.8</ele>
        <time>2022-04-06T14:10:15Z</time>
      </trkpt>
      <trkpt lat="46.51016" lon="5.16588">
        <ele>203.8</ele>
        <time>2022-04-06T14:10:16Z</time>
      </trkpt>
      <trkpt lat="46.50985" lon="5.1656">
        <ele>203.6</ele>
        <time>2022-04-06T14:10:21Z</time>
      </trkpt>
      <trkpt lat="46.50971" lon="5.16555">
        <ele>203.4</ele>
        <time>2022-04-06T14:10:23Z</time>
      </trkpt>
      <trkpt lat="46.50956" lon="5.16555">
        <ele>203.4</ele>
        <time>2022-04-06T14:10:25Z</time>
      </trkpt>
      <trkpt lat="46.50934" lon="5.16559">
        <ele>203.2</ele>
        <time>2022-04-06T14:10:28Z</time>
      </trkpt>
      <trkpt lat="46.50904" lon="5.16564">
        <ele>203.2</ele>
        <time>2022-04-06T14:10:32Z</time>
      </trkpt>
      <trkpt lat="46.50882" lon="5.16566">
        <ele>203</ele>
        <time>2022-04-06T14:10:35Z</time>
      </trkpt>
      <trkpt lat="46.50867" lon="5.16564">
        <ele>202.8</ele>
        <time>2022-04-06T14:10:37Z</time>
      </trkpt>
      <trkpt lat="46.50814" lon="5.16547">
        <ele>202.4</ele>
        <time>2022-04-06T14:10:44Z</time>
      </trkpt>
      <trkpt lat="46.50764" lon="5.16531">
        <ele>202.4</ele>
        <time>2022-04-06T14:10:52Z</time>
      </trkpt>
      <trkpt lat="46.50729" lon="5.16532">
        <ele>202.6</ele>
        <time>2022-04-06T14:10:57Z</time>
      </trkpt>
      <trkpt lat="46.50688" lon="5.16549">
        <ele>202.8</ele>
        <time>2022-04-06T14:11:03Z</time>
      </trkpt>
      <trkpt lat="46.5065" lon="5.16578">
        <ele>203</ele>
        <time>2022-04-06T14:11:09Z</time>
      </trkpt>
      <trkpt lat="46.50601" lon="5.1662">
        <ele>203.6</ele>
        <time>2022-04-06T14:11:17Z</time>
      </trkpt>
      <trkpt lat="46.50589" lon="5.16629">
        <ele>203.8</ele>
        <time>2022-04-06T14:11:19Z</time>
      </trkpt>
      <trkpt lat="46.50536" lon="5.16663">
        <ele>204.4</ele>
        <time>2022-04-06T14:11:27Z</time>
      </trkpt>
      <trkpt lat="46.50529" lon="5.16667">
        <ele>204.4</ele>
        <time>2022-04-06T14:11:28Z</time>
      </trkpt>
      <trkpt lat="46.50474" lon="5.167">
        <ele>204.8</ele>
        <time>2022-04-06T14:11:36Z</time>
      </trkpt>
      <trkpt lat="46.5046" lon="5.16708">
        <ele>204.4</ele>
        <time>2022-04-06T14:11:38Z</time>
      </trkpt>
      <trkpt lat="46.50444" lon="5.16713">
        <ele>204.2</ele>
        <time>2022-04-06T14:11:40Z</time>
      </trkpt>
      <trkpt lat="46.50429" lon="5.16712">
        <ele>204</ele>
        <time>2022-04-06T14:11:42Z</time>
      </trkpt>
      <trkpt lat="46.50391" lon="5.16703">
        <ele>203.4</ele>
        <time>2022-04-06T14:11:47Z</time>
      </trkpt>
      <trkpt lat="46.50376" lon="5.16698">
        <ele>202.8</ele>
        <time>2022-04-06T14:11:49Z</time>
      </trkpt>
      <trkpt lat="46.50361" lon="5.16693">
        <ele>202.4</ele>
        <time>2022-04-06T14:11:51Z</time>
      </trkpt>
      <trkpt lat="46.5034" lon="5.16682">
        <ele>202.2</ele>
        <time>2022-04-06T14:11:54Z</time>
      </trkpt>
      <trkpt lat="46.50333" lon="5.16677">
        <ele>202.2</ele>
        <time>2022-04-06T14:11:55Z</time>
      </trkpt>
      <trkpt lat="46.50305" lon="5.16643">
        <ele>202</ele>
        <time>2022-04-06T14:12:00Z</time>
      </trkpt>
      <trkpt lat="46.50292" lon="5.16631">
        <ele>202</ele>
        <time>2022-04-06T14:12:02Z</time>
      </trkpt>
      <trkpt lat="46.50278" lon="5.16624">
        <ele>202</ele>
        <time>2022-04-06T14:12:04Z</time>
      </trkpt>
      <trkpt lat="46.50264" lon="5.16622">
        <ele>202</ele>
        <time>2022-04-06T14:12:06Z</time>
      </trkpt>
      <trkpt lat="46.5025" lon="5.16623">
        <ele>202</ele>
        <time>2022-04-06T14:12:08Z</time>
      </trkpt>
      <trkpt lat="46.50196" lon="5.16626">
        <ele>202.2</ele>
        <time>2022-04-06T14:12:16Z</time>
      </trkpt>
      <trkpt lat="46.50135" lon="5.16629">
        <ele>202.6</ele>
        <time>2022-04-06T14:12:25Z</time>
      </trkpt>
      <trkpt lat="46.50089" lon="5.16626">
        <ele>203.8</ele>
        <time>2022-04-06T14:12:32Z</time>
      </trkpt>
      <trkpt lat="46.5007" lon="5.16622">
        <ele>204.4</ele>
        <time>2022-04-06T14:12:35Z</time>
      </trkpt>
      <trkpt lat="46.5004" lon="5.16614">
        <ele>204.8</ele>
        <time>2022-04-06T14:12:40Z</time>
      </trkpt>
      <trkpt lat="46.50017" lon="5.16608">
        <ele>205.2</ele>
        <time>2022-04-06T14:12:43Z</time>
      </trkpt>
      <trkpt lat="46.50005" lon="5.16603">
        <ele>206.2</ele>
        <time>2022-04-06T14:12:46Z</time>
      </trkpt>
      <trkpt lat="46.49971" lon="5.16592">
        <ele>207.4</ele>
        <time>2022-04-06T14:12:51Z</time>
      </trkpt>
      <trkpt lat="46.49928" lon="5.16579">
        <ele>208.2</ele>
        <time>2022-04-06T14:12:58Z</time>
      </trkpt>
      <trkpt lat="46.49915" lon="5.16576">
        <ele>208.4</ele>
        <time>2022-04-06T14:13:00Z</time>
      </trkpt>
      <trkpt lat="46.49878" lon="5.1657">
        <ele>208.8</ele>
        <time>2022-04-06T14:13:06Z</time>
      </trkpt>
      <trkpt lat="46.49834" lon="5.16566">
        <ele>209.2</ele>
        <time>2022-04-06T14:13:13Z</time>
      </trkpt>
      <trkpt lat="46.49828" lon="5.16565">
        <ele>209.4</ele>
        <time>2022-04-06T14:13:14Z</time>
      </trkpt>
      <trkpt lat="46.49784" lon="5.16556">
        <ele>209.6</ele>
        <time>2022-04-06T14:13:21Z</time>
      </trkpt>
      <trkpt lat="46.49725" lon="5.16547">
        <ele>210.4</ele>
        <time>2022-04-06T14:13:31Z</time>
      </trkpt>
      <trkpt lat="46.49719" lon="5.16546">
        <ele>210.6</ele>
        <time>2022-04-06T14:13:32Z</time>
      </trkpt>
      <trkpt lat="46.49687" lon="5.16549">
        <ele>211.6</ele>
        <time>2022-04-06T14:13:38Z</time>
      </trkpt>
      <trkpt lat="46.49682" lon="5.1655">
        <ele>212</ele>
        <time>2022-04-06T14:13:39Z</time>
      </trkpt>
      <trkpt lat="46.49658" lon="5.16559">
        <ele>212.8</ele>
        <time>2022-04-06T14:13:43Z</time>
      </trkpt>
      <trkpt lat="46.49641" lon="5.16566">
        <ele>213.8</ele>
        <time>2022-04-06T14:13:47Z</time>
      </trkpt>
      <trkpt lat="46.49636" lon="5.16567">
        <ele>214</ele>
        <time>2022-04-06T14:13:48Z</time>
      </trkpt>
      <trkpt lat="46.4961" lon="5.16578">
        <ele>215</ele>
        <time>2022-04-06T14:13:53Z</time>
      </trkpt>
      <trkpt lat="46.49599" lon="5.16583">
        <ele>215.4</ele>
        <time>2022-04-06T14:13:55Z</time>
      </trkpt>
      <trkpt lat="46.49583" lon="5.1659">
        <ele>216.2</ele>
        <time>2022-04-06T14:13:58Z</time>
      </trkpt>
      <trkpt lat="46.49561" lon="5.16599">
        <ele>217.2</ele>
        <time>2022-04-06T14:14:02Z</time>
      </trkpt>
      <trkpt lat="46.49537" lon="5.16608">
        <ele>217.8</ele>
        <time>2022-04-06T14:14:06Z</time>
      </trkpt>
      <trkpt lat="46.49484" lon="5.16625">
        <ele>218</ele>
        <time>2022-04-06T14:14:14Z</time>
      </trkpt>
      <trkpt lat="46.49477" lon="5.16627">
        <ele>218</ele>
        <time>2022-04-06T14:14:15Z</time>
      </trkpt>
      <trkpt lat="46.49431" lon="5.16632">
        <ele>217</ele>
        <time>2022-04-06T14:14:21Z</time>
      </trkpt>
      <trkpt lat="46.49378" lon="5.16631">
        <ele>216.4</ele>
        <time>2022-04-06T14:14:28Z</time>
      </trkpt>
      <trkpt lat="46.49324" lon="5.1663">
        <ele>216.2</ele>
        <time>2022-04-06T14:14:35Z</time>
      </trkpt>
      <trkpt lat="46.49293" lon="5.16629">
        <ele>215.6</ele>
        <time>2022-04-06T14:14:39Z</time>
      </trkpt>
      <trkpt lat="46.49238" lon="5.1663">
        <ele>215</ele>
        <time>2022-04-06T14:14:46Z</time>
      </trkpt>
      <trkpt lat="46.49222" lon="5.16633">
        <ele>214.8</ele>
        <time>2022-04-06T14:14:48Z</time>
      </trkpt>
      <trkpt lat="46.49174" lon="5.1665">
        <ele>214.2</ele>
        <time>2022-04-06T14:14:54Z</time>
      </trkpt>
      <trkpt lat="46.49116" lon="5.16672">
        <ele>214.2</ele>
        <time>2022-04-06T14:15:02Z</time>
      </trkpt>
      <trkpt lat="46.49059" lon="5.16692">
        <ele>214.2</ele>
        <time>2022-04-06T14:15:10Z</time>
      </trkpt>
      <trkpt lat="46.49034" lon="5.16701">
        <ele>214.2</ele>
        <time>2022-04-06T14:15:13Z</time>
      </trkpt>
      <trkpt lat="46.48982" lon="5.16724">
        <ele>214.6</ele>
        <time>2022-04-06T14:15:21Z</time>
      </trkpt>
      <trkpt lat="46.48961" lon="5.16734">
        <ele>214.6</ele>
        <time>2022-04-06T14:15:24Z</time>
      </trkpt>
      <trkpt lat="46.4891" lon="5.1676">
        <ele>215.2</ele>
        <time>2022-04-06T14:15:32Z</time>
      </trkpt>
      <trkpt lat="46.48904" lon="5.16762">
        <ele>215.2</ele>
        <time>2022-04-06T14:15:33Z</time>
      </trkpt>
      <trkpt lat="46.48869" lon="5.16783">
        <ele>216.4</ele>
        <time>2022-04-06T14:15:39Z</time>
      </trkpt>
      <trkpt lat="46.48864" lon="5.16786">
        <ele>216.4</ele>
        <time>2022-04-06T14:15:40Z</time>
      </trkpt>
      <trkpt lat="46.48814" lon="5.16814">
        <ele>217</ele>
        <time>2022-04-06T14:15:49Z</time>
      </trkpt>
      <trkpt lat="46.48802" lon="5.1682">
        <ele>217.4</ele>
        <time>2022-04-06T14:15:51Z</time>
      </trkpt>
      <trkpt lat="46.48756" lon="5.16831">
        <ele>217.8</ele>
        <time>2022-04-06T14:15:57Z</time>
      </trkpt>
      <trkpt lat="46.487" lon="5.16839">
        <ele>217.8</ele>
        <time>2022-04-06T14:16:05Z</time>
      </trkpt>
      <trkpt lat="46.48679" lon="5.16842">
        <ele>217.6</ele>
        <time>2022-04-06T14:16:08Z</time>
      </trkpt>
      <trkpt lat="46.4862" lon="5.16849">
        <ele>217.6</ele>
        <time>2022-04-06T14:16:16Z</time>
      </trkpt>
      <trkpt lat="46.48605" lon="5.1685">
        <ele>217.6</ele>
        <time>2022-04-06T14:16:18Z</time>
      </trkpt>
      <trkpt lat="46.4856" lon="5.16845">
        <ele>217.2</ele>
        <time>2022-04-06T14:16:24Z</time>
      </trkpt>
      <trkpt lat="46.48511" lon="5.16821">
        <ele>217</ele>
        <time>2022-04-06T14:16:31Z</time>
      </trkpt>
      <trkpt lat="46.48466" lon="5.16793">
        <ele>217.2</ele>
        <time>2022-04-06T14:16:38Z</time>
      </trkpt>
      <trkpt lat="46.48413" lon="5.16758">
        <ele>218.6</ele>
        <time>2022-04-06T14:16:47Z</time>
      </trkpt>
      <trkpt lat="46.48407" lon="5.16754">
        <ele>218.8</ele>
        <time>2022-04-06T14:16:48Z</time>
      </trkpt>
      <trkpt lat="46.48371" lon="5.16732">
        <ele>219.6</ele>
        <time>2022-04-06T14:16:54Z</time>
      </trkpt>
      <trkpt lat="46.48365" lon="5.16729">
        <ele>220</ele>
        <time>2022-04-06T14:16:55Z</time>
      </trkpt>
      <trkpt lat="46.48354" lon="5.16721">
        <ele>220.8</ele>
        <time>2022-04-06T14:16:57Z</time>
      </trkpt>
      <trkpt lat="46.48316" lon="5.16695">
        <ele>221.6</ele>
        <time>2022-04-06T14:17:04Z</time>
      </trkpt>
      <trkpt lat="46.48299" lon="5.16685">
        <ele>221.8</ele>
        <time>2022-04-06T14:17:07Z</time>
      </trkpt>
      <trkpt lat="46.48261" lon="5.16665">
        <ele>222.2</ele>
        <time>2022-04-06T14:17:14Z</time>
      </trkpt>
      <trkpt lat="46.48205" lon="5.16642">
        <ele>222.2</ele>
        <time>2022-04-06T14:17:23Z</time>
      </trkpt>
      <trkpt lat="46.48188" lon="5.16634">
        <ele>222.4</ele>
        <time>2022-04-06T14:17:26Z</time>
      </trkpt>
      <trkpt lat="46.48146" lon="5.16612">
        <ele>222.4</ele>
        <time>2022-04-06T14:17:33Z</time>
      </trkpt>
      <trkpt lat="46.48094" lon="5.16573">
        <ele>222</ele>
        <time>2022-04-06T14:17:42Z</time>
      </trkpt>
      <trkpt lat="46.48046" lon="5.1653">
        <ele>221.6</ele>
        <time>2022-04-06T14:17:50Z</time>
      </trkpt>
      <trkpt lat="46.48039" lon="5.16525">
        <ele>221.6</ele>
        <time>2022-04-06T14:17:51Z</time>
      </trkpt>
      <trkpt lat="46.47991" lon="5.16491">
        <ele>220.8</ele>
        <time>2022-04-06T14:17:58Z</time>
      </trkpt>
      <trkpt lat="46.47942" lon="5.16454">
        <ele>220.6</ele>
        <time>2022-04-06T14:18:05Z</time>
      </trkpt>
      <trkpt lat="46.47928" lon="5.16442">
        <ele>220.4</ele>
        <time>2022-04-06T14:18:07Z</time>
      </trkpt>
      <trkpt lat="46.47908" lon="5.16423">
        <ele>219.6</ele>
        <time>2022-04-06T14:18:11Z</time>
      </trkpt>
      <trkpt lat="46.47879" lon="5.16393">
        <ele>219</ele>
        <time>2022-04-06T14:18:15Z</time>
      </trkpt>
      <trkpt lat="46.47864" lon="5.16376">
        <ele>218.8</ele>
        <time>2022-04-06T14:18:17Z</time>
      </trkpt>
      <trkpt lat="46.47827" lon="5.16336">
        <ele>218.4</ele>
        <time>2022-04-06T14:18:23Z</time>
      </trkpt>
      <trkpt lat="46.47799" lon="5.16304">
        <ele>218.4</ele>
        <time>2022-04-06T14:18:28Z</time>
      </trkpt>
      <trkpt lat="46.47753" lon="5.16257">
        <ele>219</ele>
        <time>2022-04-06T14:18:36Z</time>
      </trkpt>
      <trkpt lat="46.47747" lon="5.16253">
        <ele>219.2</ele>
        <time>2022-04-06T14:18:37Z</time>
      </trkpt>
      <trkpt lat="46.47717" lon="5.16236">
        <ele>219.6</ele>
        <time>2022-04-06T14:18:42Z</time>
      </trkpt>
      <trkpt lat="46.4771" lon="5.16234">
        <ele>219.6</ele>
        <time>2022-04-06T14:18:43Z</time>
      </trkpt>
      <trkpt lat="46.47686" lon="5.16228">
        <ele>220</ele>
        <time>2022-04-06T14:18:47Z</time>
      </trkpt>
      <trkpt lat="46.47662" lon="5.16223">
        <ele>220.2</ele>
        <time>2022-04-06T14:18:51Z</time>
      </trkpt>
      <trkpt lat="46.47622" lon="5.16211">
        <ele>221</ele>
        <time>2022-04-06T14:18:58Z</time>
      </trkpt>
      <trkpt lat="46.47616" lon="5.16209">
        <ele>221</ele>
        <time>2022-04-06T14:18:59Z</time>
      </trkpt>
      <trkpt lat="46.47588" lon="5.16189">
        <ele>221.2</ele>
        <time>2022-04-06T14:19:04Z</time>
      </trkpt>
      <trkpt lat="46.47563" lon="5.1616">
        <ele>221.4</ele>
        <time>2022-04-06T14:19:09Z</time>
      </trkpt>
      <trkpt lat="46.47538" lon="5.16111">
        <ele>221.8</ele>
        <time>2022-04-06T14:19:16Z</time>
      </trkpt>
      <trkpt lat="46.4753" lon="5.16086">
        <ele>222</ele>
        <time>2022-04-06T14:19:19Z</time>
      </trkpt>
      <trkpt lat="46.47521" lon="5.16053">
        <ele>222.2</ele>
        <time>2022-04-06T14:19:23Z</time>
      </trkpt>
      <trkpt lat="46.47505" lon="5.16001">
        <ele>222.6</ele>
        <time>2022-04-06T14:19:30Z</time>
      </trkpt>
      <trkpt lat="46.47501" lon="5.15995">
        <ele>222.8</ele>
        <time>2022-04-06T14:19:31Z</time>
      </trkpt>
      <trkpt lat="46.47498" lon="5.1599">
        <ele>223</ele>
        <time>2022-04-06T14:19:32Z</time>
      </trkpt>
      <trkpt lat="46.47494" lon="5.15985">
        <ele>223.2</ele>
        <time>2022-04-06T14:19:33Z</time>
      </trkpt>
      <trkpt lat="46.47486" lon="5.15978">
        <ele>223.4</ele>
        <time>2022-04-06T14:19:35Z</time>
      </trkpt>
      <trkpt lat="46.4747" lon="5.15967">
        <ele>224</ele>
        <time>2022-04-06T14:19:40Z</time>
      </trkpt>
      <trkpt lat="46.47466" lon="5.15965">
        <ele>224.2</ele>
        <time>2022-04-06T14:19:42Z</time>
      </trkpt>
      <trkpt lat="46.47463" lon="5.15969">
        <ele>224.4</ele>
        <time>2022-04-06T14:19:44Z</time>
      </trkpt>
      <trkpt lat="46.47464" lon="5.15996">
        <ele>224.6</ele>
        <time>2022-04-06T14:19:48Z</time>
      </trkpt>
      <trkpt lat="46.47465" lon="5.16005">
        <ele>224.8</ele>
        <time>2022-04-06T14:19:49Z</time>
      </trkpt>
      <trkpt lat="46.47468" lon="5.16033">
        <ele>225</ele>
        <time>2022-04-06T14:19:52Z</time>
      </trkpt>
      <trkpt lat="46.47475" lon="5.16092">
        <ele>225.2</ele>
        <time>2022-04-06T14:19:58Z</time>
      </trkpt>
      <trkpt lat="46.47477" lon="5.16123">
        <ele>225.2</ele>
        <time>2022-04-06T14:20:01Z</time>
      </trkpt>
      <trkpt lat="46.47483" lon="5.16164">
        <ele>225.2</ele>
        <time>2022-04-06T14:20:05Z</time>
      </trkpt>
      <trkpt lat="46.4749" lon="5.16237">
        <ele>224.8</ele>
        <time>2022-04-06T14:20:12Z</time>
      </trkpt>
      <trkpt lat="46.47497" lon="5.16312">
        <ele>224.4</ele>
        <time>2022-04-06T14:20:20Z</time>
      </trkpt>
      <trkpt lat="46.47498" lon="5.16322">
        <ele>224.2</ele>
        <time>2022-04-06T14:20:21Z</time>
      </trkpt>
      <trkpt lat="46.47505" lon="5.16386">
        <ele>224.4</ele>
        <time>2022-04-06T14:20:28Z</time>
      </trkpt>
      <trkpt lat="46.47513" lon="5.16461">
        <ele>225.2</ele>
        <time>2022-04-06T14:20:36Z</time>
      </trkpt>
      <trkpt lat="46.47515" lon="5.16481">
        <ele>225.4</ele>
        <time>2022-04-06T14:20:38Z</time>
      </trkpt>
      <trkpt lat="46.47524" lon="5.16565">
        <ele>225.2</ele>
        <time>2022-04-06T14:20:46Z</time>
      </trkpt>
      <trkpt lat="46.47532" lon="5.16649">
        <ele>225</ele>
        <time>2022-04-06T14:20:54Z</time>
      </trkpt>
      <trkpt lat="46.4754" lon="5.16732">
        <ele>225.2</ele>
        <time>2022-04-06T14:21:02Z</time>
      </trkpt>
      <trkpt lat="46.47549" lon="5.16817">
        <ele>225.4</ele>
        <time>2022-04-06T14:21:10Z</time>
      </trkpt>
      <trkpt lat="46.47551" lon="5.16839">
        <ele>225.4</ele>
        <time>2022-04-06T14:21:12Z</time>
      </trkpt>
      <trkpt lat="46.47559" lon="5.16917">
        <ele>225.2</ele>
        <time>2022-04-06T14:21:20Z</time>
      </trkpt>
      <trkpt lat="46.47562" lon="5.16945">
        <ele>225</ele>
        <time>2022-04-06T14:21:22Z</time>
      </trkpt>
      <trkpt lat="46.4757" lon="5.17025">
        <ele>224.8</ele>
        <time>2022-04-06T14:21:29Z</time>
      </trkpt>
      <trkpt lat="46.47572" lon="5.17046">
        <ele>224.8</ele>
        <time>2022-04-06T14:21:31Z</time>
      </trkpt>
      <trkpt lat="46.47579" lon="5.17124">
        <ele>224.6</ele>
        <time>2022-04-06T14:21:38Z</time>
      </trkpt>
      <trkpt lat="46.47585" lon="5.17181">
        <ele>224</ele>
        <time>2022-04-06T14:21:43Z</time>
      </trkpt>
      <trkpt lat="46.4759" lon="5.17229">
        <ele>223.6</ele>
        <time>2022-04-06T14:21:47Z</time>
      </trkpt>
      <trkpt lat="46.47594" lon="5.17276">
        <ele>223</ele>
        <time>2022-04-06T14:21:51Z</time>
      </trkpt>
      <trkpt lat="46.47599" lon="5.17335">
        <ele>222.4</ele>
        <time>2022-04-06T14:21:56Z</time>
      </trkpt>
      <trkpt lat="46.47604" lon="5.17382">
        <ele>222.2</ele>
        <time>2022-04-06T14:22:00Z</time>
      </trkpt>
      <trkpt lat="46.47608" lon="5.17431">
        <ele>221.8</ele>
        <time>2022-04-06T14:22:04Z</time>
      </trkpt>
      <trkpt lat="46.47614" lon="5.17496">
        <ele>221</ele>
        <time>2022-04-06T14:22:09Z</time>
      </trkpt>
      <trkpt lat="46.47619" lon="5.17549">
        <ele>220</ele>
        <time>2022-04-06T14:22:13Z</time>
      </trkpt>
      <trkpt lat="46.47625" lon="5.17613">
        <ele>218.8</ele>
        <time>2022-04-06T14:22:18Z</time>
      </trkpt>
      <trkpt lat="46.47628" lon="5.17649">
        <ele>218.4</ele>
        <time>2022-04-06T14:22:21Z</time>
      </trkpt>
      <trkpt lat="46.47633" lon="5.17705">
        <ele>218</ele>
        <time>2022-04-06T14:22:26Z</time>
      </trkpt>
      <trkpt lat="46.47638" lon="5.17755">
        <ele>218.4</ele>
        <time>2022-04-06T14:22:31Z</time>
      </trkpt>
      <trkpt lat="46.47638" lon="5.17765">
        <ele>218.6</ele>
        <time>2022-04-06T14:22:32Z</time>
      </trkpt>
      <trkpt lat="46.47643" lon="5.17839">
        <ele>219.6</ele>
        <time>2022-04-06T14:22:40Z</time>
      </trkpt>
      <trkpt lat="46.47643" lon="5.17839">
        <ele>220</ele>
        <time>2022-04-06T14:22:41Z</time>
      </trkpt>
      <trkpt lat="46.47651" lon="5.1792">
        <ele>220.6</ele>
        <time>2022-04-06T14:22:48Z</time>
      </trkpt>
      <trkpt lat="46.47657" lon="5.17976">
        <ele>220.6</ele>
        <time>2022-04-06T14:22:53Z</time>
      </trkpt>
      <trkpt lat="46.47662" lon="5.18053">
        <ele>220</ele>
        <time>2022-04-06T14:22:59Z</time>
      </trkpt>
      <trkpt lat="46.47667" lon="5.18109">
        <ele>218.4</ele>
        <time>2022-04-06T14:23:03Z</time>
      </trkpt>
      <trkpt lat="46.4767" lon="5.18152">
        <ele>217.2</ele>
        <time>2022-04-06T14:23:06Z</time>
      </trkpt>
      <trkpt lat="46.47674" lon="5.18194">
        <ele>216</ele>
        <time>2022-04-06T14:23:09Z</time>
      </trkpt>
      <trkpt lat="46.47677" lon="5.18222">
        <ele>214.8</ele>
        <time>2022-04-06T14:23:11Z</time>
      </trkpt>
      <trkpt lat="46.47679" lon="5.1825">
        <ele>213.6</ele>
        <time>2022-04-06T14:23:13Z</time>
      </trkpt>
      <trkpt lat="46.47684" lon="5.18306">
        <ele>212.4</ele>
        <time>2022-04-06T14:23:17Z</time>
      </trkpt>
      <trkpt lat="46.47688" lon="5.18348">
        <ele>211.2</ele>
        <time>2022-04-06T14:23:20Z</time>
      </trkpt>
      <trkpt lat="46.47695" lon="5.18432">
        <ele>210.2</ele>
        <time>2022-04-06T14:23:26Z</time>
      </trkpt>
      <trkpt lat="46.47702" lon="5.18511">
        <ele>209.4</ele>
        <time>2022-04-06T14:23:32Z</time>
      </trkpt>
      <trkpt lat="46.47703" lon="5.18524">
        <ele>209.2</ele>
        <time>2022-04-06T14:23:33Z</time>
      </trkpt>
      <trkpt lat="46.47706" lon="5.18549">
        <ele>209</ele>
        <time>2022-04-06T14:23:35Z</time>
      </trkpt>
      <trkpt lat="46.47713" lon="5.18637">
        <ele>208.4</ele>
        <time>2022-04-06T14:23:42Z</time>
      </trkpt>
      <trkpt lat="46.47716" lon="5.18666">
        <ele>208.4</ele>
        <time>2022-04-06T14:23:45Z</time>
      </trkpt>
      <trkpt lat="46.47724" lon="5.18753">
        <ele>208.6</ele>
        <time>2022-04-06T14:23:52Z</time>
      </trkpt>
      <trkpt lat="46.47728" lon="5.18798">
        <ele>208.8</ele>
        <time>2022-04-06T14:23:56Z</time>
      </trkpt>
      <trkpt lat="46.47735" lon="5.18883">
        <ele>208.8</ele>
        <time>2022-04-06T14:24:04Z</time>
      </trkpt>
      <trkpt lat="46.47735" lon="5.18893">
        <ele>208.8</ele>
        <time>2022-04-06T14:24:05Z</time>
      </trkpt>
      <trkpt lat="46.47739" lon="5.18938">
        <ele>209.4</ele>
        <time>2022-04-06T14:24:10Z</time>
      </trkpt>
      <trkpt lat="46.47742" lon="5.18964">
        <ele>210.2</ele>
        <time>2022-04-06T14:24:13Z</time>
      </trkpt>
      <trkpt lat="46.47745" lon="5.18997">
        <ele>210.6</ele>
        <time>2022-04-06T14:24:17Z</time>
      </trkpt>
      <trkpt lat="46.47747" lon="5.19021">
        <ele>211.2</ele>
        <time>2022-04-06T14:24:20Z</time>
      </trkpt>
      <trkpt lat="46.4775" lon="5.19051">
        <ele>212.2</ele>
        <time>2022-04-06T14:24:24Z</time>
      </trkpt>
      <trkpt lat="46.47751" lon="5.19075">
        <ele>212.8</ele>
        <time>2022-04-06T14:24:27Z</time>
      </trkpt>
      <trkpt lat="46.47752" lon="5.19091">
        <ele>213.2</ele>
        <time>2022-04-06T14:24:29Z</time>
      </trkpt>
      <trkpt lat="46.47752" lon="5.19099">
        <ele>213.4</ele>
        <time>2022-04-06T14:24:30Z</time>
      </trkpt>
      <trkpt lat="46.47756" lon="5.1914">
        <ele>214.6</ele>
        <time>2022-04-06T14:24:35Z</time>
      </trkpt>
      <trkpt lat="46.47757" lon="5.19163">
        <ele>215.2</ele>
        <time>2022-04-06T14:24:38Z</time>
      </trkpt>
      <trkpt lat="46.47759" lon="5.19179">
        <ele>215.6</ele>
        <time>2022-04-06T14:24:40Z</time>
      </trkpt>
      <trkpt lat="46.47764" lon="5.19218">
        <ele>216.6</ele>
        <time>2022-04-06T14:24:45Z</time>
      </trkpt>
      <trkpt lat="46.47767" lon="5.1924">
        <ele>217.2</ele>
        <time>2022-04-06T14:24:48Z</time>
      </trkpt>
      <trkpt lat="46.47769" lon="5.19262">
        <ele>218</ele>
        <time>2022-04-06T14:24:51Z</time>
      </trkpt>
      <trkpt lat="46.47772" lon="5.19291">
        <ele>219</ele>
        <time>2022-04-06T14:24:55Z</time>
      </trkpt>
      <trkpt lat="46.47773" lon="5.19299">
        <ele>219.2</ele>
        <time>2022-04-06T14:24:56Z</time>
      </trkpt>
      <trkpt lat="46.47774" lon="5.19307">
        <ele>219.4</ele>
        <time>2022-04-06T14:24:57Z</time>
      </trkpt>
      <trkpt lat="46.47777" lon="5.19337">
        <ele>220</ele>
        <time>2022-04-06T14:25:01Z</time>
      </trkpt>
      <trkpt lat="46.4778" lon="5.19368">
        <ele>221</ele>
        <time>2022-04-06T14:25:05Z</time>
      </trkpt>
      <trkpt lat="46.4778" lon="5.19375">
        <ele>221.2</ele>
        <time>2022-04-06T14:25:06Z</time>
      </trkpt>
      <trkpt lat="46.47786" lon="5.19437">
        <ele>222</ele>
        <time>2022-04-06T14:25:14Z</time>
      </trkpt>
      <trkpt lat="46.47787" lon="5.19453">
        <ele>222.2</ele>
        <time>2022-04-06T14:25:16Z</time>
      </trkpt>
      <trkpt lat="46.47792" lon="5.19514">
        <ele>222.6</ele>
        <time>2022-04-06T14:25:23Z</time>
      </trkpt>
      <trkpt lat="46.47799" lon="5.19599">
        <ele>222.4</ele>
        <time>2022-04-06T14:25:32Z</time>
      </trkpt>
      <trkpt lat="46.47807" lon="5.19685">
        <ele>222</ele>
        <time>2022-04-06T14:25:40Z</time>
      </trkpt>
      <trkpt lat="46.47814" lon="5.19769">
        <ele>221.4</ele>
        <time>2022-04-06T14:25:48Z</time>
      </trkpt>
      <trkpt lat="46.47822" lon="5.19855">
        <ele>221.2</ele>
        <time>2022-04-06T14:25:56Z</time>
      </trkpt>
      <trkpt lat="46.47825" lon="5.19888">
        <ele>221.2</ele>
        <time>2022-04-06T14:25:59Z</time>
      </trkpt>
      <trkpt lat="46.47833" lon="5.19974">
        <ele>221.2</ele>
        <time>2022-04-06T14:26:07Z</time>
      </trkpt>
      <trkpt lat="46.47839" lon="5.20034">
        <ele>221</ele>
        <time>2022-04-06T14:26:13Z</time>
      </trkpt>
      <trkpt lat="46.47847" lon="5.20117">
        <ele>221.4</ele>
        <time>2022-04-06T14:26:21Z</time>
      </trkpt>
      <trkpt lat="46.47848" lon="5.20128">
        <ele>221.4</ele>
        <time>2022-04-06T14:26:22Z</time>
      </trkpt>
      <trkpt lat="46.47856" lon="5.20199">
        <ele>220.8</ele>
        <time>2022-04-06T14:26:28Z</time>
      </trkpt>
      <trkpt lat="46.47862" lon="5.20251">
        <ele>220.2</ele>
        <time>2022-04-06T14:26:32Z</time>
      </trkpt>
      <trkpt lat="46.47867" lon="5.20301">
        <ele>219.6</ele>
        <time>2022-04-06T14:26:36Z</time>
      </trkpt>
      <trkpt lat="46.47869" lon="5.20313">
        <ele>219.4</ele>
        <time>2022-04-06T14:26:37Z</time>
      </trkpt>
      <trkpt lat="46.47876" lon="5.20376">
        <ele>219</ele>
        <time>2022-04-06T14:26:43Z</time>
      </trkpt>
      <trkpt lat="46.47884" lon="5.20451">
        <ele>219.4</ele>
        <time>2022-04-06T14:26:50Z</time>
      </trkpt>
      <trkpt lat="46.47893" lon="5.20533">
        <ele>219.4</ele>
        <time>2022-04-06T14:26:58Z</time>
      </trkpt>
      <trkpt lat="46.47895" lon="5.20555">
        <ele>219.4</ele>
        <time>2022-04-06T14:27:00Z</time>
      </trkpt>
      <trkpt lat="46.47901" lon="5.20627">
        <ele>218</ele>
        <time>2022-04-06T14:27:06Z</time>
      </trkpt>
      <trkpt lat="46.47903" lon="5.20666">
        <ele>217</ele>
        <time>2022-04-06T14:27:09Z</time>
      </trkpt>
      <trkpt lat="46.47905" lon="5.20708">
        <ele>215.8</ele>
        <time>2022-04-06T14:27:12Z</time>
      </trkpt>
      <trkpt lat="46.47909" lon="5.20751">
        <ele>214.8</ele>
        <time>2022-04-06T14:27:15Z</time>
      </trkpt>
      <trkpt lat="46.47912" lon="5.20794">
        <ele>213.6</ele>
        <time>2022-04-06T14:27:18Z</time>
      </trkpt>
      <trkpt lat="46.47914" lon="5.20824">
        <ele>212.8</ele>
        <time>2022-04-06T14:27:20Z</time>
      </trkpt>
      <trkpt lat="46.47916" lon="5.20838">
        <ele>211.6</ele>
        <time>2022-04-06T14:27:21Z</time>
      </trkpt>
      <trkpt lat="46.47916" lon="5.20882">
        <ele>210.6</ele>
        <time>2022-04-06T14:27:24Z</time>
      </trkpt>
      <trkpt lat="46.47915" lon="5.20897">
        <ele>210</ele>
        <time>2022-04-06T14:27:25Z</time>
      </trkpt>
      <trkpt lat="46.47912" lon="5.20924">
        <ele>209.2</ele>
        <time>2022-04-06T14:27:27Z</time>
      </trkpt>
      <trkpt lat="46.47907" lon="5.2095">
        <ele>208.6</ele>
        <time>2022-04-06T14:27:29Z</time>
      </trkpt>
      <trkpt lat="46.47901" lon="5.20974">
        <ele>208.2</ele>
        <time>2022-04-06T14:27:31Z</time>
      </trkpt>
      <trkpt lat="46.47892" lon="5.21018">
        <ele>208</ele>
        <time>2022-04-06T14:27:35Z</time>
      </trkpt>
      <trkpt lat="46.4788" lon="5.21074">
        <ele>208.6</ele>
        <time>2022-04-06T14:27:41Z</time>
      </trkpt>
      <trkpt lat="46.47875" lon="5.21096">
        <ele>209.4</ele>
        <time>2022-04-06T14:27:44Z</time>
      </trkpt>
      <trkpt lat="46.47869" lon="5.21124">
        <ele>210.2</ele>
        <time>2022-04-06T14:27:47Z</time>
      </trkpt>
      <trkpt lat="46.47868" lon="5.21132">
        <ele>210.4</ele>
        <time>2022-04-06T14:27:48Z</time>
      </trkpt>
      <trkpt lat="46.4786" lon="5.21172">
        <ele>211.6</ele>
        <time>2022-04-06T14:27:53Z</time>
      </trkpt>
      <trkpt lat="46.47854" lon="5.21195">
        <ele>212.6</ele>
        <time>2022-04-06T14:27:56Z</time>
      </trkpt>
      <trkpt lat="46.47853" lon="5.21203">
        <ele>212.8</ele>
        <time>2022-04-06T14:27:57Z</time>
      </trkpt>
      <trkpt lat="46.47846" lon="5.21232">
        <ele>214</ele>
        <time>2022-04-06T14:28:01Z</time>
      </trkpt>
      <trkpt lat="46.47837" lon="5.21269">
        <ele>214.8</ele>
        <time>2022-04-06T14:28:06Z</time>
      </trkpt>
      <trkpt lat="46.47835" lon="5.21276">
        <ele>215</ele>
        <time>2022-04-06T14:28:07Z</time>
      </trkpt>
      <trkpt lat="46.47825" lon="5.21315">
        <ele>216.2</ele>
        <time>2022-04-06T14:28:12Z</time>
      </trkpt>
      <trkpt lat="46.47823" lon="5.21322">
        <ele>216.6</ele>
        <time>2022-04-06T14:28:13Z</time>
      </trkpt>
      <trkpt lat="46.47802" lon="5.21392">
        <ele>217</ele>
        <time>2022-04-06T14:28:21Z</time>
      </trkpt>
      <trkpt lat="46.47779" lon="5.21473">
        <ele>216.2</ele>
        <time>2022-04-06T14:28:29Z</time>
      </trkpt>
      <trkpt lat="46.47757" lon="5.21545">
        <ele>215.4</ele>
        <time>2022-04-06T14:28:36Z</time>
      </trkpt>
      <trkpt lat="46.47754" lon="5.21554">
        <ele>215.2</ele>
        <time>2022-04-06T14:28:37Z</time>
      </trkpt>
      <trkpt lat="46.47738" lon="5.21609">
        <ele>216.2</ele>
        <time>2022-04-06T14:28:44Z</time>
      </trkpt>
      <trkpt lat="46.47721" lon="5.21665">
        <ele>217.6</ele>
        <time>2022-04-06T14:28:51Z</time>
      </trkpt>
      <trkpt lat="46.47719" lon="5.21673">
        <ele>217.8</ele>
        <time>2022-04-06T14:28:52Z</time>
      </trkpt>
      <trkpt lat="46.47713" lon="5.21703">
        <ele>218.6</ele>
        <time>2022-04-06T14:28:56Z</time>
      </trkpt>
      <trkpt lat="46.47713" lon="5.2172">
        <ele>219.2</ele>
        <time>2022-04-06T14:28:58Z</time>
      </trkpt>
      <trkpt lat="46.47718" lon="5.21777">
        <ele>219.6</ele>
        <time>2022-04-06T14:29:04Z</time>
      </trkpt>
      <trkpt lat="46.47724" lon="5.21855">
        <ele>219.2</ele>
        <time>2022-04-06T14:29:11Z</time>
      </trkpt>
      <trkpt lat="46.47731" lon="5.21936">
        <ele>218.4</ele>
        <time>2022-04-06T14:29:18Z</time>
      </trkpt>
      <trkpt lat="46.47732" lon="5.21947">
        <ele>218.2</ele>
        <time>2022-04-06T14:29:19Z</time>
      </trkpt>
      <trkpt lat="46.47739" lon="5.22031">
        <ele>218</ele>
        <time>2022-04-06T14:29:27Z</time>
      </trkpt>
      <trkpt lat="46.47745" lon="5.22109">
        <ele>218.4</ele>
        <time>2022-04-06T14:29:35Z</time>
      </trkpt>
      <trkpt lat="46.47746" lon="5.22119">
        <ele>218.6</ele>
        <time>2022-04-06T14:29:36Z</time>
      </trkpt>
      <trkpt lat="46.47753" lon="5.222">
        <ele>218.8</ele>
        <time>2022-04-06T14:29:45Z</time>
      </trkpt>
      <trkpt lat="46.47759" lon="5.22275">
        <ele>219.8</ele>
        <time>2022-04-06T14:29:53Z</time>
      </trkpt>
      <trkpt lat="46.47759" lon="5.22284">
        <ele>219.8</ele>
        <time>2022-04-06T14:29:54Z</time>
      </trkpt>
      <trkpt lat="46.47766" lon="5.22345">
        <ele>220.8</ele>
        <time>2022-04-06T14:30:01Z</time>
      </trkpt>
      <trkpt lat="46.47767" lon="5.22354">
        <ele>221</ele>
        <time>2022-04-06T14:30:02Z</time>
      </trkpt>
      <trkpt lat="46.4778" lon="5.2243">
        <ele>221.8</ele>
        <time>2022-04-06T14:30:11Z</time>
      </trkpt>
      <trkpt lat="46.47782" lon="5.22439">
        <ele>222</ele>
        <time>2022-04-06T14:30:12Z</time>
      </trkpt>
      <trkpt lat="46.47795" lon="5.225">
        <ele>222.6</ele>
        <time>2022-04-06T14:30:19Z</time>
      </trkpt>
      <trkpt lat="46.47808" lon="5.22553">
        <ele>222.8</ele>
        <time>2022-04-06T14:30:25Z</time>
      </trkpt>
      <trkpt lat="46.47819" lon="5.22577">
        <ele>222.6</ele>
        <time>2022-04-06T14:30:28Z</time>
      </trkpt>
      <trkpt lat="46.47829" lon="5.22591">
        <ele>222.6</ele>
        <time>2022-04-06T14:30:30Z</time>
      </trkpt>
      <trkpt lat="46.4786" lon="5.22625">
        <ele>222</ele>
        <time>2022-04-06T14:30:35Z</time>
      </trkpt>
      <trkpt lat="46.47889" lon="5.22656">
        <ele>220</ele>
        <time>2022-04-06T14:30:39Z</time>
      </trkpt>
      <trkpt lat="46.47904" lon="5.22671">
        <ele>218.8</ele>
        <time>2022-04-06T14:30:41Z</time>
      </trkpt>
      <trkpt lat="46.47916" lon="5.22684">
        <ele>218.2</ele>
        <time>2022-04-06T14:30:43Z</time>
      </trkpt>
      <trkpt lat="46.4795" lon="5.22719">
        <ele>217.6</ele>
        <time>2022-04-06T14:30:47Z</time>
      </trkpt>
      <trkpt lat="46.47965" lon="5.22739">
        <ele>216.6</ele>
        <time>2022-04-06T14:30:49Z</time>
      </trkpt>
      <trkpt lat="46.47972" lon="5.22749">
        <ele>215.6</ele>
        <time>2022-04-06T14:30:50Z</time>
      </trkpt>
      <trkpt lat="46.47993" lon="5.22799">
        <ele>214.4</ele>
        <time>2022-04-06T14:30:54Z</time>
      </trkpt>
      <trkpt lat="46.48006" lon="5.22837">
        <ele>213</ele>
        <time>2022-04-06T14:30:57Z</time>
      </trkpt>
      <trkpt lat="46.48024" lon="5.22886">
        <ele>212</ele>
        <time>2022-04-06T14:31:01Z</time>
      </trkpt>
      <trkpt lat="46.48028" lon="5.22898">
        <ele>211.8</ele>
        <time>2022-04-06T14:31:02Z</time>
      </trkpt>
      <trkpt lat="46.4804" lon="5.22937">
        <ele>211</ele>
        <time>2022-04-06T14:31:05Z</time>
      </trkpt>
      <trkpt lat="46.48044" lon="5.22965">
        <ele>210.4</ele>
        <time>2022-04-06T14:31:07Z</time>
      </trkpt>
      <trkpt lat="46.48046" lon="5.22995">
        <ele>209.8</ele>
        <time>2022-04-06T14:31:09Z</time>
      </trkpt>
      <trkpt lat="46.48047" lon="5.23037">
        <ele>208.8</ele>
        <time>2022-04-06T14:31:12Z</time>
      </trkpt>
      <trkpt lat="46.48047" lon="5.23081">
        <ele>207.8</ele>
        <time>2022-04-06T14:31:15Z</time>
      </trkpt>
      <trkpt lat="46.48049" lon="5.2314">
        <ele>206.6</ele>
        <time>2022-04-06T14:31:19Z</time>
      </trkpt>
      <trkpt lat="46.4805" lon="5.23185">
        <ele>205.8</ele>
        <time>2022-04-06T14:31:22Z</time>
      </trkpt>
      <trkpt lat="46.4805" lon="5.232">
        <ele>205.4</ele>
        <time>2022-04-06T14:31:23Z</time>
      </trkpt>
      <trkpt lat="46.48052" lon="5.23245">
        <ele>204.4</ele>
        <time>2022-04-06T14:31:26Z</time>
      </trkpt>
      <trkpt lat="46.48053" lon="5.23288">
        <ele>203.4</ele>
        <time>2022-04-06T14:31:29Z</time>
      </trkpt>
      <trkpt lat="46.48054" lon="5.23344">
        <ele>202.6</ele>
        <time>2022-04-06T14:31:33Z</time>
      </trkpt>
      <trkpt lat="46.48054" lon="5.23358">
        <ele>202.4</ele>
        <time>2022-04-06T14:31:34Z</time>
      </trkpt>
      <trkpt lat="46.48058" lon="5.23437">
        <ele>201.8</ele>
        <time>2022-04-06T14:31:40Z</time>
      </trkpt>
      <trkpt lat="46.48058" lon="5.23476">
        <ele>201.2</ele>
        <time>2022-04-06T14:31:43Z</time>
      </trkpt>
      <trkpt lat="46.4806" lon="5.23538">
        <ele>201</ele>
        <time>2022-04-06T14:31:48Z</time>
      </trkpt>
      <trkpt lat="46.48062" lon="5.2362">
        <ele>200.8</ele>
        <time>2022-04-06T14:31:55Z</time>
      </trkpt>
      <trkpt lat="46.48063" lon="5.23631">
        <ele>200.8</ele>
        <time>2022-04-06T14:31:56Z</time>
      </trkpt>
      <trkpt lat="46.48076" lon="5.23694">
        <ele>200.8</ele>
        <time>2022-04-06T14:32:02Z</time>
      </trkpt>
      <trkpt lat="46.48094" lon="5.23739">
        <ele>201</ele>
        <time>2022-04-06T14:32:07Z</time>
      </trkpt>
      <trkpt lat="46.48126" lon="5.23788">
        <ele>201.6</ele>
        <time>2022-04-06T14:32:14Z</time>
      </trkpt>
      <trkpt lat="46.48167" lon="5.23837">
        <ele>202.2</ele>
        <time>2022-04-06T14:32:22Z</time>
      </trkpt>
      <trkpt lat="46.48175" lon="5.2385">
        <ele>202.2</ele>
        <time>2022-04-06T14:32:24Z</time>
      </trkpt>
      <trkpt lat="46.48184" lon="5.23874">
        <ele>202.2</ele>
        <time>2022-04-06T14:32:27Z</time>
      </trkpt>
      <trkpt lat="46.48186" lon="5.23883">
        <ele>202.2</ele>
        <time>2022-04-06T14:32:28Z</time>
      </trkpt>
      <trkpt lat="46.48189" lon="5.23901">
        <ele>202.2</ele>
        <time>2022-04-06T14:32:30Z</time>
      </trkpt>
      <trkpt lat="46.48189" lon="5.2391">
        <ele>202.2</ele>
        <time>2022-04-06T14:32:31Z</time>
      </trkpt>
      <trkpt lat="46.48189" lon="5.23919">
        <ele>202.2</ele>
        <time>2022-04-06T14:32:32Z</time>
      </trkpt>
      <trkpt lat="46.48187" lon="5.23936">
        <ele>202.4</ele>
        <time>2022-04-06T14:32:34Z</time>
      </trkpt>
      <trkpt lat="46.48185" lon="5.23944">
        <ele>202.6</ele>
        <time>2022-04-06T14:32:35Z</time>
      </trkpt>
      <trkpt lat="46.48171" lon="5.23987">
        <ele>203.2</ele>
        <time>2022-04-06T14:32:41Z</time>
      </trkpt>
      <trkpt lat="46.48164" lon="5.24005">
        <ele>203.8</ele>
        <time>2022-04-06T14:32:44Z</time>
      </trkpt>
      <trkpt lat="46.48154" lon="5.24031">
        <ele>204.8</ele>
        <time>2022-04-06T14:32:49Z</time>
      </trkpt>
      <trkpt lat="46.48142" lon="5.24062">
        <ele>206</ele>
        <time>2022-04-06T14:32:55Z</time>
      </trkpt>
      <trkpt lat="46.48138" lon="5.24073">
        <ele>206.4</ele>
        <time>2022-04-06T14:32:57Z</time>
      </trkpt>
      <trkpt lat="46.48134" lon="5.24083">
        <ele>207</ele>
        <time>2022-04-06T14:32:59Z</time>
      </trkpt>
      <trkpt lat="46.48124" lon="5.2411">
        <ele>208.2</ele>
        <time>2022-04-06T14:33:04Z</time>
      </trkpt>
      <trkpt lat="46.48122" lon="5.24115">
        <ele>208.4</ele>
        <time>2022-04-06T14:33:05Z</time>
      </trkpt>
      <trkpt lat="46.48113" lon="5.24136">
        <ele>209.2</ele>
        <time>2022-04-06T14:33:09Z</time>
      </trkpt>
      <trkpt lat="46.48106" lon="5.24156">
        <ele>210.2</ele>
        <time>2022-04-06T14:33:13Z</time>
      </trkpt>
      <trkpt lat="46.48104" lon="5.24161">
        <ele>210.6</ele>
        <time>2022-04-06T14:33:14Z</time>
      </trkpt>
      <trkpt lat="46.48095" lon="5.24183">
        <ele>212</ele>
        <time>2022-04-06T14:33:19Z</time>
      </trkpt>
      <trkpt lat="46.4809" lon="5.24196">
        <ele>212.6</ele>
        <time>2022-04-06T14:33:22Z</time>
      </trkpt>
      <trkpt lat="46.48085" lon="5.24208">
        <ele>213.6</ele>
        <time>2022-04-06T14:33:24Z</time>
      </trkpt>
      <trkpt lat="46.48077" lon="5.24233">
        <ele>214.6</ele>
        <time>2022-04-06T14:33:29Z</time>
      </trkpt>
      <trkpt lat="46.48075" lon="5.24238">
        <ele>214.8</ele>
        <time>2022-04-06T14:33:30Z</time>
      </trkpt>
      <trkpt lat="46.48072" lon="5.24253">
        <ele>216</ele>
        <time>2022-04-06T14:33:33Z</time>
      </trkpt>
      <trkpt lat="46.48071" lon="5.24274">
        <ele>216.8</ele>
        <time>2022-04-06T14:33:37Z</time>
      </trkpt>
      <trkpt lat="46.48072" lon="5.24284">
        <ele>217.2</ele>
        <time>2022-04-06T14:33:39Z</time>
      </trkpt>
      <trkpt lat="46.48077" lon="5.24302">
        <ele>217.8</ele>
        <time>2022-04-06T14:33:43Z</time>
      </trkpt>
      <trkpt lat="46.48079" lon="5.24306">
        <ele>218.4</ele>
        <time>2022-04-06T14:33:44Z</time>
      </trkpt>
      <trkpt lat="46.48093" lon="5.24325">
        <ele>219.4</ele>
        <time>2022-04-06T14:33:50Z</time>
      </trkpt>
      <trkpt lat="46.48107" lon="5.24345">
        <ele>221</ele>
        <time>2022-04-06T14:33:56Z</time>
      </trkpt>
      <trkpt lat="46.48108" lon="5.24349">
        <ele>221.2</ele>
        <time>2022-04-06T14:33:57Z</time>
      </trkpt>
      <trkpt lat="46.48111" lon="5.24355">
        <ele>221.6</ele>
        <time>2022-04-06T14:33:59Z</time>
      </trkpt>
      <trkpt lat="46.48116" lon="5.24353">
        <ele>222.2</ele>
        <time>2022-04-06T14:34:01Z</time>
      </trkpt>
      <trkpt lat="46.48138" lon="5.24328">
        <ele>223.2</ele>
        <time>2022-04-06T14:34:07Z</time>
      </trkpt>
      <trkpt lat="46.48166" lon="5.24296">
        <ele>224</ele>
        <time>2022-04-06T14:34:14Z</time>
      </trkpt>
      <trkpt lat="46.48177" lon="5.2428">
        <ele>224.2</ele>
        <time>2022-04-06T14:34:17Z</time>
      </trkpt>
      <trkpt lat="46.48194" lon="5.24263">
        <ele>224.6</ele>
        <time>2022-04-06T14:34:21Z</time>
      </trkpt>
      <trkpt lat="46.48203" lon="5.24258">
        <ele>224.8</ele>
        <time>2022-04-06T14:34:23Z</time>
      </trkpt>
      <trkpt lat="46.48219" lon="5.24257">
        <ele>225.2</ele>
        <time>2022-04-06T14:34:26Z</time>
      </trkpt>
      <trkpt lat="46.4823" lon="5.24258">
        <ele>225.4</ele>
        <time>2022-04-06T14:34:28Z</time>
      </trkpt>
      <trkpt lat="46.48235" lon="5.24259">
        <ele>225.4</ele>
        <time>2022-04-06T14:34:29Z</time>
      </trkpt>
      <trkpt lat="46.48252" lon="5.24264">
        <ele>225.8</ele>
        <time>2022-04-06T14:34:32Z</time>
      </trkpt>
      <trkpt lat="46.48294" lon="5.24275">
        <ele>225.4</ele>
        <time>2022-04-06T14:34:39Z</time>
      </trkpt>
      <trkpt lat="46.48301" lon="5.24278">
        <ele>225.2</ele>
        <time>2022-04-06T14:34:40Z</time>
      </trkpt>
      <trkpt lat="46.48314" lon="5.24285">
        <ele>225.2</ele>
        <time>2022-04-06T14:34:42Z</time>
      </trkpt>
      <trkpt lat="46.48316" lon="5.24287">
        <ele>225.2</ele>
        <time>2022-04-06T14:34:43Z</time>
      </trkpt>
      <trkpt lat="46.48321" lon="5.24294">
        <ele>225.2</ele>
        <time>2022-04-06T14:34:44Z</time>
      </trkpt>
      <trkpt lat="46.48339" lon="5.24319">
        <ele>225</ele>
        <time>2022-04-06T14:34:47Z</time>
      </trkpt>
      <trkpt lat="46.48344" lon="5.24326">
        <ele>224.8</ele>
        <time>2022-04-06T14:34:48Z</time>
      </trkpt>
      <trkpt lat="46.48357" lon="5.24336">
        <ele>224.4</ele>
        <time>2022-04-06T14:34:50Z</time>
      </trkpt>
      <trkpt lat="46.48365" lon="5.2434">
        <ele>224.2</ele>
        <time>2022-04-06T14:34:51Z</time>
      </trkpt>
      <trkpt lat="46.48373" lon="5.24343">
        <ele>224.2</ele>
        <time>2022-04-06T14:34:52Z</time>
      </trkpt>
      <trkpt lat="46.48398" lon="5.24354">
        <ele>223.4</ele>
        <time>2022-04-06T14:34:55Z</time>
      </trkpt>
      <trkpt lat="46.48406" lon="5.24359">
        <ele>223</ele>
        <time>2022-04-06T14:34:56Z</time>
      </trkpt>
      <trkpt lat="46.48421" lon="5.2437">
        <ele>222.6</ele>
        <time>2022-04-06T14:34:58Z</time>
      </trkpt>
      <trkpt lat="46.48435" lon="5.24384">
        <ele>222</ele>
        <time>2022-04-06T14:35:00Z</time>
      </trkpt>
      <trkpt lat="46.48461" lon="5.24414">
        <ele>221</ele>
        <time>2022-04-06T14:35:04Z</time>
      </trkpt>
      <trkpt lat="46.48467" lon="5.24421">
        <ele>221</ele>
        <time>2022-04-06T14:35:05Z</time>
      </trkpt>
      <trkpt lat="46.48501" lon="5.24463">
        <ele>220.8</ele>
        <time>2022-04-06T14:35:11Z</time>
      </trkpt>
      <trkpt lat="46.48543" lon="5.24513">
        <ele>221</ele>
        <time>2022-04-06T14:35:19Z</time>
      </trkpt>
      <trkpt lat="46.48579" lon="5.24555">
        <ele>222.2</ele>
        <time>2022-04-06T14:35:26Z</time>
      </trkpt>
      <trkpt lat="46.48585" lon="5.2456">
        <ele>222.2</ele>
        <time>2022-04-06T14:35:27Z</time>
      </trkpt>
      <trkpt lat="46.48615" lon="5.2458">
        <ele>223</ele>
        <time>2022-04-06T14:35:32Z</time>
      </trkpt>
      <trkpt lat="46.48667" lon="5.24607">
        <ele>222.8</ele>
        <time>2022-04-06T14:35:40Z</time>
      </trkpt>
      <trkpt lat="46.48694" lon="5.24621">
        <ele>222.2</ele>
        <time>2022-04-06T14:35:44Z</time>
      </trkpt>
      <trkpt lat="46.48741" lon="5.24637">
        <ele>222</ele>
        <time>2022-04-06T14:35:51Z</time>
      </trkpt>
      <trkpt lat="46.48747" lon="5.2464">
        <ele>222</ele>
        <time>2022-04-06T14:35:52Z</time>
      </trkpt>
      <trkpt lat="46.48757" lon="5.24651">
        <ele>222.2</ele>
        <time>2022-04-06T14:35:54Z</time>
      </trkpt>
      <trkpt lat="46.48767" lon="5.24664">
        <ele>222.4</ele>
        <time>2022-04-06T14:35:56Z</time>
      </trkpt>
      <trkpt lat="46.48784" lon="5.24679">
        <ele>222.6</ele>
        <time>2022-04-06T14:35:59Z</time>
      </trkpt>
      <trkpt lat="46.48807" lon="5.247">
        <ele>223</ele>
        <time>2022-04-06T14:36:03Z</time>
      </trkpt>
      <trkpt lat="46.48824" lon="5.24719">
        <ele>223</ele>
        <time>2022-04-06T14:36:06Z</time>
      </trkpt>
      <trkpt lat="46.48869" lon="5.24767">
        <ele>222.4</ele>
        <time>2022-04-06T14:36:14Z</time>
      </trkpt>
      <trkpt lat="46.48874" lon="5.24773">
        <ele>222.4</ele>
        <time>2022-04-06T14:36:15Z</time>
      </trkpt>
      <trkpt lat="46.48912" lon="5.24818">
        <ele>222.2</ele>
        <time>2022-04-06T14:36:22Z</time>
      </trkpt>
      <trkpt lat="46.4896" lon="5.24875">
        <ele>221.8</ele>
        <time>2022-04-06T14:36:30Z</time>
      </trkpt>
      <trkpt lat="46.48966" lon="5.24884">
        <ele>221.6</ele>
        <time>2022-04-06T14:36:31Z</time>
      </trkpt>
      <trkpt lat="46.48976" lon="5.24903">
        <ele>221.2</ele>
        <time>2022-04-06T14:36:33Z</time>
      </trkpt>
      <trkpt lat="46.48981" lon="5.24913">
        <ele>220.8</ele>
        <time>2022-04-06T14:36:34Z</time>
      </trkpt>
      <trkpt lat="46.48986" lon="5.24925">
        <ele>220.6</ele>
        <time>2022-04-06T14:36:35Z</time>
      </trkpt>
      <trkpt lat="46.48999" lon="5.24976">
        <ele>220</ele>
        <time>2022-04-06T14:36:39Z</time>
      </trkpt>
      <trkpt lat="46.49001" lon="5.2499">
        <ele>219.8</ele>
        <time>2022-04-06T14:36:40Z</time>
      </trkpt>
      <trkpt lat="46.49007" lon="5.25033">
        <ele>218.8</ele>
        <time>2022-04-06T14:36:43Z</time>
      </trkpt>
      <trkpt lat="46.49012" lon="5.25076">
        <ele>217.6</ele>
        <time>2022-04-06T14:36:46Z</time>
      </trkpt>
      <trkpt lat="46.49014" lon="5.25091">
        <ele>217.4</ele>
        <time>2022-04-06T14:36:47Z</time>
      </trkpt>
      <trkpt lat="46.4902" lon="5.25135">
        <ele>216.4</ele>
        <time>2022-04-06T14:36:50Z</time>
      </trkpt>
      <trkpt lat="46.49026" lon="5.25177">
        <ele>215</ele>
        <time>2022-04-06T14:36:53Z</time>
      </trkpt>
      <trkpt lat="46.49033" lon="5.25231">
        <ele>214</ele>
        <time>2022-04-06T14:36:57Z</time>
      </trkpt>
      <trkpt lat="46.49041" lon="5.2528">
        <ele>213.8</ele>
        <time>2022-04-06T14:37:01Z</time>
      </trkpt>
      <trkpt lat="46.49051" lon="5.25358">
        <ele>214</ele>
        <time>2022-04-06T14:37:08Z</time>
      </trkpt>
      <trkpt lat="46.4906" lon="5.25437">
        <ele>214.6</ele>
        <time>2022-04-06T14:37:15Z</time>
      </trkpt>
      <trkpt lat="46.49062" lon="5.25455">
        <ele>214.6</ele>
        <time>2022-04-06T14:37:16Z</time>
      </trkpt>
      <trkpt lat="46.49072" lon="5.25521">
        <ele>214.2</ele>
        <time>2022-04-06T14:37:21Z</time>
      </trkpt>
      <trkpt lat="46.49081" lon="5.25544">
        <ele>213.6</ele>
        <time>2022-04-06T14:37:23Z</time>
      </trkpt>
      <trkpt lat="46.49087" lon="5.25555">
        <ele>213.4</ele>
        <time>2022-04-06T14:37:24Z</time>
      </trkpt>
      <trkpt lat="46.49093" lon="5.25564">
        <ele>213.2</ele>
        <time>2022-04-06T14:37:25Z</time>
      </trkpt>
      <trkpt lat="46.49108" lon="5.25581">
        <ele>212.2</ele>
        <time>2022-04-06T14:37:27Z</time>
      </trkpt>
      <trkpt lat="46.49116" lon="5.25589">
        <ele>211.8</ele>
        <time>2022-04-06T14:37:28Z</time>
      </trkpt>
      <trkpt lat="46.49132" lon="5.25604">
        <ele>210.8</ele>
        <time>2022-04-06T14:37:30Z</time>
      </trkpt>
      <trkpt lat="46.49164" lon="5.25635">
        <ele>209.8</ele>
        <time>2022-04-06T14:37:34Z</time>
      </trkpt>
      <trkpt lat="46.49179" lon="5.2565">
        <ele>209.2</ele>
        <time>2022-04-06T14:37:36Z</time>
      </trkpt>
      <trkpt lat="46.49194" lon="5.25665">
        <ele>208.6</ele>
        <time>2022-04-06T14:37:38Z</time>
      </trkpt>
      <trkpt lat="46.49231" lon="5.25701">
        <ele>207.4</ele>
        <time>2022-04-06T14:37:43Z</time>
      </trkpt>
      <trkpt lat="46.49238" lon="5.25708">
        <ele>207.4</ele>
        <time>2022-04-06T14:37:44Z</time>
      </trkpt>
      <trkpt lat="46.4928" lon="5.25749">
        <ele>207</ele>
        <time>2022-04-06T14:37:50Z</time>
      </trkpt>
      <trkpt lat="46.49326" lon="5.25793">
        <ele>207</ele>
        <time>2022-04-06T14:37:57Z</time>
      </trkpt>
      <trkpt lat="46.49339" lon="5.25806">
        <ele>207.2</ele>
        <time>2022-04-06T14:37:59Z</time>
      </trkpt>
      <trkpt lat="46.49389" lon="5.25856">
        <ele>207.4</ele>
        <time>2022-04-06T14:38:07Z</time>
      </trkpt>
      <trkpt lat="46.49408" lon="5.25875">
        <ele>207.4</ele>
        <time>2022-04-06T14:38:10Z</time>
      </trkpt>
      <trkpt lat="46.49437" lon="5.25905">
        <ele>207.4</ele>
        <time>2022-04-06T14:38:15Z</time>
      </trkpt>
      <trkpt lat="46.49477" lon="5.25945">
        <ele>207.6</ele>
        <time>2022-04-06T14:38:21Z</time>
      </trkpt>
      <trkpt lat="46.49519" lon="5.25988">
        <ele>207.8</ele>
        <time>2022-04-06T14:38:28Z</time>
      </trkpt>
      <trkpt lat="46.49564" lon="5.26039">
        <ele>208.2</ele>
        <time>2022-04-06T14:38:36Z</time>
      </trkpt>
      <trkpt lat="46.49597" lon="5.26094">
        <ele>208.2</ele>
        <time>2022-04-06T14:38:43Z</time>
      </trkpt>
      <trkpt lat="46.49613" lon="5.26143">
        <ele>208.2</ele>
        <time>2022-04-06T14:38:48Z</time>
      </trkpt>
      <trkpt lat="46.49623" lon="5.26206">
        <ele>207.6</ele>
        <time>2022-04-06T14:38:54Z</time>
      </trkpt>
      <trkpt lat="46.49628" lon="5.26291">
        <ele>207.2</ele>
        <time>2022-04-06T14:39:02Z</time>
      </trkpt>
      <trkpt lat="46.4963" lon="5.26328">
        <ele>207.4</ele>
        <time>2022-04-06T14:39:06Z</time>
      </trkpt>
      <trkpt lat="46.49634" lon="5.26375">
        <ele>208.6</ele>
        <time>2022-04-06T14:39:12Z</time>
      </trkpt>
      <trkpt lat="46.49636" lon="5.26404">
        <ele>209.6</ele>
        <time>2022-04-06T14:39:16Z</time>
      </trkpt>
      <trkpt lat="46.49637" lon="5.2641">
        <ele>210</ele>
        <time>2022-04-06T14:39:17Z</time>
      </trkpt>
      <trkpt lat="46.49639" lon="5.26424">
        <ele>210.4</ele>
        <time>2022-04-06T14:39:19Z</time>
      </trkpt>
      <trkpt lat="46.49641" lon="5.26431">
        <ele>210.8</ele>
        <time>2022-04-06T14:39:20Z</time>
      </trkpt>
      <trkpt lat="46.49646" lon="5.26463">
        <ele>211.6</ele>
        <time>2022-04-06T14:39:25Z</time>
      </trkpt>
      <trkpt lat="46.49648" lon="5.2647">
        <ele>211.8</ele>
        <time>2022-04-06T14:39:26Z</time>
      </trkpt>
      <trkpt lat="46.49654" lon="5.26489">
        <ele>213</ele>
        <time>2022-04-06T14:39:29Z</time>
      </trkpt>
      <trkpt lat="46.49658" lon="5.26501">
        <ele>213.8</ele>
        <time>2022-04-06T14:39:31Z</time>
      </trkpt>
      <trkpt lat="46.49661" lon="5.26507">
        <ele>214.2</ele>
        <time>2022-04-06T14:39:32Z</time>
      </trkpt>
      <trkpt lat="46.4967" lon="5.26533">
        <ele>215.4</ele>
        <time>2022-04-06T14:39:36Z</time>
      </trkpt>
      <trkpt lat="46.49673" lon="5.26539">
        <ele>215.6</ele>
        <time>2022-04-06T14:39:37Z</time>
      </trkpt>
      <trkpt lat="46.49682" lon="5.26557">
        <ele>216.2</ele>
        <time>2022-04-06T14:39:40Z</time>
      </trkpt>
      <trkpt lat="46.49685" lon="5.26563">
        <ele>216.6</ele>
        <time>2022-04-06T14:39:41Z</time>
      </trkpt>
      <trkpt lat="46.49689" lon="5.26576">
        <ele>217.2</ele>
        <time>2022-04-06T14:39:43Z</time>
      </trkpt>
      <trkpt lat="46.49695" lon="5.26588">
        <ele>217.6</ele>
        <time>2022-04-06T14:39:45Z</time>
      </trkpt>
      <trkpt lat="46.49698" lon="5.26594">
        <ele>217.8</ele>
        <time>2022-04-06T14:39:46Z</time>
      </trkpt>
      <trkpt lat="46.49706" lon="5.26613">
        <ele>218.6</ele>
        <time>2022-04-06T14:39:49Z</time>
      </trkpt>
      <trkpt lat="46.49714" lon="5.2663">
        <ele>219.6</ele>
        <time>2022-04-06T14:39:52Z</time>
      </trkpt>
      <trkpt lat="46.49726" lon="5.26666">
        <ele>221</ele>
        <time>2022-04-06T14:39:57Z</time>
      </trkpt>
      <trkpt lat="46.49735" lon="5.26713">
        <ele>222</ele>
        <time>2022-04-06T14:40:03Z</time>
      </trkpt>
      <trkpt lat="46.49736" lon="5.2672">
        <ele>222.2</ele>
        <time>2022-04-06T14:40:04Z</time>
      </trkpt>
      <trkpt lat="46.49739" lon="5.26761">
        <ele>223</ele>
        <time>2022-04-06T14:40:09Z</time>
      </trkpt>
      <trkpt lat="46.49738" lon="5.26787">
        <ele>223.4</ele>
        <time>2022-04-06T14:40:12Z</time>
      </trkpt>
      <trkpt lat="46.49729" lon="5.26841">
        <ele>223.2</ele>
        <time>2022-04-06T14:40:18Z</time>
      </trkpt>
      <trkpt lat="46.49712" lon="5.26898">
        <ele>223</ele>
        <time>2022-04-06T14:40:24Z</time>
      </trkpt>
      <trkpt lat="46.49692" lon="5.26959">
        <ele>222.8</ele>
        <time>2022-04-06T14:40:31Z</time>
      </trkpt>
      <trkpt lat="46.49687" lon="5.26975">
        <ele>222.8</ele>
        <time>2022-04-06T14:40:33Z</time>
      </trkpt>
      <trkpt lat="46.4968" lon="5.26999">
        <ele>223.4</ele>
        <time>2022-04-06T14:40:36Z</time>
      </trkpt>
      <trkpt lat="46.4967" lon="5.27031">
        <ele>224.2</ele>
        <time>2022-04-06T14:40:40Z</time>
      </trkpt>
      <trkpt lat="46.49656" lon="5.27072">
        <ele>225.4</ele>
        <time>2022-04-06T14:40:45Z</time>
      </trkpt>
      <trkpt lat="46.49635" lon="5.27154">
        <ele>226</ele>
        <time>2022-04-06T14:40:54Z</time>
      </trkpt>
      <trkpt lat="46.49635" lon="5.27211">
        <ele>225.8</ele>
        <time>2022-04-06T14:40:59Z</time>
      </trkpt>
      <trkpt lat="46.49638" lon="5.27235">
        <ele>225.6</ele>
        <time>2022-04-06T14:41:01Z</time>
      </trkpt>
      <trkpt lat="46.49644" lon="5.2726">
        <ele>225</ele>
        <time>2022-04-06T14:41:03Z</time>
      </trkpt>
      <trkpt lat="46.49657" lon="5.27296">
        <ele>224.2</ele>
        <time>2022-04-06T14:41:06Z</time>
      </trkpt>
      <trkpt lat="46.49667" lon="5.2732">
        <ele>223.4</ele>
        <time>2022-04-06T14:41:08Z</time>
      </trkpt>
      <trkpt lat="46.49679" lon="5.27343">
        <ele>222.8</ele>
        <time>2022-04-06T14:41:10Z</time>
      </trkpt>
      <trkpt lat="46.4969" lon="5.27367">
        <ele>221.8</ele>
        <time>2022-04-06T14:41:12Z</time>
      </trkpt>
      <trkpt lat="46.49702" lon="5.27391">
        <ele>221.2</ele>
        <time>2022-04-06T14:41:14Z</time>
      </trkpt>
      <trkpt lat="46.49706" lon="5.27404">
        <ele>220</ele>
        <time>2022-04-06T14:41:15Z</time>
      </trkpt>
      <trkpt lat="46.49715" lon="5.27433">
        <ele>219</ele>
        <time>2022-04-06T14:41:17Z</time>
      </trkpt>
      <trkpt lat="46.49719" lon="5.27448">
        <ele>218.6</ele>
        <time>2022-04-06T14:41:18Z</time>
      </trkpt>
      <trkpt lat="46.49721" lon="5.27464">
        <ele>218</ele>
        <time>2022-04-06T14:41:19Z</time>
      </trkpt>
      <trkpt lat="46.49722" lon="5.2748">
        <ele>217.2</ele>
        <time>2022-04-06T14:41:20Z</time>
      </trkpt>
      <trkpt lat="46.49723" lon="5.27497">
        <ele>216.8</ele>
        <time>2022-04-06T14:41:21Z</time>
      </trkpt>
      <trkpt lat="46.49723" lon="5.27513">
        <ele>216</ele>
        <time>2022-04-06T14:41:22Z</time>
      </trkpt>
      <trkpt lat="46.49722" lon="5.27547">
        <ele>214.6</ele>
        <time>2022-04-06T14:41:24Z</time>
      </trkpt>
      <trkpt lat="46.49722" lon="5.27581">
        <ele>213.2</ele>
        <time>2022-04-06T14:41:26Z</time>
      </trkpt>
      <trkpt lat="46.49722" lon="5.27598">
        <ele>213</ele>
        <time>2022-04-06T14:41:27Z</time>
      </trkpt>
      <trkpt lat="46.49723" lon="5.27632">
        <ele>211.8</ele>
        <time>2022-04-06T14:41:29Z</time>
      </trkpt>
      <trkpt lat="46.49728" lon="5.27666">
        <ele>210.8</ele>
        <time>2022-04-06T14:41:31Z</time>
      </trkpt>
      <trkpt lat="46.4973" lon="5.27682">
        <ele>210.6</ele>
        <time>2022-04-06T14:41:32Z</time>
      </trkpt>
      <trkpt lat="46.49736" lon="5.27715">
        <ele>209.4</ele>
        <time>2022-04-06T14:41:34Z</time>
      </trkpt>
      <trkpt lat="46.49745" lon="5.27764">
        <ele>208.4</ele>
        <time>2022-04-06T14:41:37Z</time>
      </trkpt>
      <trkpt lat="46.49751" lon="5.27796">
        <ele>207.4</ele>
        <time>2022-04-06T14:41:39Z</time>
      </trkpt>
      <trkpt lat="46.49756" lon="5.27827">
        <ele>206.4</ele>
        <time>2022-04-06T14:41:41Z</time>
      </trkpt>
      <trkpt lat="46.49758" lon="5.27846">
        <ele>206</ele>
        <time>2022-04-06T14:41:42Z</time>
      </trkpt>
      <trkpt lat="46.49761" lon="5.27883">
        <ele>204.8</ele>
        <time>2022-04-06T14:41:45Z</time>
      </trkpt>
      <trkpt lat="46.49762" lon="5.27905">
        <ele>204.2</ele>
        <time>2022-04-06T14:41:46Z</time>
      </trkpt>
      <trkpt lat="46.49762" lon="5.2792">
        <ele>203.6</ele>
        <time>2022-04-06T14:41:47Z</time>
      </trkpt>
      <trkpt lat="46.49763" lon="5.28008">
        <ele>202.6</ele>
        <time>2022-04-06T14:41:53Z</time>
      </trkpt>
      <trkpt lat="46.49762" lon="5.28093">
        <ele>201.2</ele>
        <time>2022-04-06T14:41:59Z</time>
      </trkpt>
      <trkpt lat="46.49761" lon="5.28107">
        <ele>201.2</ele>
        <time>2022-04-06T14:42:00Z</time>
      </trkpt>
      <trkpt lat="46.49749" lon="5.28185">
        <ele>200.6</ele>
        <time>2022-04-06T14:42:06Z</time>
      </trkpt>
      <trkpt lat="46.49745" lon="5.2821">
        <ele>200.2</ele>
        <time>2022-04-06T14:42:08Z</time>
      </trkpt>
      <trkpt lat="46.49734" lon="5.28269">
        <ele>200.2</ele>
        <time>2022-04-06T14:42:13Z</time>
      </trkpt>
      <trkpt lat="46.49713" lon="5.28347">
        <ele>200.4</ele>
        <time>2022-04-06T14:42:20Z</time>
      </trkpt>
      <trkpt lat="46.49695" lon="5.28423">
        <ele>200.2</ele>
        <time>2022-04-06T14:42:27Z</time>
      </trkpt>
      <trkpt lat="46.49688" lon="5.28489">
        <ele>200.4</ele>
        <time>2022-04-06T14:42:33Z</time>
      </trkpt>
      <trkpt lat="46.49674" lon="5.28569">
        <ele>201</ele>
        <time>2022-04-06T14:42:41Z</time>
      </trkpt>
      <trkpt lat="46.49655" lon="5.28653">
        <ele>201.2</ele>
        <time>2022-04-06T14:42:49Z</time>
      </trkpt>
      <trkpt lat="46.49636" lon="5.28727">
        <ele>200.2</ele>
        <time>2022-04-06T14:42:56Z</time>
      </trkpt>
      <trkpt lat="46.49633" lon="5.28738">
        <ele>200.2</ele>
        <time>2022-04-06T14:42:57Z</time>
      </trkpt>
      <trkpt lat="46.49619" lon="5.28813">
        <ele>200</ele>
        <time>2022-04-06T14:43:04Z</time>
      </trkpt>
      <trkpt lat="46.49617" lon="5.28824">
        <ele>200</ele>
        <time>2022-04-06T14:43:05Z</time>
      </trkpt>
      <trkpt lat="46.49601" lon="5.28908">
        <ele>200</ele>
        <time>2022-04-06T14:43:13Z</time>
      </trkpt>
      <trkpt lat="46.49594" lon="5.28947">
        <ele>200.2</ele>
        <time>2022-04-06T14:43:17Z</time>
      </trkpt>
      <trkpt lat="46.49586" lon="5.2899">
        <ele>200.8</ele>
        <time>2022-04-06T14:43:22Z</time>
      </trkpt>
      <trkpt lat="46.49582" lon="5.29013">
        <ele>201.4</ele>
        <time>2022-04-06T14:43:25Z</time>
      </trkpt>
      <trkpt lat="46.49577" lon="5.2904">
        <ele>202.6</ele>
        <time>2022-04-06T14:43:29Z</time>
      </trkpt>
      <trkpt lat="46.49572" lon="5.29065">
        <ele>203.8</ele>
        <time>2022-04-06T14:43:33Z</time>
      </trkpt>
      <trkpt lat="46.4957" lon="5.29082">
        <ele>204.4</ele>
        <time>2022-04-06T14:43:36Z</time>
      </trkpt>
      <trkpt lat="46.49569" lon="5.29088">
        <ele>204.8</ele>
        <time>2022-04-06T14:43:37Z</time>
      </trkpt>
      <trkpt lat="46.49565" lon="5.2911">
        <ele>205.8</ele>
        <time>2022-04-06T14:43:41Z</time>
      </trkpt>
      <trkpt lat="46.49559" lon="5.29138">
        <ele>206.8</ele>
        <time>2022-04-06T14:43:46Z</time>
      </trkpt>
      <trkpt lat="46.4955" lon="5.29164">
        <ele>208</ele>
        <time>2022-04-06T14:43:51Z</time>
      </trkpt>
      <trkpt lat="46.49542" lon="5.29182">
        <ele>208.8</ele>
        <time>2022-04-06T14:43:55Z</time>
      </trkpt>
      <trkpt lat="46.4954" lon="5.29186">
        <ele>209.2</ele>
        <time>2022-04-06T14:43:56Z</time>
      </trkpt>
      <trkpt lat="46.49527" lon="5.29213">
        <ele>210.4</ele>
        <time>2022-04-06T14:44:02Z</time>
      </trkpt>
      <trkpt lat="46.49522" lon="5.29225">
        <ele>211.4</ele>
        <time>2022-04-06T14:44:05Z</time>
      </trkpt>
      <trkpt lat="46.4952" lon="5.2923">
        <ele>211.6</ele>
        <time>2022-04-06T14:44:06Z</time>
      </trkpt>
      <trkpt lat="46.49515" lon="5.29247">
        <ele>212.8</ele>
        <time>2022-04-06T14:44:10Z</time>
      </trkpt>
      <trkpt lat="46.49512" lon="5.29264">
        <ele>213.6</ele>
        <time>2022-04-06T14:44:13Z</time>
      </trkpt>
      <trkpt lat="46.49511" lon="5.2927">
        <ele>214</ele>
        <time>2022-04-06T14:44:14Z</time>
      </trkpt>
      <trkpt lat="46.49509" lon="5.29302">
        <ele>214.8</ele>
        <time>2022-04-06T14:44:20Z</time>
      </trkpt>
      <trkpt lat="46.4951" lon="5.29307">
        <ele>215</ele>
        <time>2022-04-06T14:44:21Z</time>
      </trkpt>
      <trkpt lat="46.49513" lon="5.29333">
        <ele>216.4</ele>
        <time>2022-04-06T14:44:26Z</time>
      </trkpt>
      <trkpt lat="46.49514" lon="5.29344">
        <ele>217</ele>
        <time>2022-04-06T14:44:28Z</time>
      </trkpt>
      <trkpt lat="46.49517" lon="5.29354">
        <ele>217.4</ele>
        <time>2022-04-06T14:44:30Z</time>
      </trkpt>
      <trkpt lat="46.49525" lon="5.29376">
        <ele>218.6</ele>
        <time>2022-04-06T14:44:35Z</time>
      </trkpt>
      <trkpt lat="46.49527" lon="5.29381">
        <ele>218.8</ele>
        <time>2022-04-06T14:44:36Z</time>
      </trkpt>
      <trkpt lat="46.49537" lon="5.29402">
        <ele>220</ele>
        <time>2022-04-06T14:44:41Z</time>
      </trkpt>
      <trkpt lat="46.4955" lon="5.29425">
        <ele>221</ele>
        <time>2022-04-06T14:44:46Z</time>
      </trkpt>
      <trkpt lat="46.49553" lon="5.2943">
        <ele>221.2</ele>
        <time>2022-04-06T14:44:47Z</time>
      </trkpt>
      <trkpt lat="46.4957" lon="5.29461">
        <ele>222</ele>
        <time>2022-04-06T14:44:53Z</time>
      </trkpt>
      <trkpt lat="46.49577" lon="5.29473">
        <ele>222.4</ele>
        <time>2022-04-06T14:44:55Z</time>
      </trkpt>
      <trkpt lat="46.49607" lon="5.29526">
        <ele>223</ele>
        <time>2022-04-06T14:45:03Z</time>
      </trkpt>
      <trkpt lat="46.49619" lon="5.29547">
        <ele>223.2</ele>
        <time>2022-04-06T14:45:06Z</time>
      </trkpt>
      <trkpt lat="46.49645" lon="5.29595">
        <ele>223</ele>
        <time>2022-04-06T14:45:13Z</time>
      </trkpt>
      <trkpt lat="46.49682" lon="5.29658">
        <ele>222.8</ele>
        <time>2022-04-06T14:45:21Z</time>
      </trkpt>
      <trkpt lat="46.49691" lon="5.29674">
        <ele>222.8</ele>
        <time>2022-04-06T14:45:23Z</time>
      </trkpt>
      <trkpt lat="46.4972" lon="5.29724">
        <ele>222</ele>
        <time>2022-04-06T14:45:29Z</time>
      </trkpt>
      <trkpt lat="46.49733" lon="5.29749">
        <ele>222</ele>
        <time>2022-04-06T14:45:32Z</time>
      </trkpt>
      <trkpt lat="46.49748" lon="5.29782">
        <ele>221.8</ele>
        <time>2022-04-06T14:45:36Z</time>
      </trkpt>
      <trkpt lat="46.49754" lon="5.29787">
        <ele>221.8</ele>
        <time>2022-04-06T14:45:37Z</time>
      </trkpt>
      <trkpt lat="46.4976" lon="5.2979">
        <ele>221.8</ele>
        <time>2022-04-06T14:45:38Z</time>
      </trkpt>
      <trkpt lat="46.49774" lon="5.29793">
        <ele>221.8</ele>
        <time>2022-04-06T14:45:40Z</time>
      </trkpt>
      <trkpt lat="46.49816" lon="5.29802">
        <ele>222</ele>
        <time>2022-04-06T14:45:46Z</time>
      </trkpt>
      <trkpt lat="46.49875" lon="5.29823">
        <ele>222.4</ele>
        <time>2022-04-06T14:45:54Z</time>
      </trkpt>
      <trkpt lat="46.49927" lon="5.29844">
        <ele>221.8</ele>
        <time>2022-04-06T14:46:01Z</time>
      </trkpt>
      <trkpt lat="46.49935" lon="5.29847">
        <ele>221.6</ele>
        <time>2022-04-06T14:46:02Z</time>
      </trkpt>
      <trkpt lat="46.49951" lon="5.29852">
        <ele>221</ele>
        <time>2022-04-06T14:46:04Z</time>
      </trkpt>
      <trkpt lat="46.49983" lon="5.29857">
        <ele>220.2</ele>
        <time>2022-04-06T14:46:08Z</time>
      </trkpt>
      <trkpt lat="46.49991" lon="5.29858">
        <ele>220</ele>
        <time>2022-04-06T14:46:09Z</time>
      </trkpt>
      <trkpt lat="46.49999" lon="5.29859">
        <ele>219.8</ele>
        <time>2022-04-06T14:46:10Z</time>
      </trkpt>
      <trkpt lat="46.50013" lon="5.29867">
        <ele>219.6</ele>
        <time>2022-04-06T14:46:12Z</time>
      </trkpt>
      <trkpt lat="46.50023" lon="5.29877">
        <ele>219</ele>
        <time>2022-04-06T14:46:14Z</time>
      </trkpt>
      <trkpt lat="46.50037" lon="5.29894">
        <ele>218.8</ele>
        <time>2022-04-06T14:46:16Z</time>
      </trkpt>
      <trkpt lat="46.50062" lon="5.29932">
        <ele>218.8</ele>
        <time>2022-04-06T14:46:21Z</time>
      </trkpt>
      <trkpt lat="46.50076" lon="5.29968">
        <ele>219.2</ele>
        <time>2022-04-06T14:46:25Z</time>
      </trkpt>
      <trkpt lat="46.50078" lon="5.29978">
        <ele>219.2</ele>
        <time>2022-04-06T14:46:26Z</time>
      </trkpt>
      <trkpt lat="46.50085" lon="5.30038">
        <ele>219.8</ele>
        <time>2022-04-06T14:46:32Z</time>
      </trkpt>
      <trkpt lat="46.50086" lon="5.30079">
        <ele>220</ele>
        <time>2022-04-06T14:46:36Z</time>
      </trkpt>
      <trkpt lat="46.50085" lon="5.30122">
        <ele>220</ele>
        <time>2022-04-06T14:46:40Z</time>
      </trkpt>
      <trkpt lat="46.50085" lon="5.30202">
        <ele>219.8</ele>
        <time>2022-04-06T14:46:47Z</time>
      </trkpt>
      <trkpt lat="46.50085" lon="5.30224">
        <ele>219.8</ele>
        <time>2022-04-06T14:46:49Z</time>
      </trkpt>
      <trkpt lat="46.5008" lon="5.30294">
        <ele>219</ele>
        <time>2022-04-06T14:46:55Z</time>
      </trkpt>
      <trkpt lat="46.50079" lon="5.30306">
        <ele>219</ele>
        <time>2022-04-06T14:46:56Z</time>
      </trkpt>
      <trkpt lat="46.50076" lon="5.30318">
        <ele>218.8</ele>
        <time>2022-04-06T14:46:57Z</time>
      </trkpt>
      <trkpt lat="46.50065" lon="5.30352">
        <ele>218.4</ele>
        <time>2022-04-06T14:47:00Z</time>
      </trkpt>
      <trkpt lat="46.50053" lon="5.30373">
        <ele>218</ele>
        <time>2022-04-06T14:47:02Z</time>
      </trkpt>
      <trkpt lat="46.50047" lon="5.30382">
        <ele>218</ele>
        <time>2022-04-06T14:47:03Z</time>
      </trkpt>
      <trkpt lat="46.5004" lon="5.3039">
        <ele>217.4</ele>
        <time>2022-04-06T14:47:04Z</time>
      </trkpt>
      <trkpt lat="46.50018" lon="5.3041">
        <ele>216.8</ele>
        <time>2022-04-06T14:47:07Z</time>
      </trkpt>
      <trkpt lat="46.50004" lon="5.30421">
        <ele>216.6</ele>
        <time>2022-04-06T14:47:09Z</time>
      </trkpt>
      <trkpt lat="46.49963" lon="5.30458">
        <ele>216.4</ele>
        <time>2022-04-06T14:47:16Z</time>
      </trkpt>
      <trkpt lat="46.49951" lon="5.30477">
        <ele>217</ele>
        <time>2022-04-06T14:47:19Z</time>
      </trkpt>
      <trkpt lat="46.49944" lon="5.30492">
        <ele>217.4</ele>
        <time>2022-04-06T14:47:21Z</time>
      </trkpt>
      <trkpt lat="46.49941" lon="5.305">
        <ele>217.8</ele>
        <time>2022-04-06T14:47:22Z</time>
      </trkpt>
      <trkpt lat="46.49934" lon="5.30531">
        <ele>218.4</ele>
        <time>2022-04-06T14:47:26Z</time>
      </trkpt>
      <trkpt lat="46.49931" lon="5.30556">
        <ele>219</ele>
        <time>2022-04-06T14:47:29Z</time>
      </trkpt>
      <trkpt lat="46.4993" lon="5.30589">
        <ele>220.2</ele>
        <time>2022-04-06T14:47:33Z</time>
      </trkpt>
      <trkpt lat="46.49934" lon="5.30639">
        <ele>221.2</ele>
        <time>2022-04-06T14:47:39Z</time>
      </trkpt>
      <trkpt lat="46.4994" lon="5.30671">
        <ele>222.2</ele>
        <time>2022-04-06T14:47:43Z</time>
      </trkpt>
      <trkpt lat="46.49949" lon="5.3071">
        <ele>223.4</ele>
        <time>2022-04-06T14:47:48Z</time>
      </trkpt>
      <trkpt lat="46.49951" lon="5.30718">
        <ele>223.4</ele>
        <time>2022-04-06T14:47:49Z</time>
      </trkpt>
      <trkpt lat="46.49962" lon="5.30767">
        <ele>224.2</ele>
        <time>2022-04-06T14:47:55Z</time>
      </trkpt>
      <trkpt lat="46.49965" lon="5.30785">
        <ele>224.4</ele>
        <time>2022-04-06T14:47:57Z</time>
      </trkpt>
      <trkpt lat="46.49981" lon="5.30843">
        <ele>224.4</ele>
        <time>2022-04-06T14:48:03Z</time>
      </trkpt>
      <trkpt lat="46.50003" lon="5.30904">
        <ele>224</ele>
        <time>2022-04-06T14:48:09Z</time>
      </trkpt>
      <trkpt lat="46.5002" lon="5.30951">
        <ele>223</ele>
        <time>2022-04-06T14:48:13Z</time>
      </trkpt>
      <trkpt lat="46.50034" lon="5.30989">
        <ele>222</ele>
        <time>2022-04-06T14:48:16Z</time>
      </trkpt>
      <trkpt lat="46.50038" lon="5.31002">
        <ele>221.6</ele>
        <time>2022-04-06T14:48:17Z</time>
      </trkpt>
      <trkpt lat="46.50047" lon="5.31029">
        <ele>220.4</ele>
        <time>2022-04-06T14:48:19Z</time>
      </trkpt>
      <trkpt lat="46.50059" lon="5.31066">
        <ele>219</ele>
        <time>2022-04-06T14:48:22Z</time>
      </trkpt>
      <trkpt lat="46.50076" lon="5.31115">
        <ele>218</ele>
        <time>2022-04-06T14:48:25Z</time>
      </trkpt>
      <trkpt lat="46.50086" lon="5.31145">
        <ele>216.6</ele>
        <time>2022-04-06T14:48:27Z</time>
      </trkpt>
      <trkpt lat="46.5009" lon="5.3116">
        <ele>216.2</ele>
        <time>2022-04-06T14:48:28Z</time>
      </trkpt>
      <trkpt lat="46.50095" lon="5.31174">
        <ele>215.2</ele>
        <time>2022-04-06T14:48:29Z</time>
      </trkpt>
      <trkpt lat="46.50113" lon="5.31226">
        <ele>214.2</ele>
        <time>2022-04-06T14:48:33Z</time>
      </trkpt>
      <trkpt lat="46.50137" lon="5.31295">
        <ele>214.4</ele>
        <time>2022-04-06T14:48:39Z</time>
      </trkpt>
      <trkpt lat="46.50164" lon="5.31375">
        <ele>215</ele>
        <time>2022-04-06T14:48:46Z</time>
      </trkpt>
      <trkpt lat="46.5019" lon="5.31449">
        <ele>215</ele>
        <time>2022-04-06T14:48:52Z</time>
      </trkpt>
      <trkpt lat="46.50198" lon="5.31475">
        <ele>214.4</ele>
        <time>2022-04-06T14:48:54Z</time>
      </trkpt>
      <trkpt lat="46.50218" lon="5.31527">
        <ele>213</ele>
        <time>2022-04-06T14:48:58Z</time>
      </trkpt>
      <trkpt lat="46.50224" lon="5.31539">
        <ele>212.2</ele>
        <time>2022-04-06T14:48:59Z</time>
      </trkpt>
      <trkpt lat="46.50238" lon="5.31561">
        <ele>211.4</ele>
        <time>2022-04-06T14:49:01Z</time>
      </trkpt>
      <trkpt lat="46.50254" lon="5.31581">
        <ele>210.4</ele>
        <time>2022-04-06T14:49:03Z</time>
      </trkpt>
      <trkpt lat="46.50262" lon="5.31589">
        <ele>210</ele>
        <time>2022-04-06T14:49:04Z</time>
      </trkpt>
      <trkpt lat="46.50295" lon="5.31617">
        <ele>208.8</ele>
        <time>2022-04-06T14:49:08Z</time>
      </trkpt>
      <trkpt lat="46.50342" lon="5.31652">
        <ele>207.8</ele>
        <time>2022-04-06T14:49:14Z</time>
      </trkpt>
      <trkpt lat="46.50377" lon="5.31688">
        <ele>207.8</ele>
        <time>2022-04-06T14:49:19Z</time>
      </trkpt>
      <trkpt lat="46.504" lon="5.31733">
        <ele>208</ele>
        <time>2022-04-06T14:49:24Z</time>
      </trkpt>
      <trkpt lat="46.50417" lon="5.31782">
        <ele>208.2</ele>
        <time>2022-04-06T14:49:29Z</time>
      </trkpt>
      <trkpt lat="46.50435" lon="5.31863">
        <ele>208.4</ele>
        <time>2022-04-06T14:49:37Z</time>
      </trkpt>
      <trkpt lat="46.50436" lon="5.31873">
        <ele>208.4</ele>
        <time>2022-04-06T14:49:38Z</time>
      </trkpt>
      <trkpt lat="46.50437" lon="5.31936">
        <ele>208.4</ele>
        <time>2022-04-06T14:49:44Z</time>
      </trkpt>
      <trkpt lat="46.50435" lon="5.3202">
        <ele>209</ele>
        <time>2022-04-06T14:49:52Z</time>
      </trkpt>
      <trkpt lat="46.50434" lon="5.3203">
        <ele>209</ele>
        <time>2022-04-06T14:49:53Z</time>
      </trkpt>
      <trkpt lat="46.50432" lon="5.32111">
        <ele>209.6</ele>
        <time>2022-04-06T14:50:01Z</time>
      </trkpt>
      <trkpt lat="46.50432" lon="5.32131">
        <ele>209.6</ele>
        <time>2022-04-06T14:50:03Z</time>
      </trkpt>
      <trkpt lat="46.50432" lon="5.32141">
        <ele>209.8</ele>
        <time>2022-04-06T14:50:04Z</time>
      </trkpt>
      <trkpt lat="46.5043" lon="5.32192">
        <ele>210.8</ele>
        <time>2022-04-06T14:50:09Z</time>
      </trkpt>
      <trkpt lat="46.5043" lon="5.32232">
        <ele>211.2</ele>
        <time>2022-04-06T14:50:13Z</time>
      </trkpt>
      <trkpt lat="46.50433" lon="5.32292">
        <ele>211.8</ele>
        <time>2022-04-06T14:50:19Z</time>
      </trkpt>
      <trkpt lat="46.50434" lon="5.32302">
        <ele>212</ele>
        <time>2022-04-06T14:50:20Z</time>
      </trkpt>
      <trkpt lat="46.50452" lon="5.32384">
        <ele>212.8</ele>
        <time>2022-04-06T14:50:28Z</time>
      </trkpt>
      <trkpt lat="46.50466" lon="5.32467">
        <ele>212.4</ele>
        <time>2022-04-06T14:50:36Z</time>
      </trkpt>
      <trkpt lat="46.50472" lon="5.32548">
        <ele>212.8</ele>
        <time>2022-04-06T14:50:44Z</time>
      </trkpt>
      <trkpt lat="46.50473" lon="5.32566">
        <ele>212.8</ele>
        <time>2022-04-06T14:50:46Z</time>
      </trkpt>
      <trkpt lat="46.50474" lon="5.32595">
        <ele>213.2</ele>
        <time>2022-04-06T14:50:49Z</time>
      </trkpt>
      <trkpt lat="46.50475" lon="5.32641">
        <ele>213.8</ele>
        <time>2022-04-06T14:50:54Z</time>
      </trkpt>
      <trkpt lat="46.50474" lon="5.32688">
        <ele>214.2</ele>
        <time>2022-04-06T14:50:59Z</time>
      </trkpt>
      <trkpt lat="46.50473" lon="5.32733">
        <ele>214.8</ele>
        <time>2022-04-06T14:51:04Z</time>
      </trkpt>
      <trkpt lat="46.50472" lon="5.32788">
        <ele>215.4</ele>
        <time>2022-04-06T14:51:10Z</time>
      </trkpt>
      <trkpt lat="46.50471" lon="5.32825">
        <ele>215.6</ele>
        <time>2022-04-06T14:51:14Z</time>
      </trkpt>
      <trkpt lat="46.5047" lon="5.32886">
        <ele>216.4</ele>
        <time>2022-04-06T14:51:21Z</time>
      </trkpt>
      <trkpt lat="46.5047" lon="5.32902">
        <ele>216.6</ele>
        <time>2022-04-06T14:51:23Z</time>
      </trkpt>
      <trkpt lat="46.5047" lon="5.32925">
        <ele>217.4</ele>
        <time>2022-04-06T14:51:26Z</time>
      </trkpt>
      <trkpt lat="46.50471" lon="5.32956">
        <ele>218</ele>
        <time>2022-04-06T14:51:30Z</time>
      </trkpt>
      <trkpt lat="46.50471" lon="5.32964">
        <ele>218.6</ele>
        <time>2022-04-06T14:51:31Z</time>
      </trkpt>
      <trkpt lat="46.50469" lon="5.32994">
        <ele>219.6</ele>
        <time>2022-04-06T14:51:35Z</time>
      </trkpt>
      <trkpt lat="46.50468" lon="5.33025">
        <ele>220.4</ele>
        <time>2022-04-06T14:51:39Z</time>
      </trkpt>
      <trkpt lat="46.50467" lon="5.33032">
        <ele>220.6</ele>
        <time>2022-04-06T14:51:40Z</time>
      </trkpt>
      <trkpt lat="46.50467" lon="5.33048">
        <ele>221</ele>
        <time>2022-04-06T14:51:42Z</time>
      </trkpt>
      <trkpt lat="46.50467" lon="5.33065">
        <ele>221.8</ele>
        <time>2022-04-06T14:51:45Z</time>
      </trkpt>
      <trkpt lat="46.50466" lon="5.33082">
        <ele>222.6</ele>
        <time>2022-04-06T14:51:47Z</time>
      </trkpt>
      <trkpt lat="46.50466" lon="5.33094">
        <ele>223</ele>
        <time>2022-04-06T14:51:49Z</time>
      </trkpt>
      <trkpt lat="46.50465" lon="5.33114">
        <ele>224</ele>
        <time>2022-04-06T14:51:52Z</time>
      </trkpt>
      <trkpt lat="46.50464" lon="5.3312">
        <ele>224.4</ele>
        <time>2022-04-06T14:51:53Z</time>
      </trkpt>
      <trkpt lat="46.50463" lon="5.33144">
        <ele>225.4</ele>
        <time>2022-04-06T14:51:57Z</time>
      </trkpt>
      <trkpt lat="46.50463" lon="5.33151">
        <ele>225.6</ele>
        <time>2022-04-06T14:51:58Z</time>
      </trkpt>
      <trkpt lat="46.50462" lon="5.3318">
        <ele>226.6</ele>
        <time>2022-04-06T14:52:02Z</time>
      </trkpt>
      <trkpt lat="46.50462" lon="5.33188">
        <ele>227.2</ele>
        <time>2022-04-06T14:52:03Z</time>
      </trkpt>
      <trkpt lat="46.50462" lon="5.33197">
        <ele>227.4</ele>
        <time>2022-04-06T14:52:04Z</time>
      </trkpt>
      <trkpt lat="46.50463" lon="5.33206">
        <ele>227.6</ele>
        <time>2022-04-06T14:52:05Z</time>
      </trkpt>
      <trkpt lat="46.50462" lon="5.33268">
        <ele>228.6</ele>
        <time>2022-04-06T14:52:12Z</time>
      </trkpt>
      <trkpt lat="46.50462" lon="5.33287">
        <ele>228.6</ele>
        <time>2022-04-06T14:52:14Z</time>
      </trkpt>
      <trkpt lat="46.50461" lon="5.33328">
        <ele>228.6</ele>
        <time>2022-04-06T14:52:18Z</time>
      </trkpt>
      <trkpt lat="46.50456" lon="5.3338">
        <ele>228.4</ele>
        <time>2022-04-06T14:52:23Z</time>
      </trkpt>
      <trkpt lat="46.50451" lon="5.334">
        <ele>228.4</ele>
        <time>2022-04-06T14:52:25Z</time>
      </trkpt>
      <trkpt lat="46.50444" lon="5.33418">
        <ele>228.4</ele>
        <time>2022-04-06T14:52:27Z</time>
      </trkpt>
      <trkpt lat="46.50439" lon="5.33426">
        <ele>228.4</ele>
        <time>2022-04-06T14:52:28Z</time>
      </trkpt>
      <trkpt lat="46.50414" lon="5.33459">
        <ele>228.4</ele>
        <time>2022-04-06T14:52:33Z</time>
      </trkpt>
      <trkpt lat="46.50379" lon="5.33497">
        <ele>229.2</ele>
        <time>2022-04-06T14:52:40Z</time>
      </trkpt>
      <trkpt lat="46.50357" lon="5.33521">
        <ele>229.8</ele>
        <time>2022-04-06T14:52:44Z</time>
      </trkpt>
      <trkpt lat="46.50345" lon="5.33533">
        <ele>230</ele>
        <time>2022-04-06T14:52:46Z</time>
      </trkpt>
      <trkpt lat="46.503" lon="5.33583">
        <ele>230.6</ele>
        <time>2022-04-06T14:52:54Z</time>
      </trkpt>
      <trkpt lat="46.50279" lon="5.33608">
        <ele>230.8</ele>
        <time>2022-04-06T14:52:58Z</time>
      </trkpt>
      <trkpt lat="46.50257" lon="5.33632">
        <ele>231.2</ele>
        <time>2022-04-06T14:53:02Z</time>
      </trkpt>
      <trkpt lat="46.50215" lon="5.33677">
        <ele>231.6</ele>
        <time>2022-04-06T14:53:10Z</time>
      </trkpt>
      <trkpt lat="46.50188" lon="5.33707">
        <ele>232</ele>
        <time>2022-04-06T14:53:15Z</time>
      </trkpt>
      <trkpt lat="46.50153" lon="5.33746">
        <ele>232.4</ele>
        <time>2022-04-06T14:53:21Z</time>
      </trkpt>
      <trkpt lat="46.50121" lon="5.33781">
        <ele>232.2</ele>
        <time>2022-04-06T14:53:26Z</time>
      </trkpt>
      <trkpt lat="46.50076" lon="5.33829">
        <ele>232</ele>
        <time>2022-04-06T14:53:33Z</time>
      </trkpt>
      <trkpt lat="46.5007" lon="5.33835">
        <ele>232</ele>
        <time>2022-04-06T14:53:34Z</time>
      </trkpt>
      <trkpt lat="46.50038" lon="5.3387">
        <ele>232.4</ele>
        <time>2022-04-06T14:53:40Z</time>
      </trkpt>
      <trkpt lat="46.50024" lon="5.33884">
        <ele>232.8</ele>
        <time>2022-04-06T14:53:43Z</time>
      </trkpt>
      <trkpt lat="46.50003" lon="5.33907">
        <ele>233.4</ele>
        <time>2022-04-06T14:53:47Z</time>
      </trkpt>
      <trkpt lat="46.49993" lon="5.33918">
        <ele>233.8</ele>
        <time>2022-04-06T14:53:49Z</time>
      </trkpt>
      <trkpt lat="46.49963" lon="5.33949">
        <ele>234.6</ele>
        <time>2022-04-06T14:53:54Z</time>
      </trkpt>
      <trkpt lat="46.49913" lon="5.34002">
        <ele>234.4</ele>
        <time>2022-04-06T14:54:02Z</time>
      </trkpt>
      <trkpt lat="46.49866" lon="5.34056">
        <ele>233.2</ele>
        <time>2022-04-06T14:54:09Z</time>
      </trkpt>
      <trkpt lat="46.49836" lon="5.34097">
        <ele>232.6</ele>
        <time>2022-04-06T14:54:14Z</time>
      </trkpt>
      <trkpt lat="46.49831" lon="5.34105">
        <ele>232.6</ele>
        <time>2022-04-06T14:54:15Z</time>
      </trkpt>
      <trkpt lat="46.49811" lon="5.34137">
        <ele>232.2</ele>
        <time>2022-04-06T14:54:19Z</time>
      </trkpt>
      <trkpt lat="46.49775" lon="5.34198">
        <ele>232.4</ele>
        <time>2022-04-06T14:54:26Z</time>
      </trkpt>
      <trkpt lat="46.49737" lon="5.3426">
        <ele>232.2</ele>
        <time>2022-04-06T14:54:33Z</time>
      </trkpt>
      <trkpt lat="46.49721" lon="5.34288">
        <ele>232</ele>
        <time>2022-04-06T14:54:36Z</time>
      </trkpt>
      <trkpt lat="46.49698" lon="5.34347">
        <ele>231.8</ele>
        <time>2022-04-06T14:54:42Z</time>
      </trkpt>
      <trkpt lat="46.49678" lon="5.34415">
        <ele>231.6</ele>
        <time>2022-04-06T14:54:48Z</time>
      </trkpt>
      <trkpt lat="46.49675" lon="5.34427">
        <ele>231.4</ele>
        <time>2022-04-06T14:54:49Z</time>
      </trkpt>
      <trkpt lat="46.49662" lon="5.34477">
        <ele>230.4</ele>
        <time>2022-04-06T14:54:53Z</time>
      </trkpt>
      <trkpt lat="46.49649" lon="5.34525">
        <ele>229.6</ele>
        <time>2022-04-06T14:54:57Z</time>
      </trkpt>
      <trkpt lat="46.49643" lon="5.34551">
        <ele>229</ele>
        <time>2022-04-06T14:54:59Z</time>
      </trkpt>
      <trkpt lat="46.49636" lon="5.34601">
        <ele>228.2</ele>
        <time>2022-04-06T14:55:03Z</time>
      </trkpt>
      <trkpt lat="46.49634" lon="5.34613">
        <ele>227.8</ele>
        <time>2022-04-06T14:55:04Z</time>
      </trkpt>
      <trkpt lat="46.49629" lon="5.34664">
        <ele>227.6</ele>
        <time>2022-04-06T14:55:09Z</time>
      </trkpt>
      <trkpt lat="46.49625" lon="5.34697">
        <ele>228</ele>
        <time>2022-04-06T14:55:12Z</time>
      </trkpt>
      <trkpt lat="46.49624" lon="5.34714">
        <ele>228.2</ele>
        <time>2022-04-06T14:55:14Z</time>
      </trkpt>
      <trkpt lat="46.49622" lon="5.34731">
        <ele>228.8</ele>
        <time>2022-04-06T14:55:16Z</time>
      </trkpt>
      <trkpt lat="46.49622" lon="5.34747">
        <ele>229</ele>
        <time>2022-04-06T14:55:18Z</time>
      </trkpt>
      <trkpt lat="46.49622" lon="5.34763">
        <ele>229.4</ele>
        <time>2022-04-06T14:55:20Z</time>
      </trkpt>
      <trkpt lat="46.49623" lon="5.34779">
        <ele>230</ele>
        <time>2022-04-06T14:55:22Z</time>
      </trkpt>
      <trkpt lat="46.49627" lon="5.34811">
        <ele>231.2</ele>
        <time>2022-04-06T14:55:26Z</time>
      </trkpt>
      <trkpt lat="46.49633" lon="5.34839">
        <ele>232.4</ele>
        <time>2022-04-06T14:55:30Z</time>
      </trkpt>
      <trkpt lat="46.49636" lon="5.34855">
        <ele>233.2</ele>
        <time>2022-04-06T14:55:32Z</time>
      </trkpt>
      <trkpt lat="46.4964" lon="5.34872">
        <ele>233.4</ele>
        <time>2022-04-06T14:55:34Z</time>
      </trkpt>
      <trkpt lat="46.49645" lon="5.34898">
        <ele>233.8</ele>
        <time>2022-04-06T14:55:37Z</time>
      </trkpt>
      <trkpt lat="46.49652" lon="5.34934">
        <ele>234.6</ele>
        <time>2022-04-06T14:55:41Z</time>
      </trkpt>
      <trkpt lat="46.49656" lon="5.34962">
        <ele>234.6</ele>
        <time>2022-04-06T14:55:44Z</time>
      </trkpt>
      <trkpt lat="46.49665" lon="5.35015">
        <ele>234.6</ele>
        <time>2022-04-06T14:55:49Z</time>
      </trkpt>
      <trkpt lat="46.49681" lon="5.35096">
        <ele>233.4</ele>
        <time>2022-04-06T14:55:56Z</time>
      </trkpt>
      <trkpt lat="46.49683" lon="5.35108">
        <ele>233.2</ele>
        <time>2022-04-06T14:55:57Z</time>
      </trkpt>
      <trkpt lat="46.49699" lon="5.35185">
        <ele>232.4</ele>
        <time>2022-04-06T14:56:04Z</time>
      </trkpt>
      <trkpt lat="46.49714" lon="5.35256">
        <ele>232.8</ele>
        <time>2022-04-06T14:56:11Z</time>
      </trkpt>
      <trkpt lat="46.49727" lon="5.3532">
        <ele>233</ele>
        <time>2022-04-06T14:56:17Z</time>
      </trkpt>
      <trkpt lat="46.4973" lon="5.35367">
        <ele>232.8</ele>
        <time>2022-04-06T14:56:21Z</time>
      </trkpt>
      <trkpt lat="46.4973" lon="5.35378">
        <ele>232.6</ele>
        <time>2022-04-06T14:56:22Z</time>
      </trkpt>
      <trkpt lat="46.49727" lon="5.35412">
        <ele>232.2</ele>
        <time>2022-04-06T14:56:25Z</time>
      </trkpt>
      <trkpt lat="46.49722" lon="5.35452">
        <ele>231.8</ele>
        <time>2022-04-06T14:56:29Z</time>
      </trkpt>
      <trkpt lat="46.49713" lon="5.3553">
        <ele>232.8</ele>
        <time>2022-04-06T14:56:37Z</time>
      </trkpt>
      <trkpt lat="46.49709" lon="5.35559">
        <ele>233.2</ele>
        <time>2022-04-06T14:56:40Z</time>
      </trkpt>
      <trkpt lat="46.49705" lon="5.35597">
        <ele>233.4</ele>
        <time>2022-04-06T14:56:44Z</time>
      </trkpt>
      <trkpt lat="46.49699" lon="5.35633">
        <ele>233.8</ele>
        <time>2022-04-06T14:56:48Z</time>
      </trkpt>
      <trkpt lat="46.49696" lon="5.3564">
        <ele>233.8</ele>
        <time>2022-04-06T14:56:49Z</time>
      </trkpt>
      <trkpt lat="46.49692" lon="5.35642">
        <ele>233.8</ele>
        <time>2022-04-06T14:56:50Z</time>
      </trkpt>
      <trkpt lat="46.49684" lon="5.35644">
        <ele>233.8</ele>
        <time>2022-04-06T14:56:51Z</time>
      </trkpt>
      <trkpt lat="46.49678" lon="5.35642">
        <ele>233.8</ele>
        <time>2022-04-06T14:56:52Z</time>
      </trkpt>
      <trkpt lat="46.49655" lon="5.35636">
        <ele>234.2</ele>
        <time>2022-04-06T14:56:56Z</time>
      </trkpt>
      <trkpt lat="46.4965" lon="5.35634">
        <ele>234.2</ele>
        <time>2022-04-06T14:56:57Z</time>
      </trkpt>
      <trkpt lat="46.49636" lon="5.35631">
        <ele>234.6</ele>
        <time>2022-04-06T14:57:00Z</time>
      </trkpt>
      <trkpt lat="46.4963" lon="5.35629">
        <ele>234.8</ele>
        <time>2022-04-06T14:57:01Z</time>
      </trkpt>
      <trkpt lat="46.49612" lon="5.35621">
        <ele>235.2</ele>
        <time>2022-04-06T14:57:04Z</time>
      </trkpt>
      <trkpt lat="46.49592" lon="5.35612">
        <ele>235.6</ele>
        <time>2022-04-06T14:57:07Z</time>
      </trkpt>
      <trkpt lat="46.49558" lon="5.35601">
        <ele>236.2</ele>
        <time>2022-04-06T14:57:12Z</time>
      </trkpt>
      <trkpt lat="46.49533" lon="5.35591">
        <ele>237.2</ele>
        <time>2022-04-06T14:57:16Z</time>
      </trkpt>
      <trkpt lat="46.49514" lon="5.35584">
        <ele>237.6</ele>
        <time>2022-04-06T14:57:19Z</time>
      </trkpt>
      <trkpt lat="46.49472" lon="5.35568">
        <ele>238.8</ele>
        <time>2022-04-06T14:57:26Z</time>
      </trkpt>
      <trkpt lat="46.49427" lon="5.3555">
        <ele>239.2</ele>
        <time>2022-04-06T14:57:33Z</time>
      </trkpt>
      <trkpt lat="46.49376" lon="5.35532">
        <ele>239.2</ele>
        <time>2022-04-06T14:57:41Z</time>
      </trkpt>
      <trkpt lat="46.49343" lon="5.3553">
        <ele>239.8</ele>
        <time>2022-04-06T14:57:46Z</time>
      </trkpt>
      <trkpt lat="46.49337" lon="5.35529">
        <ele>240</ele>
        <time>2022-04-06T14:57:47Z</time>
      </trkpt>
      <trkpt lat="46.493" lon="5.35528">
        <ele>240.8</ele>
        <time>2022-04-06T14:57:53Z</time>
      </trkpt>
      <trkpt lat="46.49255" lon="5.35533">
        <ele>241.4</ele>
        <time>2022-04-06T14:58:00Z</time>
      </trkpt>
      <trkpt lat="46.49234" lon="5.35536">
        <ele>241.8</ele>
        <time>2022-04-06T14:58:03Z</time>
      </trkpt>
      <trkpt lat="46.49228" lon="5.35536">
        <ele>241.8</ele>
        <time>2022-04-06T14:58:04Z</time>
      </trkpt>
      <trkpt lat="46.49221" lon="5.35536">
        <ele>242</ele>
        <time>2022-04-06T14:58:05Z</time>
      </trkpt>
      <trkpt lat="46.49177" lon="5.35544">
        <ele>242</ele>
        <time>2022-04-06T14:58:11Z</time>
      </trkpt>
      <trkpt lat="46.49136" lon="5.35547">
        <ele>242</ele>
        <time>2022-04-06T14:58:16Z</time>
      </trkpt>
      <trkpt lat="46.49084" lon="5.35548">
        <ele>240.6</ele>
        <time>2022-04-06T14:58:22Z</time>
      </trkpt>
      <trkpt lat="46.4904" lon="5.35552">
        <ele>239.6</ele>
        <time>2022-04-06T14:58:27Z</time>
      </trkpt>
      <trkpt lat="46.49031" lon="5.35552">
        <ele>239.4</ele>
        <time>2022-04-06T14:58:28Z</time>
      </trkpt>
      <trkpt lat="46.48987" lon="5.35553">
        <ele>238.4</ele>
        <time>2022-04-06T14:58:33Z</time>
      </trkpt>
      <trkpt lat="46.48946" lon="5.35556">
        <ele>237.8</ele>
        <time>2022-04-06T14:58:38Z</time>
      </trkpt>
      <trkpt lat="46.48919" lon="5.35558">
        <ele>238</ele>
        <time>2022-04-06T14:58:42Z</time>
      </trkpt>
      <trkpt lat="46.48877" lon="5.35557">
        <ele>238.8</ele>
        <time>2022-04-06T14:58:48Z</time>
      </trkpt>
      <trkpt lat="46.48855" lon="5.35559">
        <ele>239.2</ele>
        <time>2022-04-06T14:58:52Z</time>
      </trkpt>
      <trkpt lat="46.4885" lon="5.3556">
        <ele>239.4</ele>
        <time>2022-04-06T14:58:53Z</time>
      </trkpt>
      <trkpt lat="46.48844" lon="5.35563">
        <ele>239.6</ele>
        <time>2022-04-06T14:58:54Z</time>
      </trkpt>
      <trkpt lat="46.48829" lon="5.3558">
        <ele>240</ele>
        <time>2022-04-06T14:58:57Z</time>
      </trkpt>
      <trkpt lat="46.48821" lon="5.35596">
        <ele>240.4</ele>
        <time>2022-04-06T14:58:59Z</time>
      </trkpt>
      <trkpt lat="46.48814" lon="5.35615">
        <ele>240.6</ele>
        <time>2022-04-06T14:59:01Z</time>
      </trkpt>
      <trkpt lat="46.48785" lon="5.35684">
        <ele>241</ele>
        <time>2022-04-06T14:59:08Z</time>
      </trkpt>
      <trkpt lat="46.48754" lon="5.35757">
        <ele>241</ele>
        <time>2022-04-06T14:59:16Z</time>
      </trkpt>
      <trkpt lat="46.48743" lon="5.35783">
        <ele>240.8</ele>
        <time>2022-04-06T14:59:19Z</time>
      </trkpt>
      <trkpt lat="46.48731" lon="5.35807">
        <ele>240.6</ele>
        <time>2022-04-06T14:59:22Z</time>
      </trkpt>
      <trkpt lat="46.48721" lon="5.35831">
        <ele>240.8</ele>
        <time>2022-04-06T14:59:25Z</time>
      </trkpt>
      <trkpt lat="46.48697" lon="5.35885">
        <ele>241.6</ele>
        <time>2022-04-06T14:59:32Z</time>
      </trkpt>
      <trkpt lat="46.48694" lon="5.35893">
        <ele>241.8</ele>
        <time>2022-04-06T14:59:33Z</time>
      </trkpt>
      <trkpt lat="46.48686" lon="5.35919">
        <ele>242.4</ele>
        <time>2022-04-06T14:59:36Z</time>
      </trkpt>
      <trkpt lat="46.48683" lon="5.35936">
        <ele>242.6</ele>
        <time>2022-04-06T14:59:38Z</time>
      </trkpt>
      <trkpt lat="46.4868" lon="5.35954">
        <ele>243.2</ele>
        <time>2022-04-06T14:59:40Z</time>
      </trkpt>
      <trkpt lat="46.48671" lon="5.36008">
        <ele>244.2</ele>
        <time>2022-04-06T14:59:46Z</time>
      </trkpt>
      <trkpt lat="46.4867" lon="5.36015">
        <ele>244.2</ele>
        <time>2022-04-06T14:59:47Z</time>
      </trkpt>
      <trkpt lat="46.48663" lon="5.36047">
        <ele>244.2</ele>
        <time>2022-04-06T14:59:50Z</time>
      </trkpt>
      <trkpt lat="46.48645" lon="5.36131">
        <ele>243.2</ele>
        <time>2022-04-06T14:59:57Z</time>
      </trkpt>
      <trkpt lat="46.48639" lon="5.36199">
        <ele>242.8</ele>
        <time>2022-04-06T15:00:03Z</time>
      </trkpt>
      <trkpt lat="46.48632" lon="5.36269">
        <ele>243.2</ele>
        <time>2022-04-06T15:00:10Z</time>
      </trkpt>
      <trkpt lat="46.48627" lon="5.36292">
        <ele>243.4</ele>
        <time>2022-04-06T15:00:13Z</time>
      </trkpt>
      <trkpt lat="46.4862" lon="5.36308">
        <ele>243.6</ele>
        <time>2022-04-06T15:00:15Z</time>
      </trkpt>
      <trkpt lat="46.48609" lon="5.36321">
        <ele>243.8</ele>
        <time>2022-04-06T15:00:17Z</time>
      </trkpt>
      <trkpt lat="46.48604" lon="5.36323">
        <ele>244</ele>
        <time>2022-04-06T15:00:18Z</time>
      </trkpt>
      <trkpt lat="46.48598" lon="5.36325">
        <ele>244.2</ele>
        <time>2022-04-06T15:00:19Z</time>
      </trkpt>
      <trkpt lat="46.48586" lon="5.36325">
        <ele>244.6</ele>
        <time>2022-04-06T15:00:21Z</time>
      </trkpt>
      <trkpt lat="46.48575" lon="5.36326">
        <ele>245.4</ele>
        <time>2022-04-06T15:00:23Z</time>
      </trkpt>
      <trkpt lat="46.48569" lon="5.36327">
        <ele>245.6</ele>
        <time>2022-04-06T15:00:24Z</time>
      </trkpt>
      <trkpt lat="46.48546" lon="5.36332">
        <ele>246.8</ele>
        <time>2022-04-06T15:00:28Z</time>
      </trkpt>
      <trkpt lat="46.48523" lon="5.36335">
        <ele>247.8</ele>
        <time>2022-04-06T15:00:32Z</time>
      </trkpt>
      <trkpt lat="46.48517" lon="5.36336">
        <ele>248</ele>
        <time>2022-04-06T15:00:33Z</time>
      </trkpt>
      <trkpt lat="46.48476" lon="5.36343">
        <ele>249</ele>
        <time>2022-04-06T15:00:40Z</time>
      </trkpt>
      <trkpt lat="46.48464" lon="5.36344">
        <ele>249.2</ele>
        <time>2022-04-06T15:00:42Z</time>
      </trkpt>
      <trkpt lat="46.48414" lon="5.36357">
        <ele>249.4</ele>
        <time>2022-04-06T15:00:50Z</time>
      </trkpt>
      <trkpt lat="46.48408" lon="5.36361">
        <ele>249.4</ele>
        <time>2022-04-06T15:00:51Z</time>
      </trkpt>
      <trkpt lat="46.48386" lon="5.3638">
        <ele>249.4</ele>
        <time>2022-04-06T15:00:55Z</time>
      </trkpt>
      <trkpt lat="46.48351" lon="5.36419">
        <ele>249.8</ele>
        <time>2022-04-06T15:01:02Z</time>
      </trkpt>
      <trkpt lat="46.48346" lon="5.36424">
        <ele>250.2</ele>
        <time>2022-04-06T15:01:03Z</time>
      </trkpt>
      <trkpt lat="46.48314" lon="5.36459">
        <ele>251.2</ele>
        <time>2022-04-06T15:01:10Z</time>
      </trkpt>
      <trkpt lat="46.4831" lon="5.36464">
        <ele>251.4</ele>
        <time>2022-04-06T15:01:11Z</time>
      </trkpt>
      <trkpt lat="46.4828" lon="5.36497">
        <ele>252.4</ele>
        <time>2022-04-06T15:01:18Z</time>
      </trkpt>
      <trkpt lat="46.48255" lon="5.36524">
        <ele>253.4</ele>
        <time>2022-04-06T15:01:24Z</time>
      </trkpt>
      <trkpt lat="46.48238" lon="5.36543">
        <ele>254.4</ele>
        <time>2022-04-06T15:01:28Z</time>
      </trkpt>
      <trkpt lat="46.4823" lon="5.36553">
        <ele>254.8</ele>
        <time>2022-04-06T15:01:30Z</time>
      </trkpt>
      <trkpt lat="46.48226" lon="5.36556">
        <ele>254.8</ele>
        <time>2022-04-06T15:01:31Z</time>
      </trkpt>
      <trkpt lat="46.48217" lon="5.36558">
        <ele>255</ele>
        <time>2022-04-06T15:01:33Z</time>
      </trkpt>
      <trkpt lat="46.48207" lon="5.36559">
        <ele>255.2</ele>
        <time>2022-04-06T15:01:35Z</time>
      </trkpt>
      <trkpt lat="46.48196" lon="5.36564">
        <ele>255.4</ele>
        <time>2022-04-06T15:01:37Z</time>
      </trkpt>
      <trkpt lat="46.48189" lon="5.36576">
        <ele>255.6</ele>
        <time>2022-04-06T15:01:39Z</time>
      </trkpt>
      <trkpt lat="46.48187" lon="5.36584">
        <ele>255.6</ele>
        <time>2022-04-06T15:01:40Z</time>
      </trkpt>
      <trkpt lat="46.48184" lon="5.36591">
        <ele>255.8</ele>
        <time>2022-04-06T15:01:41Z</time>
      </trkpt>
      <trkpt lat="46.48177" lon="5.36605">
        <ele>256</ele>
        <time>2022-04-06T15:01:43Z</time>
      </trkpt>
      <trkpt lat="46.48173" lon="5.36611">
        <ele>256.2</ele>
        <time>2022-04-06T15:01:44Z</time>
      </trkpt>
      <trkpt lat="46.48156" lon="5.36632">
        <ele>256.4</ele>
        <time>2022-04-06T15:01:48Z</time>
      </trkpt>
      <trkpt lat="46.48152" lon="5.36637">
        <ele>256.6</ele>
        <time>2022-04-06T15:01:49Z</time>
      </trkpt>
      <trkpt lat="46.48149" lon="5.36643">
        <ele>256.6</ele>
        <time>2022-04-06T15:01:50Z</time>
      </trkpt>
      <trkpt lat="46.48134" lon="5.36657">
        <ele>257</ele>
        <time>2022-04-06T15:01:53Z</time>
      </trkpt>
      <trkpt lat="46.48129" lon="5.36662">
        <ele>257</ele>
        <time>2022-04-06T15:01:54Z</time>
      </trkpt>
      <trkpt lat="46.48108" lon="5.36686">
        <ele>257.4</ele>
        <time>2022-04-06T15:01:59Z</time>
      </trkpt>
      <trkpt lat="46.48105" lon="5.36692">
        <ele>257.6</ele>
        <time>2022-04-06T15:02:00Z</time>
      </trkpt>
      <trkpt lat="46.48105" lon="5.36698">
        <ele>257.6</ele>
        <time>2022-04-06T15:02:01Z</time>
      </trkpt>
      <trkpt lat="46.4811" lon="5.36709">
        <ele>258</ele>
        <time>2022-04-06T15:02:03Z</time>
      </trkpt>
      <trkpt lat="46.48126" lon="5.36721">
        <ele>258.8</ele>
        <time>2022-04-06T15:02:07Z</time>
      </trkpt>
      <trkpt lat="46.4813" lon="5.36724">
        <ele>258.8</ele>
        <time>2022-04-06T15:02:08Z</time>
      </trkpt>
      <trkpt lat="46.48153" lon="5.36745">
        <ele>259.8</ele>
        <time>2022-04-06T15:02:14Z</time>
      </trkpt>
      <trkpt lat="46.48164" lon="5.36755">
        <ele>260.6</ele>
        <time>2022-04-06T15:02:17Z</time>
      </trkpt>
      <trkpt lat="46.48168" lon="5.36758">
        <ele>261</ele>
        <time>2022-04-06T15:02:18Z</time>
      </trkpt>
      <trkpt lat="46.48188" lon="5.36774">
        <ele>262.2</ele>
        <time>2022-04-06T15:02:23Z</time>
      </trkpt>
      <trkpt lat="46.48202" lon="5.36787">
        <ele>263</ele>
        <time>2022-04-06T15:02:27Z</time>
      </trkpt>
      <trkpt lat="46.48206" lon="5.3679">
        <ele>263.4</ele>
        <time>2022-04-06T15:02:28Z</time>
      </trkpt>
      <trkpt lat="46.48224" lon="5.36804">
        <ele>264.6</ele>
        <time>2022-04-06T15:02:33Z</time>
      </trkpt>
      <trkpt lat="46.48235" lon="5.36812">
        <ele>265.6</ele>
        <time>2022-04-06T15:02:36Z</time>
      </trkpt>
      <trkpt lat="46.48238" lon="5.36815">
        <ele>265.8</ele>
        <time>2022-04-06T15:02:37Z</time>
      </trkpt>
      <trkpt lat="46.48249" lon="5.36826">
        <ele>266.8</ele>
        <time>2022-04-06T15:02:41Z</time>
      </trkpt>
    </trkseg>
  </trk>
</gpx>